GFSSE_850_rhum_000.txt.gz
RH
72 57 54 58 91 86 83 84 82 73 56 65 91 98 86 84 76 76 82 92 85 81 73 62 89 97 99 98 92 70 62 50 53 36 47 40 22 32 64 78 79 83 69
66 63 61 78 82 87 82 80 80 70 49 94 91 95 81 87 81 86 84 86 87 89 95 79 99 96 94 84 92 82 46 45 38 47 79 84 40 36 54 64 73 82 85
71 59 64 81 86 84 80 84 77 57 74 90 76 91 88 82 78 86 95 81 91 95 95 59 88 98 97 92 98 97 38 33 30 71 81 91 61 78 56 56 71 58 80
79 76 53 80 78 79 82 70 66 52 76 72 88 90 95 93 92 72 93 83 68 96 82 36 79 98 97 97 98 74 34 31 47 71 83 89 82 31 75 52 24 51 72
76 80 84 64 81 82 82 81 55 60 82 90 97 91 97 95 94 84 85 74 62 64 45 31 76 97 86 98 97 54 28 32 71 82 87 86 79 25 23 22 21 23 24
74 76 80 80 77 82 87 85 58 60 84 95 96 98 87 93 96 84 71 71 53 45 37 24 35 36 93 48 49 30 28 49 76 83 86 86 63 30 24 22 22 22 20
70 72 80 78 82 92 86 83 56 70 86 95 99 86 87 91 98 96 75 76 63 54 45 25 20 22 28 29 32 29 27 57 74 82 87 80 24 24 23 24 24 24 23
68 73 76 74 85 87 85 71 57 67 90 95 88 68 79 94 96 92 87 96 90 70 59 34 19 18 21 27 26 27 23 55 70 80 81 70 24 24 24 25 25 25 26
68 74 74 66 67 66 68 40 52 82 91 90 70 60 58 66 86 92 90 90 90 85 63 38 26 18 19 24 25 23 22 39 51 64 57 40 23 24 25 26 26 27 28
66 69 74 73 50 24 18 23 50 92 98 86 80 52 40 59 80 82 76 87 87 84 66 46 25 22 19 21 22 20 21 23 36 34 60 53 37 25 26 26 26 27 29
59 61 64 74 74 64 49 32 17 34 49 40 30 23 35 40 60 79 60 51 60 63 54 42 21 18 20 23 22 20 20 22 33 34 52 41 29 26 27 27 27 28 28
48 54 58 65 70 72 71 60 41 20 20 19 20 20 32 41 89 93 66 53 45 40 35 30 18 16 21 25 24 22 19 21 26 46 49 43 30 27 27 28 28 28 29
42 46 42 55 66 58 46 47 40 21 28 22 33 51 49 54 82 70 53 39 45 28 29 28 19 15 22 28 30 34 22 20 32 32 42 37 33 26 27 28 28 28 29
24 18 40 49 53 55 44 32 36 37 40 36 47 57 55 58 61 44 34 36 38 31 42 31 31 17 22 25 30 33 37 32 36 33 29 28 30 26 26 26 26 27 27
36 32 27 25 53 44 54 29 28 35 38 39 48 47 50 56 50 50 49 55 52 41 40 56 50 38 45 29 26 27 26 30 29 28 26 22 22 24 24 24 25 25 26
36 37 33 26 25 54 52 42 30 33 34 39 36 38 40 40 42 48 50 46 45 46 42 43 44 37 31 37 35 33 29 26 23 23 22 22 21 21 22 23 24 24 25
36 34 34 35 30 26 47 44 45 39 43 40 41 43 42 44 45 46 50 50 46 43 39 39 39 54 58 51 46 52 48 39 30 25 22 22 21 21 22 23 24 24 25
35 37 39 38 37 28 23 35 46 53 54 40 35 37 42 44 48 52 53 51 53 51 50 49 45 46 49 50 53 59 63 53 44 39 35 27 25 24 23 22 23 24 25
28 34 39 43 40 38 28 28 35 43 44 37 32 29 26 30 36 38 43 47 55 61 60 55 56 58 60 63 68 67 58 59 61 59 52 46 39 33 29 25 25 25 26
21 24 30 36 43 44 40 39 45 47 29 31 28 24 25 28 30 36 37 44 58 62 66 66 65 68 68 70 76 78 74 69 64 63 61 64 63 58 51 43 33 27 27
21 24 27 31 35 41 46 48 47 41 40 38 29 24 27 27 31 34 40 48 62 69 70 73 75 75 75 80 86 87 83 76 76 76 74 70 60 60 58 54 45 40 36
19 19 24 28 33 36 41 43 49 48 42 42 38 32 32 36 39 50 51 52 63 74 78 82 88 86 83 87 92 94 93 86 80 72 66 60 54 63 69 73 70 62 52
20 22 21 26 32 38 42 46 48 56 64 64 55 64 70 73 73 78 79 85 84 89 85 88 92 94 90 90 96 93 90 83 72 65 62 60 61 73 76 69 69 65 54
22 22 24 25 28 37 44 50 55 59 63 60 65 67 66 66 59 57 63 75 88 96 98 97 99 98 98 92 90 91 92 88 80 78 73 71 67 68 67 57 54 53 57
25 25 26 29 30 32 40 44 51 58 61 61 69 73 71 69 68 66 65 75 78 92 100 100 100 100 100 98 90 90 92 94 95 98 94 87 82 77 77 77 75 71 70
29 28 29 29 29 28 29 35 42 45 50 55 57 66 68 67 69 71 74 74 76 85 95 99 100 100 100 98 89 86 90 96 91 98 100 98 95 86 82 79 79 80 75

GFSSE_850_rhum_003.txt.gz
RH
64 63 52 57 80 92 92 87 81 77 64 52 94 95 92 91 78 94 91 88 98 91 85 97 96 98 97 97 91 79 57 47 42 49 52 36 26 57 87 80 79 81 81
59 55 44 52 86 93 86 86 78 75 53 74 96 96 94 88 86 84 97 96 90 98 98 92 98 98 96 85 98 72 42 46 38 67 68 89 39 90 52 54 73 94 81
57 55 45 66 83 88 84 79 76 73 50 90 93 92 97 84 82 93 94 91 94 97 97 51 99 97 98 97 90 85 37 35 64 80 80 86 59 49 53 45 51 84 79
44 55 42 75 81 86 84 84 59 60 60 67 93 96 97 94 94 86 97 83 82 98 65 39 87 99 93 96 99 76 36 28 51 87 86 85 74 34 36 15 32 40 53
62 67 66 64 81 78 84 73 63 49 76 91 97 81 93 96 98 89 76 63 50 52 37 37 52 99 91 96 98 44 30 28 45 84 92 84 68 20 20 19 20 22 21
73 68 65 71 68 79 80 68 71 60 75 93 98 96 87 96 96 91 63 56 44 35 24 21 34 26 56 70 71 27 25 43 61 77 94 72 22 22 22 22 23 21 18
61 72 74 79 79 77 81 78 75 59 80 79 96 92 94 95 96 98 74 57 48 34 23 16 18 24 22 28 28 25 27 46 55 76 75 62 18 22 23 23 24 24 23
53 65 71 76 78 79 86 70 70 54 95 98 96 70 78 82 62 80 71 61 57 50 41 32 20 18 21 23 24 25 26 48 56 74 73 58 23 22 23 24 25 26 27
55 65 66 59 64 77 85 73 55 54 92 84 93 48 41 46 50 39 66 64 83 75 69 48 32 20 16 20 22 24 21 46 49 71 71 51 25 23 23 24 26 27 28
52 50 51 48 36 55 36 27 19 34 63 53 45 27 28 26 27 43 55 84 86 82 79 62 39 24 19 18 21 22 21 32 39 43 39 43 37 24 24 24 26 27 28
43 36 39 44 44 44 19 14 12 16 22 23 24 23 23 24 23 32 54 48 49 60 62 54 41 23 20 19 20 20 19 19 27 36 36 41 42 29 26 25 26 28 29
26 28 36 40 46 43 29 34 32 18 18 21 21 23 21 20 23 45 42 42 35 33 37 46 38 22 15 18 21 20 19 20 20 25 24 34 38 29 26 26 27 28 29
16 22 32 38 45 48 43 29 28 28 17 20 18 21 28 33 33 29 32 31 34 40 32 29 28 20 13 16 21 22 20 19 19 23 24 28 33 33 26 26 26 27 28
21 18 24 32 42 50 53 31 22 26 21 26 28 30 31 38 33 30 32 32 31 36 27 24 24 20 12 14 21 22 22 21 18 21 24 25 26 28 28 25 25 26 26
26 28 20 24 28 40 39 32 26 22 23 26 31 35 35 37 38 39 40 39 33 29 27 24 20 20 18 14 22 25 25 24 23 20 23 25 23 23 25 25 24 25 25
30 31 34 29 25 38 41 31 30 32 27 32 35 34 35 36 37 39 41 41 40 38 35 32 27 24 24 22 17 31 29 27 26 23 23 23 22 22 22 22 22 23 24
26 31 33 30 33 32 24 30 31 34 35 31 31 37 38 38 40 42 44 44 41 45 45 42 38 34 34 35 28 24 27 33 36 32 30 25 23 22 22 22 22 22 23
27 32 35 36 33 32 30 22 30 41 38 29 27 28 29 34 39 42 42 36 40 50 52 51 49 46 44 43 37 37 40 42 41 44 40 34 32 28 24 22 22 23 23
26 26 30 36 34 35 33 32 32 28 30 27 30 25 23 25 28 34 36 38 47 55 58 58 57 57 55 57 55 53 50 48 44 46 43 41 40 39 34 29 30 29 29
24 28 35 38 38 40 42 41 40 44 36 29 30 25 25 27 34 42 46 49 61 70 68 73 72 69 69 68 70 68 63 60 60 60 58 56 53 53 50 49 47 43 37
18 24 27 36 46 44 43 46 45 43 42 42 40 38 43 53 57 62 66 63 60 68 68 70 76 81 78 80 87 84 80 73 73 71 70 66 65 64 64 62 59 53 51
18 19 21 26 33 40 50 46 46 44 47 51 54 60 64 65 66 69 70 67 66 74 79 79 81 82 84 90 90 93 95 87 74 64 60 58 62 65 66 63 64 62 60
18 19 22 22 28 34 40 51 53 55 58 53 51 56 63 72 76 78 77 78 83 89 90 92 95 96 97 96 97 97 95 84 73 53 53 57 58 56 54 55 55 56 64
24 24 24 25 28 34 41 47 55 62 62 64 66 69 73 78 81 80 77 76 79 84 91 94 100 100 100 98 98 100 98 95 86 84 68 73 74 70 68 64 63 65 66
28 28 28 27 25 26 30 38 43 48 54 57 63 69 72 75 77 75 75 76 79 82 84 89 94 92 96 100 96 96 100 99 98 100 93 78 86 73 75 73 70 70 68
34 32 31 31 31 33 34 34 34 36 39 41 46 56 66 74 78 81 84 81 85 86 85 86 88 95 94 97 100 98 96 98 96 99 100 98 96 81 89 79 79 78 77

GFSSE_850_rhum_006.txt.gz
RH
53 71 61 64 75 78 81 88 86 82 71 54 94 97 98 88 74 97 98 84 96 92 78 94 98 90 94 93 97 84 68 43 33 43 33 26 33 91 85 61 88 85 83
50 58 56 56 75 88 94 83 87 81 66 48 96 97 96 89 92 76 92 96 96 98 97 98 98 96 97 89 95 60 45 44 33 49 61 47 52 90 48 54 86 78 76
49 55 52 53 76 94 89 92 84 81 65 45 98 94 91 86 80 82 84 96 97 97 96 73 99 97 98 90 89 82 41 40 65 72 76 68 54 44 46 43 69 76 79
43 47 53 56 78 86 88 86 84 70 55 51 79 88 90 94 95 88 95 74 95 100 54 38 95 96 85 99 98 86 38 50 78 84 78 66 55 25 21 18 35 55 71
36 51 47 63 80 79 81 82 71 51 47 80 95 90 89 96 97 86 70 68 55 42 29 37 50 68 62 94 98 61 35 44 72 84 73 73 64 32 20 19 23 24 26
36 50 57 55 67 68 78 81 65 52 51 88 90 90 94 92 95 84 64 50 40 32 29 24 37 34 28 34 73 39 32 47 59 82 80 78 59 20 22 22 21 20 19
32 47 55 64 72 72 75 77 67 63 59 71 97 98 91 94 95 73 65 60 44 44 31 19 18 23 19 19 22 24 28 46 52 61 69 68 40 25 25 24 24 24 23
35 42 56 65 71 73 73 74 64 56 45 56 92 93 88 91 82 65 60 55 59 61 45 30 22 18 18 20 19 22 26 45 52 51 58 56 32 23 25 25 25 26 26
40 49 54 63 67 68 68 68 61 47 34 74 98 52 50 69 56 45 54 77 92 73 62 53 39 26 17 17 20 22 24 37 47 44 40 40 40 24 24 24 24 26 26
41 46 52 55 48 42 52 52 30 15 18 57 50 27 25 28 29 36 57 59 51 81 68 67 53 36 24 18 17 21 24 25 38 45 40 34 29 24 25 25 25 25 27
36 43 45 40 42 36 36 21 13 8 14 24 26 28 23 25 26 26 32 43 39 32 36 42 45 35 23 18 16 19 23 21 30 38 35 30 33 37 30 25 25 25 25
26 30 31 35 38 42 34 24 19 14 15 19 22 22 25 26 24 21 34 33 23 20 20 25 25 26 23 15 16 18 20 22 21 23 31 28 30 38 39 26 26 26 26
27 30 26 29 37 42 35 27 25 26 23 18 19 19 22 25 26 25 29 27 25 24 24 25 21 23 24 17 13 18 21 21 20 20 24 26 26 32 38 30 25 26 26
27 31 34 32 34 35 36 32 24 24 26 20 24 24 26 28 29 30 31 33 33 32 30 29 24 24 24 19 13 16 20 22 21 19 20 26 28 28 33 32 28 25 25
27 29 31 35 31 33 31 29 30 28 27 27 29 29 30 33 33 34 34 37 38 39 37 36 32 28 25 23 18 14 18 23 25 25 19 21 27 27 30 32 32 29 25
24 24 30 36 34 32 29 29 35 33 28 27 29 31 33 34 34 35 36 38 39 41 42 42 42 40 36 33 30 26 22 26 27 27 28 26 24 27 29 28 27 30 36
29 31 32 36 39 37 30 26 25 32 33 31 28 30 33 35 35 38 38 38 42 51 55 55 54 56 54 49 42 37 31 25 27 33 30 28 27 28 28 28 28 29 30
28 29 32 34 37 39 36 33 30 28 34 27 29 34 36 38 45 51 52 52 53 56 60 62 61 60 61 60 57 54 51 47 43 40 39 43 43 40 36 34 30 28 28
22 24 25 33 36 37 39 40 39 37 35 30 31 36 44 54 59 60 59 57 57 58 63 68 69 73 70 68 69 68 66 64 60 57 53 51 50 49 46 42 42 41 37
20 22 25 31 43 45 44 44 44 45 43 41 39 38 38 46 59 69 71 71 72 73 71 72 74 76 78 81 82 81 80 78 74 70 67 66 64 62 60 59 54 50 49
21 23 28 31 38 47 49 48 47 46 46 45 45 49 57 64 73 79 80 81 82 85 84 86 88 89 88 90 94 92 89 84 82 78 78 77 72 73 72 70 67 64 62
23 24 23 25 28 31 38 49 52 51 51 53 59 65 68 70 74 80 82 83 84 85 84 87 91 95 97 97 99 100 99 91 88 82 76 61 45 52 54 55 61 60 64
21 22 22 24 28 32 36 42 51 58 60 63 72 76 75 79 82 83 87 87 86 85 84 83 86 90 93 90 92 100 99 91 81 79 77 72 72 70 66 63 62 60 58
29 29 28 28 32 36 41 46 53 63 67 66 64 63 67 71 73 76 80 80 80 81 83 85 86 86 89 85 86 92 98 100 98 90 80 87 89 88 86 80 71 67 72
31 30 31 31 31 33 34 38 42 44 45 45 46 51 59 68 78 81 81 84 82 82 79 81 88 93 92 85 84 95 96 99 100 100 98 86 82 85 88 91 88 87 80
36 35 35 34 36 37 38 39 40 42 44 42 43 44 45 44 43 43 46 54 62 65 66 73 78 83 87 96 99 100 100 100 99 100 100 100 97 79 80 92 89 90 91

GFSSE_850_rhum_012.txt.gz
RH
32 42 50 83 87 83 87 84 86 86 82 74 52 54 91 78 75 80 97 97 88 96 84 74 70 86 85 86 91 91 82 74 45 32 29 28 81 98 95 94 80 77 68
32 40 48 76 83 83 97 85 87 80 78 71 50 90 92 96 91 66 84 95 97 98 93 77 80 90 90 95 98 92 67 77 47 36 40 32 51 88 78 86 85 84 88
31 39 46 63 75 74 78 94 87 86 78 69 60 82 93 92 87 82 96 94 95 98 97 97 87 97 98 92 92 97 92 53 46 37 45 51 45 51 52 69 96 86 84
28 36 40 56 64 80 91 89 90 86 78 59 54 84 88 87 93 98 84 86 95 98 99 53 99 97 100 94 91 96 93 53 44 45 55 57 51 57 59 50 81 84 86
21 34 42 48 76 87 88 84 82 78 63 50 55 80 88 82 87 94 85 70 66 72 39 48 92 96 73 79 100 99 94 62 40 48 57 62 62 54 62 20 26 26 28
21 35 44 47 76 90 82 80 77 72 52 44 68 83 84 87 93 94 95 71 61 51 43 37 44 43 43 48 62 80 76 51 36 46 50 67 72 64 55 22 20 20 20
24 34 46 57 73 69 76 73 76 69 53 46 94 88 87 93 92 97 75 72 54 44 43 39 34 30 31 37 38 28 44 48 34 40 44 53 66 57 49 25 21 21 21
27 36 44 55 72 73 73 73 70 64 52 41 71 93 96 86 92 98 74 51 49 55 52 58 51 43 31 26 21 20 25 33 28 37 48 48 61 56 91 51 24 23 22
29 36 45 51 63 88 84 79 72 64 59 46 38 49 56 71 64 56 68 56 49 59 96 100 94 68 56 41 29 18 20 29 27 34 44 42 52 64 70 93 29 22 23
30 35 45 51 56 64 63 64 65 62 59 48 32 54 32 37 40 35 35 34 40 57 97 82 82 68 56 54 46 30 20 22 28 26 34 43 47 54 51 92 61 25 24
27 31 39 45 54 58 52 46 56 58 53 44 27 30 32 32 31 27 25 23 29 40 43 51 94 59 53 47 42 41 25 20 22 26 28 36 46 49 50 81 92 78 28
23 29 35 39 50 52 43 41 40 38 35 30 25 28 28 28 28 26 27 31 38 42 45 46 51 51 51 44 37 35 33 21 21 22 27 28 38 52 54 51 89 91 78
26 31 34 35 44 45 41 45 40 35 33 29 23 21 24 24 25 28 33 40 40 46 51 56 56 54 51 48 42 37 34 31 18 18 22 27 29 34 40 41 58 91 95
28 31 33 35 40 40 41 41 44 42 35 28 29 27 24 26 27 29 35 40 42 46 49 54 56 58 58 56 54 51 44 36 31 18 15 22 26 26 25 26 38 86 95
32 31 31 33 38 41 41 41 41 39 39 32 31 29 30 29 32 35 37 42 46 52 54 57 58 58 58 58 59 58 56 54 48 40 31 19 21 28 31 27 26 44 88
34 34 38 36 38 40 41 44 44 44 42 40 37 32 31 31 34 37 41 46 49 52 54 57 56 58 58 60 60 63 62 63 61 60 57 51 42 28 28 32 35 30 42
30 29 30 32 37 39 40 42 45 46 47 44 39 40 39 41 45 49 51 54 58 66 72 72 71 74 74 75 74 74 74 72 68 68 68 66 64 60 50 37 34 36 36
23 23 22 25 31 36 39 40 44 48 50 49 48 48 52 57 61 63 66 66 73 81 87 89 91 91 91 92 93 92 92 90 85 81 81 80 76 72 70 68 62 54 47
19 19 18 19 22 29 39 43 45 47 48 49 51 55 60 68 71 76 79 79 85 90 93 96 97 98 97 97 98 98 99 97 95 92 85 81 80 81 77 73 73 74 71
21 23 26 24 26 30 37 43 46 49 51 54 58 64 70 75 82 88 90 92 98 100 98 97 94 92 92 95 95 91 89 87 82 77 72 70 68 68 69 72 72 71 72
26 27 22 21 21 25 29 39 51 60 64 70 74 75 77 76 78 84 88 91 90 88 87 90 91 90 91 91 100 80 76 72 72 70 66 64 64 66 69 68 70 72 65
26 24 22 21 23 26 32 42 52 61 71 78 80 79 77 75 74 74 75 78 79 80 81 83 87 95 99 94 100 100 99 95 92 86 84 82 77 76 80 77 78 76 75
26 25 25 24 23 25 29 38 53 69 75 67 59 55 57 62 66 66 66 66 64 63 64 67 67 68 95 98 100 100 99 96 98 94 90 81 81 85 80 80 82 84 83
33 32 30 29 30 34 36 35 37 40 41 47 49 52 51 50 51 52 52 50 48 46 43 42 42 45 53 64 74 87 98 99 99 97 96 99 96 83 79 82 83 81 85
38 34 34 33 35 38 38 40 41 42 48 50 46 43 38 37 37 36 37 38 39 39 39 37 35 33 33 35 39 46 52 57 71 96 96 88 85 77 76 85 85 81 88
41 40 40 39 39 40 39 37 35 33 33 30 28 28 29 31 32 33 35 39 42 42 41 39 37 36 37 38 40 44 55 73 79 82 97 99 100 92 88 85 77 77 81

GFSSE_850_rhum_015.txt.gz
RH
30 37 50 83 88 79 83 77 79 78 80 73 60 37 40 45 59 90 93 94 95 90 70 68 71 82 84 84 88 94 90 83 70 39 28 27 29 88 89 89 69 70 55
25 35 45 84 86 79 91 94 85 87 74 73 56 90 79 88 72 67 78 91 98 99 66 71 71 88 88 86 96 96 90 62 66 42 31 30 37 86 78 77 85 79 80
22 30 41 65 85 79 87 85 87 84 83 73 57 84 95 94 89 86 93 94 92 97 89 69 78 92 93 90 88 89 98 90 48 41 36 41 44 57 56 77 90 90 94
19 26 36 59 75 72 78 85 89 88 81 67 49 91 93 89 91 88 83 77 89 99 68 28 78 89 96 96 89 91 97 93 52 41 44 53 61 58 77 65 98 95 87
20 25 33 48 62 76 86 86 78 80 70 54 45 91 90 88 90 90 86 53 50 59 50 47 49 98 96 83 98 98 99 93 74 43 44 58 64 60 97 41 58 86 74
24 28 34 40 67 81 84 84 78 76 62 39 55 86 90 89 89 86 49 50 51 49 45 40 40 44 54 71 73 96 99 99 75 43 43 50 61 67 60 95 68 41 29
25 29 37 45 75 84 72 73 72 71 56 45 77 86 81 89 94 85 60 57 58 52 49 46 44 37 40 52 56 72 75 90 94 45 41 41 46 66 66 92 46 26 26
28 30 38 47 75 61 67 70 69 68 62 52 51 98 93 90 86 90 72 70 57 55 65 75 80 62 53 43 42 94 93 59 91 36 38 46 48 59 56 95 83 34 27
31 30 35 43 57 79 80 79 76 71 71 64 48 53 85 86 62 75 70 68 71 72 99 98 99 99 99 89 59 47 38 36 42 35 32 43 49 55 66 72 96 95 74
33 33 35 40 49 56 65 70 73 70 70 70 60 47 53 56 47 57 59 65 75 55 70 98 100 99 98 97 93 62 57 42 32 27 30 31 42 51 59 66 88 92 91
33 36 35 37 42 45 53 56 58 60 59 57 50 39 46 43 46 44 41 41 43 44 48 64 89 90 95 96 59 54 51 43 36 24 22 24 30 39 47 49 93 94 97
33 35 36 39 39 39 42 45 43 46 46 42 34 32 32 36 34 33 32 35 37 41 44 48 52 55 57 55 50 50 44 38 33 27 17 18 23 26 29 38 49 92 95
30 32 33 39 41 39 39 43 42 46 39 34 32 30 26 27 28 29 32 36 42 46 47 51 54 57 58 58 56 55 53 51 44 35 27 17 17 23 26 26 33 46 79
34 34 32 34 38 40 44 40 42 44 45 36 33 34 34 32 32 36 39 42 45 49 52 54 55 57 58 59 59 59 60 60 57 55 52 44 33 17 19 25 25 25 29
32 37 37 38 37 42 45 42 43 45 44 46 42 38 35 37 40 42 44 47 50 51 55 58 63 65 66 66 67 68 68 69 67 66 62 59 61 54 42 24 21 24 24
30 32 35 34 37 41 42 42 46 49 49 47 46 51 53 52 50 50 51 54 58 66 72 77 82 84 85 86 86 87 86 88 86 82 74 67 65 68 67 63 53 34 28
28 28 27 26 30 33 38 41 45 48 52 52 54 60 64 67 68 66 66 69 75 83 87 90 92 94 94 95 95 95 95 95 92 91 88 83 76 69 71 73 74 72 64
23 22 20 19 21 30 37 42 46 52 54 58 63 68 72 74 77 80 81 80 82 86 90 91 92 91 89 90 90 89 94 97 89 85 83 78 74 71 68 67 71 75 78
20 20 21 22 21 25 38 45 50 51 53 59 67 74 77 78 79 78 78 78 83 85 86 89 89 91 87 83 85 84 86 80 80 81 77 72 69 66 63 64 63 66 72
23 23 22 22 25 35 40 46 52 55 58 63 67 68 70 72 73 75 81 86 89 86 83 83 82 81 85 87 95 90 85 80 76 70 67 68 68 69 68 69 70 71 70
27 26 24 22 25 32 34 43 51 56 63 67 72 75 77 78 76 75 73 72 73 73 74 75 75 75 74 77 98 96 96 94 87 84 81 84 77 77 75 78 79 79 75
25 23 20 20 22 24 28 42 55 69 73 74 71 67 61 57 57 57 55 53 50 48 46 45 44 43 42 45 88 94 94 87 85 92 87 82 90 77 88 92 85 82 81
28 25 24 24 25 27 30 37 50 56 56 48 46 47 49 51 51 50 49 46 42 40 39 39 38 38 39 36 36 73 90 82 89 71 82 78 79 90 89 77 83 85 88
33 32 30 30 30 33 36 36 38 40 42 52 53 52 42 35 34 34 34 35 36 36 37 37 38 38 38 39 37 39 41 50 81 75 57 70 74 82 85 78 75 66 63
39 36 35 34 35 38 37 37 36 35 36 36 33 33 33 35 37 38 38 38 37 35 33 30 28 26 27 31 38 48 47 53 73 90 91 76 84 81 83 79 59 79 94
43 42 41 40 40 38 34 31 30 29 31 32 32 34 38 40 41 41 38 34 29 22 15 9 4 3 4 9 19 36 77 99 100 99 92 87 88 81 80 81 83 73 71

GFSSE_850_rhum_018.txt.gz
RH
27 30 40 75 85 80 81 84 70 75 77 72 63 52 41 57 73 85 88 86 93 93 74 70 68 84 93 87 86 88 95 88 64 70 37 30 39 91 87 69 60 82 48
24 30 41 78 90 80 83 79 79 81 77 75 66 50 93 63 61 62 60 93 96 96 73 72 73 78 84 86 86 91 97 86 53 59 38 31 33 72 82 58 74 90 75
22 29 43 81 85 81 79 82 84 85 84 78 69 65 94 94 90 88 95 94 91 94 62 68 74 89 92 91 83 86 93 95 80 47 39 62 81 57 67 58 85 84 85
20 26 53 55 83 79 81 83 82 84 83 78 58 66 90 91 91 86 79 74 81 70 51 44 68 81 87 92 84 91 92 97 80 60 61 75 79 67 44 52 86 85 87
22 26 42 49 78 75 75 82 82 76 75 62 49 76 89 92 88 92 89 72 53 50 49 37 50 80 71 93 91 93 92 99 78 71 80 82 92 85 49 96 67 86 88
26 30 28 39 59 74 81 87 85 74 70 49 42 84 85 91 88 93 72 59 58 55 52 39 34 49 98 80 75 95 96 97 99 93 80 81 61 93 58 66 90 61 86
31 35 33 40 66 77 81 78 73 68 59 44 62 84 87 85 90 93 85 79 72 60 59 49 49 46 37 41 43 54 89 84 79 95 89 76 82 85 66 83 96 70 36
36 36 45 44 70 82 68 66 70 64 56 51 52 96 93 88 92 91 91 89 79 75 77 98 97 93 83 77 59 56 96 99 98 89 92 88 51 45 54 91 92 94 70
36 40 44 55 66 69 69 91 74 64 61 63 49 60 92 88 80 73 81 80 83 95 92 90 95 94 95 96 98 95 87 64 72 90 88 90 69 43 50 70 76 93 96
34 39 54 68 87 98 98 87 95 77 67 65 60 49 51 58 69 49 53 56 47 48 43 48 69 91 88 89 87 85 52 44 51 86 85 82 30 30 41 47 59 82 90
29 35 39 51 73 93 96 94 68 60 56 55 55 41 34 74 91 56 48 43 39 37 38 41 47 54 56 61 58 52 50 52 79 73 65 41 17 21 25 32 39 71 90
29 31 36 41 48 78 91 91 91 94 93 94 92 89 83 83 86 44 41 40 41 41 43 45 48 51 55 80 90 78 74 89 86 75 58 35 25 15 16 21 24 30 51
42 31 29 35 42 58 78 85 94 92 89 86 69 64 62 44 54 48 41 40 42 45 48 53 56 60 77 82 91 91 93 94 90 84 69 56 54 41 23 15 18 22 23
33 37 36 34 35 45 65 60 83 71 56 65 51 43 47 48 48 50 49 50 49 55 63 61 72 83 84 87 91 91 93 93 92 89 79 58 58 62 59 48 27 18 22
36 37 37 36 35 40 48 58 58 64 55 61 54 54 55 53 53 56 62 67 63 76 80 85 85 94 94 96 95 94 90 89 88 91 86 73 62 61 63 64 63 57 41
33 32 32 34 35 38 42 46 57 60 66 60 60 62 64 66 68 73 74 77 76 80 83 85 86 85 84 89 88 87 92 97 96 96 95 90 78 69 68 68 65 64 65
31 28 28 26 26 34 42 54 59 59 61 65 66 69 71 72 73 76 76 75 81 89 79 83 88 95 98 98 98 97 94 93 94 94 97 97 95 80 68 68 72 74 74
24 22 20 19 19 25 45 54 62 59 63 70 70 73 74 74 73 73 75 81 87 80 87 92 98 98 99 100 100 99 100 98 97 96 97 94 94 92 80 70 67 67 71
24 23 23 25 26 27 44 52 56 59 66 69 70 73 72 73 74 76 80 83 87 93 93 92 86 90 87 96 94 88 94 87 94 94 94 95 94 83 77 73 74 72 70
31 28 26 28 37 40 47 57 59 62 68 71 73 76 77 78 79 79 78 73 68 67 73 67 72 80 86 87 90 88 85 83 84 85 86 86 89 98 97 97 96 88 73
30 28 30 32 36 43 57 67 66 72 75 76 76 74 70 65 57 52 47 45 44 45 44 43 52 52 58 64 60 60 65 69 74 63 77 88 72 75 78 86 85 94 96
25 24 24 25 28 35 46 58 65 68 68 64 55 48 46 46 44 39 35 32 31 33 34 35 37 39 56 60 61 64 52 52 47 62 52 51 58 54 66 77 80 82 88
28 28 27 26 27 32 39 46 49 47 46 46 47 44 38 33 33 34 37 38 38 37 35 33 37 46 63 56 59 62 58 58 65 56 52 52 51 60 58 57 67 72 69
34 33 31 32 33 35 37 38 39 41 38 37 34 35 36 38 40 41 41 38 34 28 22 17 15 15 48 54 53 52 63 65 64 63 50 58 56 64 62 61 61 63 64
38 36 35 34 34 34 33 31 30 30 32 34 35 38 41 44 45 42 36 30 23 15 8 4 4 6 41 49 52 58 65 65 63 66 72 49 48 47 49 52 58 60 62
41 39 39 38 37 35 35 33 32 32 34 38 41 46 48 44 38 35 30 22 11 6 4 5 5 6 8 8 27 58 69 68 62 58 49 48 50 45 48 53 60 65 76

GFSSE_850_rhum_021.txt.gz
RH
56 44 34 78 81 79 78 81 70 70 72 69 62 58 45 59 74 84 94 88 73 94 78 72 67 81 99 96 84 88 90 89 80 56 60 31 29 65 95 56 68 90 79
45 48 33 71 82 82 80 78 80 78 77 74 67 56 78 65 76 79 76 76 94 92 78 71 69 80 94 89 86 95 96 97 92 60 54 32 43 47 78 64 61 89 78
56 64 36 70 86 86 76 81 81 78 80 79 70 66 89 93 89 81 88 95 92 99 76 71 71 82 87 85 93 85 93 96 94 62 41 34 77 75 60 64 73 81 76
56 66 72 77 83 82 80 85 81 78 77 74 63 56 88 89 88 86 89 79 82 85 63 58 72 82 85 88 82 91 93 94 95 58 48 72 71 71 70 43 53 82 88
57 64 84 56 82 81 82 82 80 77 76 69 46 69 85 90 87 93 93 74 67 64 58 48 47 74 73 69 74 88 91 97 98 57 90 78 83 84 82 60 69 73 85
58 64 38 39 79 82 73 78 84 80 69 55 36 81 83 86 83 89 89 86 74 64 56 49 33 35 37 34 53 70 80 91 96 94 91 81 71 62 94 64 76 78 81
58 66 30 35 63 71 84 83 80 78 59 42 45 85 85 85 95 88 92 83 78 67 54 52 45 55 54 45 38 34 48 70 75 76 70 87 79 84 93 63 90 98 70
62 69 59 35 58 76 79 77 78 74 57 43 42 72 87 86 86 93 92 86 78 63 66 45 87 90 91 81 73 56 51 45 35 59 80 75 88 48 32 35 75 85 96
65 69 74 42 50 71 74 85 84 73 57 54 38 42 88 82 88 87 65 63 49 49 59 40 50 81 76 81 76 50 45 38 38 37 58 80 80 59 26 31 39 94 91
65 68 70 76 77 91 76 76 92 87 68 61 51 46 37 34 46 52 43 39 36 34 34 35 42 46 56 55 57 54 46 45 40 62 74 70 70 34 19 23 29 39 97
61 67 69 72 77 85 85 90 74 64 74 58 42 46 32 38 89 89 84 39 35 37 40 44 46 48 50 49 56 71 70 58 69 82 71 67 57 35 18 16 20 24 31
56 63 69 71 74 82 83 86 91 94 92 84 91 86 85 76 77 74 45 33 34 38 42 48 51 53 54 62 88 83 85 86 86 82 80 71 53 50 42 28 15 16 22
46 54 62 68 73 76 83 85 83 86 84 83 82 82 79 74 73 77 81 71 50 60 52 63 70 78 86 88 86 84 83 82 83 84 81 78 58 52 55 55 50 34 16
40 46 54 62 69 74 77 85 79 82 84 82 82 82 83 81 81 79 78 81 84 84 87 89 91 88 90 90 88 87 86 85 86 86 86 86 84 75 66 68 62 60 56
41 47 53 58 64 69 76 78 81 80 85 83 89 88 86 86 83 79 82 84 86 89 89 90 91 91 91 89 89 88 88 90 91 92 92 90 92 92 90 83 83 81 71
45 51 55 58 60 63 70 79 80 84 84 88 88 93 95 95 94 94 93 94 94 93 93 93 93 95 95 93 90 89 88 87 86 85 86 88 87 88 89 86 78 78 82
42 42 39 38 48 62 66 74 82 86 90 89 92 94 97 94 96 92 95 98 97 95 96 97 98 98 97 96 94 93 91 86 84 84 86 88 89 90 90 91 90 79 76
32 34 28 22 23 44 70 77 83 87 91 93 95 96 97 98 99 98 100 98 99 98 98 98 96 93 89 88 86 84 80 85 84 82 78 84 85 87 86 90 92 92 86
43 50 27 31 42 55 79 85 88 91 90 94 94 96 100 100 95 97 99 97 91 90 85 82 73 73 72 66 67 67 68 71 69 64 72 78 79 80 86 85 85 87 83
54 54 47 46 55 74 86 86 88 94 97 94 88 86 84 77 73 70 60 47 41 51 51 42 48 47 46 54 54 55 50 52 47 63 72 64 74 79 71 66 72 77 84
56 67 72 74 78 79 82 85 82 80 75 73 71 66 53 45 42 36 31 33 34 38 49 42 44 44 44 54 57 56 51 46 49 45 58 71 71 58 53 54 53 62 72
50 49 56 71 82 86 78 77 74 72 67 52 45 45 39 31 31 35 38 39 39 38 38 36 38 41 45 46 52 51 48 46 46 42 32 36 41 46 54 56 61 60 55
43 33 32 35 37 41 46 48 48 48 58 54 43 33 33 35 38 41 40 35 32 30 30 25 25 23 38 32 46 50 48 46 56 48 45 44 48 43 48 59 58 46 52
40 36 33 33 35 45 54 54 59 50 36 32 33 36 40 43 43 36 35 34 30 26 18 10 14 12 36 46 36 40 40 52 60 58 43 42 41 36 24 35 36 36 44
43 39 36 35 36 37 35 32 31 31 32 35 41 45 44 40 39 39 36 32 26 17 9 7 8 9 16 41 30 38 47 54 56 50 47 40 41 36 36 41 46 46 42
44 41 38 35 34 34 34 34 34 35 39 43 45 43 43 43 42 39 35 26 16 10 7 7 8 8 9 16 23 27 47 61 59 48 47 48 50 53 54 51 56 55 59

GFSSE_850_rhum_024.txt.gz
RH
52 38 37 69 86 81 81 80 76 69 72 67 60 56 47 47 68 81 84 82 76 98 95 85 82 83 99 98 84 84 88 92 80 67 45 44 26 35 71 67 54 94 93
44 32 34 80 81 80 81 84 82 83 76 74 66 54 59 60 66 68 72 67 95 98 86 88 82 85 98 98 83 85 94 98 88 74 45 36 33 66 44 61 56 89 92
48 33 33 77 83 84 81 84 87 76 70 78 71 55 89 91 83 82 77 91 92 98 76 67 77 87 98 94 85 83 86 93 98 78 44 42 72 74 71 49 47 71 75
52 43 32 75 87 83 80 84 87 70 75 74 60 55 94 89 90 88 84 74 63 59 55 51 70 79 86 86 82 76 96 96 99 63 44 56 74 78 75 74 46 70 86
47 60 62 69 81 82 78 83 85 76 78 65 45 68 87 88 89 96 92 75 63 57 46 40 41 64 74 77 72 67 88 89 97 50 68 87 62 72 92 86 65 48 76
56 61 58 54 75 82 75 84 79 78 73 52 33 76 85 85 88 90 92 85 72 64 46 37 30 27 37 42 32 38 63 55 44 29 38 82 90 54 81 88 76 52 53
59 60 38 31 64 76 74 79 75 77 65 45 39 82 86 83 92 89 94 85 79 66 44 27 27 34 35 30 33 32 27 22 21 19 20 36 68 84 64 89 46 48 53
59 53 29 27 47 65 75 72 72 71 56 46 41 72 84 86 82 95 87 74 53 37 29 28 30 37 43 40 37 40 30 28 30 26 23 28 55 66 56 28 25 30 84
61 57 36 30 39 59 74 66 66 56 47 43 36 38 65 77 80 83 68 36 29 25 25 29 34 37 45 49 54 49 46 42 37 33 27 27 28 67 66 26 22 25 33
63 63 58 45 42 46 47 39 45 29 46 41 34 31 32 33 43 45 39 31 30 30 33 36 39 41 43 43 44 48 60 56 50 43 37 38 41 36 35 19 14 16 22
61 66 69 71 68 65 72 78 79 61 27 24 27 26 38 31 63 82 71 43 32 34 37 40 42 44 45 46 53 70 78 65 62 60 61 66 67 58 52 43 32 17 14
54 62 67 70 74 83 84 84 78 60 73 60 68 70 76 72 78 82 73 45 38 39 42 45 48 51 56 58 59 69 76 74 79 80 80 79 74 71 66 59 56 55 45
39 53 60 67 72 76 82 82 86 86 86 83 84 82 81 78 62 70 71 67 60 50 50 51 51 57 67 68 74 78 82 83 84 83 84 85 85 85 85 85 81 75 66
36 45 54 61 68 73 78 83 83 82 84 84 82 82 83 81 78 73 77 79 80 80 71 78 83 85 90 91 92 90 90 89 89 89 88 88 89 87 88 93 94 91 89
35 41 47 54 61 67 74 79 79 81 82 84 84 87 86 84 80 81 81 83 83 86 90 91 93 94 94 93 90 91 90 87 85 86 86 87 89 90 91 89 89 91 93
40 45 50 54 58 64 69 76 80 82 82 85 86 90 94 89 89 87 82 94 95 97 94 94 94 91 91 90 90 84 81 77 78 84 83 79 79 81 82 84 90 88 88
43 48 52 55 58 60 64 72 81 84 86 87 92 92 96 94 97 96 96 96 94 95 91 90 90 90 85 84 84 74 84 77 56 54 57 58 67 77 88 88 82 81 80
38 37 39 33 34 55 64 72 81 85 89 91 92 94 95 97 98 95 97 96 94 90 87 83 82 75 61 61 57 62 62 64 59 55 48 54 70 74 75 79 81 86 84
47 49 32 27 29 44 70 78 82 87 91 94 92 94 97 99 96 98 96 76 64 67 60 47 36 40 39 38 40 45 43 44 32 37 51 61 74 78 74 72 69 56 57
56 53 41 44 52 70 80 85 88 88 93 96 98 94 85 72 69 59 43 33 34 37 39 39 38 36 35 35 32 30 26 24 41 52 49 58 55 53 62 61 65 44 51
71 72 60 57 66 74 84 91 93 92 83 74 70 61 47 40 30 31 36 38 38 36 33 32 30 28 26 21 20 24 19 34 29 32 49 29 22 18 21 31 48 53 58
74 79 78 80 82 86 88 84 75 69 67 54 46 38 30 31 35 38 39 35 33 32 31 29 22 19 14 14 38 27 34 33 41 16 20 15 36 43 44 25 29 30 26
63 64 74 76 74 76 71 65 61 50 49 40 32 32 35 39 40 38 38 38 37 34 30 20 15 11 11 10 14 32 48 47 39 35 29 33 43 19 28 27 18 17 21
53 49 48 50 53 54 52 51 49 44 36 36 36 40 41 40 41 41 40 38 35 31 24 16 11 9 9 10 10 10 14 29 56 57 47 30 29 23 23 33 34 46 50
53 49 49 48 50 55 56 48 35 32 34 38 42 43 43 45 45 44 42 38 34 29 19 12 10 9 9 11 14 17 15 18 20 51 61 48 48 42 43 44 54 45 56
53 48 43 39 37 35 34 35 35 37 40 44 44 47 47 46 47 44 42 37 30 21 14 10 9 8 9 11 15 19 27 47 38 45 58 53 51 50 54 58 58 61 37

GFSSE_850_rhum_027.txt.gz
RH
57 48 41 69 82 84 79 81 77 70 67 62 55 49 45 51 73 84 84 70 88 96 80 90 73 84 99 98 84 84 88 91 82 60 38 47 30 26 41 40 40 69 97
55 48 40 79 77 77 81 82 82 82 75 64 60 46 44 54 58 62 66 65 93 97 61 88 78 84 92 87 86 88 89 98 92 69 43 39 36 61 66 54 49 67 92
38 31 38 80 78 79 84 82 84 78 64 68 59 50 90 86 84 82 81 76 90 84 53 56 73 73 97 95 87 75 80 92 97 65 37 55 67 66 76 73 56 52 66
38 31 37 74 83 81 78 81 83 73 65 61 51 52 94 94 92 88 78 56 52 49 42 34 54 61 65 82 74 66 66 76 60 41 30 41 51 62 75 81 77 49 67
40 43 36 72 80 83 79 82 82 74 64 47 36 70 89 88 89 94 90 79 56 48 36 28 27 40 47 55 58 54 40 53 28 27 34 35 44 72 83 89 74 61 52
42 44 43 52 71 76 80 82 83 67 65 34 27 78 87 90 87 89 90 70 50 37 23 21 21 19 20 26 27 21 21 30 25 27 27 37 53 52 56 74 58 62 44
48 51 46 36 60 74 72 77 79 66 56 34 33 56 70 83 86 85 91 66 57 34 24 20 22 25 28 31 28 26 27 26 25 24 24 25 45 67 83 88 93 72 45
52 51 37 25 45 62 65 75 72 67 51 37 30 45 57 74 80 88 88 73 41 31 29 30 30 33 35 35 36 35 36 35 33 32 31 26 28 32 70 96 72 35 39
54 44 39 27 36 51 65 68 62 62 46 39 31 26 34 50 64 74 73 39 31 32 33 34 37 39 41 43 42 42 44 48 50 51 43 39 41 40 42 95 58 26 23
56 50 49 36 36 44 50 44 44 48 41 37 33 27 26 28 35 41 39 38 38 36 38 40 42 44 45 46 48 52 65 62 62 61 62 62 60 58 58 85 71 48 28
56 53 54 56 51 49 50 58 78 67 43 31 30 33 51 36 59 69 54 48 41 38 38 42 44 49 52 56 58 65 70 69 71 74 76 79 78 77 75 74 72 70 66
44 47 53 61 60 59 75 76 82 71 66 60 68 64 65 70 67 75 69 58 55 53 49 51 56 58 61 65 70 78 83 85 85 84 83 83 83 85 89 88 86 85 85
30 44 48 55 66 63 65 82 80 78 74 76 78 82 80 79 77 69 67 70 70 68 64 64 64 70 78 84 89 91 90 90 89 89 90 91 90 90 92 89 90 90 88
31 39 46 52 63 73 78 80 76 82 84 84 84 83 84 84 80 79 79 79 76 77 80 86 86 90 93 95 94 87 82 84 84 85 79 82 80 82 88 89 89 88 88
29 41 47 52 57 69 75 79 82 83 84 85 84 86 85 83 82 80 83 82 85 90 94 92 90 90 89 89 91 94 91 87 82 78 78 78 82 84 81 82 90 84 92
30 43 47 49 53 66 70 77 80 82 81 83 85 89 91 90 86 87 86 86 92 90 91 88 90 89 88 90 84 73 56 45 50 49 46 52 63 58 60 76 75 95 95
40 46 48 51 54 63 69 72 79 78 82 84 87 87 91 94 91 94 97 96 94 90 89 84 84 84 72 45 44 39 37 40 40 41 43 47 47 57 71 74 81 80 94
41 48 51 53 56 58 65 73 78 79 86 87 90 88 88 93 96 98 96 92 91 89 85 75 53 34 35 37 36 34 34 33 31 38 32 38 52 63 74 79 73 66 67
33 37 41 41 46 60 64 78 75 79 80 84 88 92 93 97 98 96 94 86 66 44 34 35 37 35 31 28 25 24 23 22 22 29 44 53 53 58 59 57 49 49 49
46 46 43 36 34 56 66 79 75 83 85 93 93 93 94 89 88 66 37 33 37 36 34 32 30 29 26 23 22 22 20 21 28 37 36 36 37 20 19 21 29 29 30
60 54 54 57 58 64 75 80 82 86 91 91 94 82 55 38 31 36 37 36 35 35 34 33 30 28 25 20 19 19 18 18 21 29 25 20 15 15 23 20 18 14 15
76 73 72 73 79 78 80 84 85 87 88 76 54 37 32 35 38 38 38 38 36 36 34 30 25 20 17 12 17 18 24 21 32 14 21 14 16 26 21 13 7 6 8
81 84 84 84 84 81 79 82 78 70 56 40 32 34 38 40 40 41 42 42 40 38 33 26 19 14 12 12 10 23 34 41 22 25 15 27 39 22 19 11 9 10 19
83 86 86 85 87 85 75 62 49 40 36 34 36 40 41 43 44 45 45 45 43 36 28 20 15 12 10 10 10 13 22 28 46 53 38 17 25 25 16 18 22 29 54
63 74 78 72 68 59 48 42 40 34 34 38 42 42 44 46 48 48 48 44 37 31 23 16 12 10 10 11 14 15 16 19 23 52 51 42 39 34 25 37 30 51 46
60 57 55 51 54 55 55 49 34 34 38 42 43 47 48 50 50 48 44 37 32 22 14 11 10 11 12 14 17 21 26 28 36 35 40 48 57 51 57 56 56 60 55

GFSSE_850_rhum_030.txt.gz
RH
64 58 59 77 86 87 81 73 67 63 61 59 53 48 48 54 80 97 80 69 91 84 93 84 58 87 97 92 82 86 86 82 62 61 46 40 43 26 27 37 43 52 70
56 52 46 71 81 79 83 81 75 69 67 49 45 40 41 52 63 64 61 77 86 53 53 82 71 92 89 88 88 85 75 79 52 44 38 40 32 58 54 60 49 52 79
45 39 43 73 78 79 83 80 73 70 52 51 44 41 64 70 78 78 83 70 81 49 42 58 74 67 87 92 86 76 62 49 42 44 36 39 49 59 65 67 56 50 56
35 29 43 75 79 79 81 83 77 67 49 49 44 50 97 96 90 84 63 50 47 42 34 30 47 59 69 69 78 74 66 52 47 37 36 34 46 54 71 76 78 67 47
37 30 42 73 83 82 83 83 74 72 50 40 34 60 93 89 88 81 77 63 48 41 31 27 28 39 45 55 60 62 59 42 42 38 33 37 47 54 88 91 93 81 57
40 35 39 72 81 88 82 82 75 78 55 31 29 75 88 90 89 89 74 61 57 44 33 26 27 25 27 32 32 25 25 26 30 28 26 28 33 52 65 91 83 83 67
43 50 47 61 73 81 80 79 79 71 53 32 31 62 83 90 89 90 87 66 46 29 27 26 27 30 34 40 43 39 38 38 38 36 36 34 34 45 54 94 95 97 97
47 52 56 48 62 77 75 68 76 67 52 38 34 53 64 77 88 90 86 72 36 29 28 31 34 37 38 46 43 46 48 50 55 60 58 48 41 37 47 80 95 96 83
54 54 51 37 49 70 68 65 73 57 52 42 35 36 45 60 69 71 70 46 33 32 35 38 40 42 43 45 47 51 54 64 66 67 67 66 64 63 61 59 92 94 91
54 55 50 34 36 46 53 62 58 48 50 47 37 29 29 33 41 47 49 45 42 38 38 41 44 46 49 54 57 59 66 65 67 68 71 75 76 77 78 75 76 91 83
50 47 46 48 37 43 49 51 58 68 62 42 35 37 45 38 47 64 59 57 47 46 46 48 52 56 59 63 68 74 81 84 85 83 83 83 85 85 84 85 90 87 87
41 42 43 47 50 54 59 62 77 76 62 55 59 62 67 64 62 59 62 60 62 64 62 60 62 65 68 76 82 88 88 88 87 84 80 81 81 82 84 89 90 89 88
27 40 44 48 52 58 59 70 77 75 74 74 76 77 78 73 74 67 63 64 70 72 74 77 82 86 89 90 90 86 87 84 81 77 79 81 76 78 88 89 86 86 88
23 33 41 48 52 56 65 73 80 80 82 79 80 84 84 81 81 80 79 80 82 86 90 93 91 92 92 91 89 86 90 88 94 89 85 84 86 83 86 79 79 78 80
24 29 39 49 52 55 64 72 80 81 85 86 86 86 86 86 85 83 83 86 89 92 93 91 88 87 86 83 83 88 89 83 73 59 55 56 57 71 82 81 75 79 83
22 24 40 50 56 60 68 75 82 83 80 80 82 85 87 90 91 91 92 94 88 91 90 85 84 83 82 77 79 66 44 37 36 40 43 42 41 39 41 47 68 73 74
26 23 39 53 60 67 73 76 84 78 79 86 86 89 89 90 93 96 96 94 90 89 89 86 83 82 78 44 35 35 34 33 34 35 36 37 39 37 48 64 71 75 73
27 28 42 56 61 63 71 76 83 76 80 81 85 82 85 87 94 94 95 91 88 86 84 79 43 35 35 33 29 26 24 23 22 22 23 30 48 58 60 57 59 63 58
32 44 50 54 59 60 66 77 81 76 79 81 79 88 85 92 95 96 93 91 75 46 35 36 34 32 31 30 28 26 24 21 22 36 48 54 43 37 29 23 26 32 36
30 35 44 50 56 60 62 73 82 77 79 86 86 85 90 93 91 86 49 36 37 36 35 34 32 30 27 25 24 23 22 19 26 18 22 26 23 22 16 18 31 24 19
37 40 42 41 40 45 62 72 82 77 79 82 86 92 91 72 39 36 37 37 36 36 36 35 32 28 24 22 21 21 18 18 18 28 22 17 11 9 15 28 16 7 5
44 48 49 47 42 58 66 81 81 81 87 86 92 74 37 35 38 39 39 40 42 43 40 34 29 24 19 14 13 19 19 19 29 20 20 13 13 12 12 13 7 6 6
55 58 68 70 80 82 80 83 85 88 91 83 52 33 37 39 41 42 44 46 46 42 34 29 23 18 14 12 13 24 24 34 23 22 14 18 13 9 7 7 6 6 8
64 70 75 81 86 86 85 84 82 80 70 41 33 37 40 43 44 47 48 47 40 33 29 22 15 13 12 13 14 19 24 30 32 36 25 12 16 12 12 12 13 15 15
73 77 83 84 85 85 78 66 65 52 36 33 38 41 44 46 48 50 48 39 30 27 20 15 13 13 14 15 18 20 20 20 22 46 50 33 13 11 11 16 18 18 27
87 85 86 89 88 82 62 47 39 32 33 38 41 44 47 50 50 49 41 30 26 20 16 14 14 14 16 20 20 20 20 23 32 36 34 38 51 38 35 20 19 28 39

GFSSE_850_rhum_033.txt.gz
RH
52 64 74 82 92 89 88 74 77 76 76 75 71 65 60 65 83 95 72 58 43 30 86 73 51 84 90 96 80 81 83 64 62 67 55 48 47 43 28 33 37 54 53
47 51 65 84 91 83 78 74 66 62 58 48 44 41 41 48 69 81 63 48 49 39 62 93 78 93 92 88 83 88 86 63 54 62 55 39 42 40 42 44 47 64 80
43 43 50 79 84 85 86 82 65 57 48 46 42 37 48 49 49 46 76 72 61 39 40 70 75 94 91 91 88 82 80 71 61 59 44 34 40 52 60 65 64 55 64
37 33 38 70 80 88 86 83 79 61 47 45 43 67 95 96 96 57 48 47 47 46 37 35 62 67 81 83 72 79 79 69 57 51 44 41 47 55 57 73 75 73 69
34 26 39 66 79 87 81 84 80 70 53 41 38 74 98 97 94 81 68 57 58 43 31 28 30 45 54 58 62 65 59 49 30 38 34 34 38 50 56 92 96 91 83
34 26 42 63 78 81 84 84 73 76 64 40 33 71 94 95 94 88 68 58 53 37 26 22 22 23 24 28 29 29 31 32 33 36 35 34 30 33 61 69 94 82 86
40 32 39 64 75 86 86 82 74 78 64 38 33 74 87 93 92 96 84 72 49 31 29 28 28 30 33 35 37 40 45 48 50 58 60 57 47 32 39 60 94 94 92
47 46 46 58 72 88 88 76 72 74 65 41 34 63 74 85 94 93 87 81 45 35 34 35 38 40 42 44 47 48 50 57 66 69 68 66 62 61 57 52 59 94 94
54 54 54 52 67 85 80 70 69 74 64 44 35 41 49 68 89 85 76 49 36 36 38 40 43 44 46 49 53 54 59 70 69 70 71 73 76 79 80 80 76 82 90
54 56 55 46 39 56 70 68 69 71 57 48 38 31 33 46 54 56 44 44 43 43 42 44 48 49 56 63 66 69 72 81 85 84 84 85 86 86 84 82 82 84 93
56 56 55 49 33 41 55 62 66 63 65 51 42 40 46 35 36 65 60 61 56 62 60 60 63 66 70 74 78 86 89 89 89 86 87 85 86 84 84 86 82 86 91
41 44 51 49 46 40 52 61 59 80 79 60 53 64 60 62 66 68 66 66 69 71 73 74 78 82 86 90 89 90 89 89 89 84 81 79 80 79 79 81 89 92 92
30 39 43 49 51 53 54 61 70 83 73 73 70 75 75 70 73 71 69 72 74 78 82 85 92 93 93 92 91 89 84 84 88 90 90 86 87 83 74 74 80 82 84
31 32 37 46 53 58 64 71 79 81 82 81 83 85 84 83 83 79 78 78 80 86 92 92 91 92 92 88 86 84 84 91 92 90 86 75 67 68 74 82 82 81 78
31 26 31 46 51 58 65 74 81 83 86 87 87 88 88 88 87 86 85 85 89 90 90 88 88 86 84 84 82 78 82 82 66 51 45 51 52 52 49 48 50 54 61
28 26 23 34 50 58 64 70 78 85 87 86 84 86 89 89 91 95 95 96 95 89 89 89 84 83 79 79 79 72 47 38 37 36 37 39 43 42 43 40 43 59 67
27 28 26 26 48 57 62 70 80 83 80 80 80 81 85 87 88 89 96 93 88 87 87 86 83 83 78 55 37 35 32 28 26 24 23 23 26 31 38 46 55 61 64
26 28 28 27 49 60 68 75 84 79 77 77 82 80 87 85 85 87 89 91 88 85 84 78 44 36 35 33 32 30 28 26 24 22 22 28 39 49 48 40 34 31 37
30 30 29 32 53 64 72 78 86 76 78 84 92 91 91 86 86 93 94 91 76 43 36 36 34 33 31 29 28 25 23 22 21 24 37 50 44 30 25 24 22 23 27
34 37 43 47 58 66 70 78 86 82 87 93 95 93 91 83 87 92 79 38 37 36 35 35 36 33 29 27 26 24 22 19 19 29 21 22 21 16 10 12 18 26 23
33 34 43 56 62 65 66 77 86 84 89 90 92 87 85 88 85 39 37 38 37 38 40 40 32 29 27 24 22 21 18 18 17 18 26 20 16 8 9 7 6 6 5
34 37 41 43 51 58 64 71 81 75 79 79 78 81 91 59 35 38 40 40 44 43 37 29 29 26 21 17 17 20 17 16 20 25 13 12 10 11 8 6 5 5 5
36 38 43 47 47 49 63 73 86 81 77 80 80 87 52 35 39 42 44 47 45 34 27 27 25 20 17 15 15 24 20 26 19 16 14 13 15 10 8 6 5 5 6
45 47 56 55 53 66 77 79 82 81 78 87 82 49 34 40 43 46 48 47 36 28 26 23 20 17 15 14 15 19 22 25 26 28 21 13 13 10 7 7 7 7 7
53 55 73 78 84 86 86 85 85 86 88 79 44 34 40 43 47 49 49 41 31 26 24 20 17 15 14 17 20 22 21 20 24 43 43 26 12 10 8 9 8 9 12
66 69 85 90 92 92 91 91 88 83 70 42 34 40 44 48 50 51 46 38 29 24 20 17 14 14 17 20 22 21 21 26 32 37 41 37 39 23 15 8 10 13 13

GFSSE_850_rhum_036.txt.gz
RH
45 60 85 90 88 84 83 82 82 80 78 78 78 77 76 73 73 78 76 71 53 28 61 58 34 59 78 82 86 87 83 72 53 62 64 48 48 51 43 35 38 43 50
44 44 71 87 88 92 91 67 63 59 55 52 56 58 57 75 86 80 63 44 24 30 77 82 81 89 89 88 91 90 88 74 53 55 49 45 42 43 40 39 42 43 74
44 40 59 83 92 83 81 76 63 50 43 42 41 42 47 60 72 54 54 80 50 41 46 87 86 96 91 97 90 87 78 72 58 52 48 37 42 48 57 59 64 56 58
39 34 45 80 84 86 86 80 68 59 47 45 44 47 93 85 55 49 48 49 48 44 38 51 73 90 92 93 82 61 68 62 47 41 48 40 39 47 52 62 73 83 77
36 30 38 65 76 84 88 81 79 69 59 44 45 88 98 96 86 60 56 52 51 36 30 28 37 52 58 60 56 52 50 36 27 31 32 30 28 32 42 53 89 91 88
35 29 37 57 74 86 96 82 78 71 64 43 38 83 99 90 90 89 63 58 42 31 26 24 23 25 26 27 28 28 30 31 36 42 45 46 40 31 30 44 52 84 80
38 32 41 58 73 81 92 83 79 73 64 45 31 69 95 92 89 86 78 71 43 32 31 33 34 36 38 35 38 43 46 49 60 66 63 57 52 49 39 38 44 90 92
45 34 42 57 67 79 89 81 76 71 65 47 30 63 83 90 89 95 88 77 46 39 40 41 42 44 46 49 54 56 55 64 73 73 75 75 77 76 74 73 73 63 87
52 52 47 47 60 73 88 86 75 74 68 46 32 49 66 83 91 86 86 65 45 46 45 46 47 51 54 59 66 67 71 77 77 82 84 85 86 85 85 82 80 77 79
56 57 57 54 51 58 74 81 74 75 69 51 42 38 51 67 78 84 60 49 57 56 51 53 60 61 68 71 76 80 84 89 89 88 88 90 91 89 85 84 83 82 81
56 58 59 58 52 47 60 72 75 75 69 60 51 40 44 42 44 57 65 71 68 70 69 69 71 73 78 78 84 88 90 88 86 86 84 85 83 84 82 81 90 92 90
42 47 52 56 55 46 50 60 68 69 77 72 56 53 53 49 56 72 72 70 71 74 78 80 84 87 90 90 90 90 88 86 88 89 87 84 79 80 83 75 74 77 94
35 41 40 50 54 54 45 51 61 68 83 71 65 68 72 71 72 70 71 73 76 78 84 87 92 94 95 91 89 88 87 85 87 91 90 88 86 78 70 71 79 76 78
36 40 42 43 53 57 56 57 63 77 80 77 78 79 82 81 83 81 80 79 80 86 94 90 90 91 89 85 84 81 80 81 83 84 72 55 47 48 51 50 49 53 60
31 30 33 39 46 56 62 66 75 83 84 85 87 88 89 88 89 88 87 84 86 92 90 88 88 85 83 81 78 80 81 75 60 42 41 38 38 41 45 45 44 44 44
30 29 30 30 36 53 62 68 75 85 87 87 86 89 88 88 85 85 89 94 95 91 88 88 86 80 80 78 78 65 42 36 34 31 28 26 26 27 30 33 36 39 43
27 29 29 28 26 46 59 68 77 88 85 87 86 86 82 80 82 86 89 90 89 88 85 83 82 81 56 38 36 34 32 31 29 27 25 24 25 29 35 39 42 43 46
29 28 28 26 28 35 60 68 79 90 82 87 83 79 83 88 88 85 86 88 90 89 85 67 39 36 34 33 30 28 26 25 24 22 22 27 37 45 47 38 29 26 28
30 29 26 27 30 35 63 72 81 88 79 86 84 84 89 92 92 88 85 91 88 48 36 36 34 33 32 29 25 23 22 22 21 21 29 30 24 26 25 17 12 12 16
30 29 25 30 34 45 67 75 82 87 80 87 87 91 96 97 88 88 84 71 36 37 36 38 36 28 24 24 23 22 20 19 18 21 30 25 22 19 16 11 9 8 6
32 31 29 31 39 52 69 75 84 88 94 91 94 99 97 89 84 88 40 37 38 40 41 31 23 23 24 23 21 19 16 17 14 17 19 23 22 11 11 10 8 6 5
34 32 31 32 49 61 73 76 81 93 94 94 97 96 85 88 86 37 38 40 44 44 33 25 23 24 23 21 18 15 13 12 20 24 11 10 12 13 10 8 7 6 5
35 32 32 34 49 64 73 76 86 96 95 96 94 82 78 69 38 38 41 45 47 39 30 24 24 23 21 17 13 15 16 18 18 16 12 12 11 9 8 8 7 7 6
36 37 38 41 48 54 69 78 77 83 81 79 81 78 76 43 38 42 46 48 45 38 28 24 23 20 16 13 14 17 20 22 22 23 17 12 12 11 9 9 8 8 8
39 40 45 48 57 58 70 81 85 88 79 68 70 71 49 38 43 47 49 48 43 36 27 24 21 16 13 15 18 19 17 16 18 37 35 17 11 11 11 10 10 11 10
45 51 55 56 59 61 75 88 80 86 79 76 72 49 38 43 47 50 50 48 42 32 25 21 16 13 14 17 19 18 17 20 22 31 38 34 37 26 15 14 12 12 12

GFSSE_850_rhum_039.txt.gz
RH
42 54 85 95 95 86 87 85 89 84 83 83 84 86 88 89 81 78 76 72 65 48 69 46 27 32 62 70 86 94 87 74 48 42 50 48 38 46 47 41 33 36 43
38 45 84 92 90 84 82 65 78 78 76 76 77 79 86 85 99 99 83 63 36 54 99 77 87 84 97 87 84 90 89 74 59 43 42 33 31 37 38 40 36 38 57
36 42 76 90 86 92 86 59 52 42 42 40 40 44 47 83 91 74 57 76 51 41 86 84 95 92 95 88 90 92 84 75 64 45 38 32 30 35 41 46 50 53 47
42 37 57 79 86 78 74 66 50 42 35 31 32 36 42 45 43 40 42 42 41 34 34 71 93 98 94 96 92 78 62 56 39 28 32 30 27 31 32 37 53 78 86
40 41 52 80 83 73 67 62 60 56 46 33 36 82 97 74 53 53 47 48 39 32 31 36 64 83 88 88 78 63 48 34 29 30 32 31 29 25 25 35 50 85 91
30 40 50 77 78 74 74 73 66 64 52 35 36 93 91 90 92 84 52 49 37 32 28 29 30 40 41 39 35 31 36 41 50 58 62 58 47 40 30 31 42 54 63
32 34 51 77 80 86 84 75 72 67 55 40 32 70 97 89 88 81 79 67 44 38 38 39 40 43 44 40 51 68 53 52 68 73 72 72 66 66 62 47 45 58 96
35 31 50 74 79 75 84 77 71 68 56 42 30 62 86 92 87 91 87 74 47 43 44 46 47 48 50 53 57 58 59 67 72 74 75 76 74 76 77 75 73 71 62
46 37 43 57 73 82 87 84 72 70 64 48 31 49 76 90 87 86 83 69 48 46 46 48 51 53 58 65 70 71 73 74 78 81 80 80 81 80 78 76 81 78 72
54 57 52 54 63 72 90 88 76 71 69 54 38 40 55 78 88 91 84 52 57 57 53 56 60 67 70 73 76 79 83 85 85 84 83 82 84 83 80 84 84 86 90
54 57 62 64 64 67 71 82 82 74 73 60 47 38 41 55 67 78 61 63 61 66 67 70 72 74 77 80 85 88 89 88 87 87 87 85 83 80 77 79 79 77 77
47 52 58 63 64 65 66 77 81 74 73 72 52 42 48 41 41 65 71 70 69 74 75 79 86 87 90 92 90 89 86 86 85 86 89 89 88 88 85 81 80 79 75
37 45 51 56 62 62 56 59 75 75 75 79 59 53 58 62 67 73 71 70 74 76 80 87 93 93 91 89 87 83 81 80 80 82 80 78 67 58 52 52 52 50 62
37 40 44 48 55 60 63 52 61 68 78 79 71 62 71 72 76 77 75 77 79 83 92 90 88 88 87 83 85 79 78 80 79 71 57 42 41 40 42 46 50 49 46
32 33 35 42 47 52 59 59 60 67 82 84 80 79 84 84 86 87 86 86 85 93 89 87 88 86 80 78 77 78 78 65 43 35 34 32 30 28 30 35 37 37 38
30 30 31 31 33 44 53 60 64 74 86 88 85 85 86 85 82 79 81 83 86 88 85 84 86 84 81 77 66 44 36 34 33 31 30 28 26 26 28 30 32 35 39
30 28 27 30 30 30 41 60 68 81 89 84 84 81 79 79 80 81 79 83 87 88 84 82 84 78 47 36 35 33 30 28 26 25 23 23 26 29 35 40 41 37 33
32 31 29 28 29 28 29 56 70 83 89 83 84 82 80 82 85 90 81 80 86 90 89 70 38 35 33 32 31 27 23 22 22 22 24 28 38 43 40 32 23 16 13
34 31 31 30 28 28 30 53 73 84 90 91 85 85 84 88 97 90 84 86 86 81 36 36 34 34 28 20 18 19 19 19 20 21 25 29 25 22 21 19 15 12 9
34 33 33 30 29 29 34 57 77 84 90 93 86 91 88 93 97 91 86 88 62 36 36 40 34 23 19 18 19 19 16 16 16 19 26 28 22 24 21 13 11 9 8
36 34 32 31 30 32 34 58 80 84 86 91 89 92 96 97 95 86 89 54 35 37 43 35 27 21 20 19 18 14 12 14 10 15 17 18 11 12 12 13 10 7 6
37 34 34 34 36 33 38 53 77 84 82 90 98 98 100 98 87 87 55 35 38 44 40 34 26 22 21 19 15 12 11 11 22 15 12 11 11 10 9 8 8 8 8
40 34 34 35 36 36 45 63 84 90 98 100 100 100 100 90 79 58 36 39 44 45 41 35 27 22 20 16 12 12 14 19 15 12 11 11 10 9 9 10 9 8 8
39 36 35 37 39 44 59 72 80 81 94 99 100 100 86 68 60 39 41 44 47 46 41 34 27 21 16 13 12 14 16 16 22 29 14 14 12 12 11 10 9 10 10
37 38 36 39 44 47 64 80 88 92 96 96 97 89 72 61 46 41 45 48 49 46 40 32 23 17 14 13 15 16 14 13 14 25 34 20 16 14 14 12 12 12 12
39 40 41 43 50 55 66 81 89 90 96 94 86 75 65 48 42 45 47 50 50 45 38 27 18 15 14 16 16 14 14 16 20 28 47 45 45 31 20 18 14 14 13

GFSSE_850_rhum_042.txt.gz
RH
42 89 84 88 90 90 89 86 91 89 87 85 84 81 80 80 80 79 79 76 67 64 74 55 34 39 64 69 86 87 88 78 56 39 38 40 37 36 45 42 33 65 36
40 77 84 92 93 87 74 78 83 82 82 84 84 84 82 88 85 97 82 73 41 52 94 86 87 47 92 99 89 88 88 76 62 48 36 28 28 32 36 33 30 72 37
43 83 86 92 90 81 76 58 60 54 48 47 53 70 76 88 91 89 70 61 40 42 89 94 98 100 100 97 83 91 91 74 62 43 35 73 49 35 39 41 45 50 43
67 86 96 87 85 88 72 51 44 38 37 37 40 47 55 73 64 48 49 48 47 40 56 92 91 93 93 89 88 92 74 57 44 28 74 76 69 36 35 40 58 74 84
49 85 94 88 93 84 70 57 51 44 34 29 30 55 50 45 51 45 49 46 37 33 33 74 94 93 97 93 92 80 58 42 33 46 60 45 41 53 27 29 58 87 90
86 85 42 80 89 80 72 61 54 48 37 28 55 83 74 63 77 55 56 40 32 31 29 31 46 65 69 62 50 40 38 43 58 96 94 88 49 47 34 27 37 44 56
85 89 44 82 86 79 74 70 64 56 46 31 52 78 87 87 83 79 80 54 37 36 36 33 33 34 36 37 48 72 88 55 78 96 96 84 72 64 61 58 54 56 53
48 72 76 84 81 90 79 76 69 60 50 32 43 69 88 87 86 84 85 68 41 43 44 45 47 46 49 52 53 56 56 62 86 95 85 78 72 69 68 66 67 68 67
57 52 82 90 84 83 86 84 74 67 59 39 37 69 89 86 87 88 82 69 44 43 45 47 50 53 56 63 63 67 70 72 81 95 81 94 83 80 78 77 82 86 84
49 54 82 96 98 92 90 92 84 73 67 48 32 50 79 86 87 80 81 58 51 51 49 54 56 62 66 68 69 72 79 81 97 94 96 84 80 83 85 84 81 77 83
59 58 74 93 97 100 99 91 94 83 77 60 43 38 52 92 88 88 73 51 56 61 62 66 68 70 74 79 83 85 87 97 97 96 98 82 84 84 82 78 80 79 79
64 62 68 87 97 99 98 92 88 91 84 87 59 42 89 85 81 69 58 63 60 70 73 75 77 82 88 100 99 89 90 88 86 79 84 75 77 78 72 74 64 57 58
71 78 60 81 63 89 95 97 87 90 99 98 84 73 88 55 42 68 76 73 72 74 90 83 90 96 89 87 85 83 81 80 77 79 73 67 52 46 43 42 44 45 43
63 68 51 62 52 61 66 79 98 96 93 97 78 60 70 76 68 90 89 74 76 84 93 94 91 85 83 81 81 80 77 76 75 66 46 34 35 34 35 42 43 41 43
56 60 57 49 49 48 58 64 79 95 92 96 78 62 89 90 94 90 84 90 86 87 91 85 84 84 83 82 78 77 70 50 36 34 32 31 30 28 30 32 30 30 29
48 49 50 34 42 42 48 55 61 95 98 98 92 73 81 81 81 79 79 78 81 84 85 83 84 82 80 75 55 36 34 32 31 29 27 26 25 26 28 28 29 32 35
36 37 32 34 35 33 37 53 64 97 100 98 92 81 80 76 76 77 79 77 78 83 85 82 81 81 47 34 32 31 29 25 24 23 23 25 26 28 31 36 38 33 25
36 33 32 32 32 34 36 53 76 97 98 99 84 79 75 76 76 80 83 78 80 82 86 83 50 35 34 30 20 18 18 19 20 21 23 26 32 38 32 26 22 18 15
38 36 32 32 32 32 38 85 96 98 98 98 88 80 76 79 81 86 91 84 84 84 75 36 35 36 27 20 17 18 17 17 19 21 25 27 27 27 25 21 20 16 11
38 34 34 33 32 32 38 89 96 100 100 99 88 84 84 84 86 91 92 86 86 65 36 38 38 33 25 18 17 16 14 14 15 20 26 30 21 16 14 14 13 10 8
36 29 35 33 32 32 36 89 96 98 91 86 89 91 94 95 90 96 91 86 67 36 39 42 38 32 24 19 15 16 12 12 11 17 21 21 18 12 12 10 8 8 9
46 39 36 34 33 32 42 63 94 88 84 80 88 90 100 97 95 92 88 69 37 39 43 42 39 32 24 18 14 20 26 26 32 21 18 13 14 11 11 9 10 9 9
48 46 39 35 33 34 46 79 74 72 88 96 100 100 100 100 97 85 70 40 39 42 45 44 39 30 22 16 13 14 24 24 26 22 18 17 15 14 13 11 10 10 10
46 43 42 36 34 39 40 46 53 66 86 100 100 100 100 100 91 69 45 39 42 45 46 44 38 28 19 14 15 13 14 14 26 24 27 30 30 28 34 23 14 12 11
40 39 41 40 38 40 40 47 75 93 100 100 100 99 100 94 66 51 43 43 46 48 48 43 36 23 16 14 14 15 14 17 28 40 33 28 32 36 40 43 43 32 40
45 36 39 41 40 43 44 59 87 96 93 99 98 99 98 71 58 45 44 46 48 49 47 40 29 18 15 15 15 14 13 24 32 38 37 37 39 37 39 44 46 45 44

GFSSE_850_rhum_045.txt.gz
RH
69 61 79 81 86 92 88 76 84 86 84 82 81 80 79 77 77 77 76 74 70 60 69 54 38 43 72 86 82 84 83 76 58 44 33 29 32 29 38 41 37 76 67
72 49 75 82 87 87 86 78 85 85 84 82 80 81 81 77 77 79 74 65 50 50 80 91 70 35 92 92 88 84 79 77 61 49 35 44 42 31 35 36 36 70 55
77 82 80 82 88 88 68 73 79 78 74 71 72 78 79 92 86 83 57 42 30 39 71 95 92 78 99 100 89 84 83 66 46 34 42 80 76 50 38 37 40 47 47
74 93 97 86 86 78 68 56 49 44 41 42 42 59 82 87 79 43 38 38 35 32 67 96 94 100 100 94 83 83 82 57 34 29 78 73 66 58 29 29 36 62 79
75 86 88 84 86 83 64 48 47 41 36 36 39 44 51 49 36 42 46 38 30 29 38 92 89 89 92 86 77 83 57 34 36 71 90 89 52 77 32 23 31 75 81
72 78 81 82 92 91 68 60 58 48 33 37 66 60 56 76 63 58 50 36 33 29 28 73 85 87 78 86 67 38 32 38 70 90 91 92 92 61 56 37 31 34 43
69 83 76 81 88 81 71 64 60 54 36 39 72 85 78 78 67 78 70 45 34 35 28 27 29 33 30 28 29 33 38 49 61 91 92 97 95 67 65 61 63 64 64
69 83 86 80 85 78 74 73 69 58 43 30 62 80 89 89 92 74 76 54 38 39 40 41 43 44 45 48 50 52 53 59 86 90 96 97 83 75 72 67 76 81 84
72 78 96 85 82 86 81 78 75 67 53 32 54 76 84 86 89 83 85 63 42 42 43 44 46 49 52 59 62 65 65 66 67 93 92 95 86 79 80 82 87 83 79
76 76 82 95 95 85 82 84 80 74 65 43 43 64 78 86 84 88 84 59 46 45 46 53 53 59 63 65 68 70 70 79 87 89 92 92 81 81 81 78 73 71 71
74 74 74 84 97 99 97 89 90 81 74 55 36 46 64 91 94 80 77 56 48 55 58 62 65 68 69 80 80 79 77 89 86 87 89 86 77 83 84 82 80 78 68
72 74 73 79 86 94 94 94 93 92 73 67 48 36 63 84 90 99 69 52 57 62 66 70 73 77 83 90 89 83 79 76 76 79 76 67 66 64 59 50 45 42 42
64 72 74 78 80 84 99 94 96 99 99 98 88 84 83 81 70 57 68 61 67 69 88 85 88 95 86 79 79 77 74 69 70 68 67 56 42 36 38 42 41 41 44
50 64 75 76 81 82 95 98 97 96 97 97 93 84 84 77 76 82 85 90 90 90 91 97 92 83 83 81 79 76 72 73 67 55 44 34 33 32 33 38 36 37 38
44 55 66 73 78 93 94 91 85 94 97 94 95 86 82 84 85 85 86 87 88 90 89 85 82 82 81 76 72 64 47 36 33 34 37 30 30 28 29 29 30 28 27
42 47 56 68 74 84 92 64 82 89 94 90 95 91 86 87 86 85 90 81 76 77 81 82 81 81 76 67 48 33 31 30 27 26 28 30 26 24 24 24 26 28 33
34 43 46 56 67 76 88 66 64 91 93 95 97 92 91 89 77 73 72 72 71 77 81 82 80 78 59 33 32 26 18 17 18 21 23 43 30 25 26 29 34 34 29
36 34 35 38 56 68 79 91 57 94 87 94 94 94 89 76 74 74 73 76 76 79 80 81 71 37 35 30 21 17 16 16 18 24 27 32 28 37 28 24 23 20 19
36 38 38 40 38 49 71 86 94 88 85 88 95 99 83 74 73 73 77 80 82 81 81 64 34 38 33 26 19 16 16 15 19 23 37 26 23 25 26 18 12 13 12
32 35 35 40 42 37 57 79 84 80 83 87 98 96 99 77 78 79 82 87 83 84 72 35 39 38 34 27 19 16 15 13 16 22 29 28 30 20 18 14 12 10 8
32 35 38 38 42 48 58 72 79 80 84 96 96 100 89 89 81 86 88 89 84 82 36 37 40 39 35 27 19 18 24 18 16 25 26 32 36 26 20 18 13 10 11
36 40 41 39 43 46 58 63 76 82 86 94 96 99 94 87 88 92 96 87 84 41 37 41 42 40 37 27 17 22 29 27 32 25 36 25 19 24 28 19 13 12 11
36 38 42 41 46 49 60 75 83 86 89 100 100 99 93 88 91 99 96 87 59 38 40 43 44 41 34 26 16 14 29 28 25 23 22 30 21 32 22 20 18 16 15
31 38 42 44 50 60 71 76 74 57 70 82 100 100 100 99 99 100 92 70 41 41 43 46 46 42 32 20 18 16 14 15 30 27 26 29 30 26 31 32 27 19 17
22 33 46 48 56 70 69 79 64 75 82 87 100 99 100 99 99 97 75 50 42 43 46 47 46 40 28 18 15 15 16 23 31 38 40 30 28 32 34 37 39 40 34
27 30 47 56 65 77 81 62 58 88 77 80 99 100 100 99 98 76 55 45 44 46 48 48 45 35 22 16 16 15 15 22 29 39 39 35 36 31 36 34 37 33 42

GFSSE_850_rhum_048.txt.gz
RH
62 45 72 75 80 82 81 83 83 83 80 82 82 81 81 80 78 78 78 76 73 63 61 68 47 47 82 94 78 84 80 67 53 40 29 28 28 26 29 33 39 80 82
50 54 79 78 83 88 82 71 76 80 80 79 81 81 80 80 78 76 64 67 53 44 63 92 34 43 94 93 81 82 73 66 43 32 32 60 64 44 31 29 32 41 57
53 48 72 70 86 85 68 67 75 76 76 76 78 81 83 80 80 73 44 30 24 30 68 98 71 62 99 95 76 84 78 62 35 36 70 74 72 58 31 29 32 41 43
56 58 68 75 79 69 51 58 62 64 57 52 55 64 90 88 80 46 27 25 26 30 79 88 83 90 99 95 77 83 60 44 27 53 52 53 68 68 35 24 29 41 61
75 71 59 58 64 63 45 38 33 33 35 35 38 74 80 77 32 34 29 24 22 23 68 95 84 74 77 78 81 64 40 29 74 81 93 87 66 62 48 27 26 33 44
84 94 69 77 73 65 47 42 42 37 29 34 42 42 47 38 42 42 30 24 22 22 33 81 77 79 70 68 68 32 24 41 87 92 94 95 83 68 60 58 59 57 59
78 86 84 76 70 66 56 50 46 37 27 45 40 48 63 59 66 65 49 33 32 24 24 50 52 53 46 31 25 31 40 58 85 90 92 87 90 74 68 72 73 80 83
72 82 84 78 74 64 59 58 53 42 28 48 54 68 84 83 76 72 64 39 35 35 35 34 34 36 38 40 45 50 54 60 84 91 89 94 91 79 76 79 84 85 79
71 81 67 67 76 65 58 56 58 50 34 35 59 79 85 86 90 80 76 47 38 39 40 40 42 43 46 53 58 60 62 67 88 92 80 92 92 79 77 79 81 72 69
72 79 76 70 76 75 62 64 60 56 47 28 47 62 81 86 86 85 82 50 40 40 40 45 46 52 58 62 66 66 74 86 87 89 87 89 88 77 79 78 76 75 76
74 76 85 82 91 84 78 70 69 64 57 42 34 48 70 80 83 88 76 48 43 46 48 53 57 62 74 85 89 77 86 84 82 84 84 85 75 64 64 64 59 54 50
74 74 77 85 86 96 97 86 84 77 64 55 39 39 64 92 91 82 85 62 52 54 59 63 70 82 90 85 85 78 77 74 73 73 68 60 59 51 47 41 37 38 40
70 73 72 78 84 83 93 91 92 95 89 69 67 43 66 86 91 91 77 54 60 62 78 82 93 90 83 80 78 78 69 67 66 65 60 49 39 34 35 36 34 36 37
60 69 72 75 80 86 85 93 95 97 98 96 93 83 80 82 72 65 72 84 76 83 90 92 90 88 80 78 76 74 70 64 52 48 34 31 32 32 32 32 32 31 31
50 58 70 74 78 78 83 83 90 87 91 96 95 86 83 79 66 82 86 84 88 90 86 84 81 79 77 74 69 52 35 30 29 31 28 28 26 27 26 28 26 26 24
40 52 61 69 75 79 89 92 86 85 88 92 91 90 80 79 79 86 84 87 85 81 80 83 80 79 69 55 41 32 30 26 21 21 20 21 24 24 24 24 24 26 30
39 42 51 62 72 77 78 81 88 91 89 92 90 93 82 85 87 86 84 78 75 72 77 80 82 78 54 32 33 25 19 16 16 18 24 22 24 23 24 25 28 27 22
35 36 44 52 63 73 82 71 61 90 93 85 93 93 84 90 88 79 72 72 74 76 74 78 74 48 33 35 30 22 17 15 15 21 24 26 24 24 23 21 22 17 13
33 36 34 43 50 64 74 78 65 58 94 82 90 90 88 91 82 73 69 73 79 76 78 78 55 34 37 36 31 23 17 15 14 19 23 25 24 24 26 20 16 13 10
29 35 36 37 37 43 68 77 73 66 83 80 83 82 87 89 78 73 74 80 79 79 80 73 34 38 39 37 31 20 17 15 12 14 19 23 22 19 20 17 16 13 11
26 29 36 37 38 37 50 72 81 72 94 77 79 81 91 88 80 74 79 82 85 82 81 39 36 40 41 38 31 21 17 20 20 22 19 25 24 26 19 17 14 14 13
30 28 28 35 39 38 38 53 76 80 77 77 79 86 96 98 86 83 84 86 88 82 68 35 40 42 43 39 29 21 21 23 28 30 22 22 27 20 20 19 20 17 17
31 33 33 32 37 42 40 52 78 82 76 82 90 86 94 99 88 88 92 93 89 83 50 39 42 44 44 39 28 20 17 27 24 19 24 26 23 23 24 26 20 21 20
23 30 35 37 38 39 43 58 70 74 74 80 76 84 93 100 97 99 100 99 87 73 39 40 44 46 44 37 28 19 14 14 14 15 20 26 26 30 26 21 23 21 21
22 24 28 33 40 41 47 62 70 74 71 61 74 89 98 98 98 98 99 98 82 49 40 44 46 47 44 34 23 16 15 15 17 25 26 19 18 19 17 20 23 26 29
23 22 25 33 40 43 55 68 78 61 62 68 83 100 99 99 100 100 98 91 63 43 42 46 48 47 40 28 19 16 16 16 20 27 30 20 20 18 21 19 19 27 35

GFSSE_850_rhum_051.txt.gz
RH
80 62 61 60 69 74 77 78 76 78 81 83 82 82 81 80 78 77 76 76 75 68 59 54 56 61 88 83 76 66 68 48 37 28 23 29 28 27 27 29 38 44 60
63 66 70 65 63 69 79 85 79 78 75 78 81 80 80 79 76 70 62 61 64 48 78 59 44 52 92 92 73 71 53 42 31 27 44 50 48 46 32 32 30 35 44
48 70 76 85 67 63 68 64 71 76 77 90 90 88 76 75 73 62 31 29 25 30 74 71 32 84 94 89 73 80 68 41 25 48 55 46 44 54 31 25 29 39 41
56 69 68 73 61 49 50 57 65 64 61 64 84 82 89 77 67 31 23 22 21 46 82 79 49 90 79 70 70 81 47 26 40 53 70 66 52 53 33 22 26 33 46
55 64 64 68 55 37 34 38 38 34 31 31 40 74 79 70 26 26 23 21 22 54 86 85 84 75 70 70 78 67 30 45 75 89 93 87 66 65 56 39 36 38 46
63 63 65 60 45 31 26 24 20 18 18 21 29 63 58 29 30 26 22 21 19 26 74 80 83 79 80 76 69 30 27 69 90 88 94 92 82 71 68 89 61 71 72
72 70 64 59 52 37 32 32 26 18 18 23 21 31 34 39 41 32 25 24 19 19 38 54 50 50 48 33 25 38 46 79 87 91 91 83 84 77 75 88 80 84 81
74 86 76 65 51 46 39 37 32 22 23 24 29 46 42 50 50 43 30 28 28 27 24 26 28 30 33 40 46 49 57 76 90 89 84 93 88 85 81 86 88 84 76
77 82 83 66 46 53 46 42 36 28 23 34 35 64 90 88 74 62 41 31 33 35 36 36 38 42 48 52 55 58 64 86 92 91 86 88 91 86 76 74 72 69 66
75 78 74 77 64 56 52 50 44 36 26 35 51 64 77 85 89 80 60 37 37 37 39 41 44 49 54 57 60 66 83 86 86 84 86 84 86 86 68 66 72 74 74
73 76 72 59 66 62 55 58 56 48 38 27 39 60 73 78 79 83 71 39 39 40 43 50 54 60 72 78 73 85 85 82 82 81 82 83 80 67 60 55 50 47 44
72 76 76 76 64 69 74 66 61 57 50 37 30 45 66 77 84 80 68 47 43 47 52 58 65 73 80 86 81 75 77 75 74 75 68 62 59 51 45 40 40 42 46
71 74 75 81 83 70 62 78 78 73 64 56 39 37 64 82 93 82 72 52 53 55 64 72 72 77 74 81 79 79 73 68 65 64 65 58 44 36 49 38 39 41 41
70 72 68 77 83 83 78 76 84 85 88 72 58 37 69 73 90 84 73 58 62 70 84 84 84 87 82 79 78 74 69 67 52 40 35 31 32 33 34 32 32 32 30
63 67 73 69 78 82 83 84 90 95 95 91 71 72 73 73 80 68 66 76 73 84 88 85 87 82 77 72 62 52 38 31 28 25 22 22 24 26 29 29 28 25 24
53 60 66 72 72 78 83 84 82 84 86 91 92 88 81 80 74 58 74 84 78 85 86 90 86 79 76 65 53 34 31 26 20 15 15 18 20 23 26 25 24 26 28
39 46 60 69 74 77 78 85 82 81 85 89 92 89 90 78 70 80 84 82 83 88 85 83 84 80 66 43 34 30 25 19 17 14 15 16 19 22 22 22 24 21 19
34 35 54 63 66 74 78 79 79 81 85 89 85 89 90 78 82 87 86 82 86 80 75 78 79 79 50 34 34 30 23 17 15 14 15 16 20 20 20 18 18 16 13
34 35 36 58 59 61 74 78 82 85 86 83 88 88 90 84 87 88 86 82 76 73 74 77 73 46 34 37 36 32 24 17 14 14 15 16 17 18 17 16 15 13 12
30 33 34 37 54 57 61 69 77 77 82 86 90 86 86 86 88 91 87 78 74 75 76 77 68 33 38 39 38 33 24 18 17 15 17 17 16 17 17 17 14 13 13
26 26 28 35 38 56 64 70 74 73 78 75 85 79 80 82 84 84 82 76 75 78 79 79 57 34 39 41 40 32 24 21 21 23 18 18 20 21 20 17 16 19 16
26 25 26 29 36 44 61 60 67 66 71 68 75 76 78 77 82 82 80 76 78 81 81 77 48 36 41 42 40 34 21 26 23 25 24 20 23 27 23 22 22 20 16
27 28 28 29 34 38 38 42 52 63 72 69 73 75 80 79 87 83 90 82 83 86 84 78 40 38 43 44 41 34 19 19 18 17 21 31 36 25 23 22 25 20 18
24 25 28 30 32 33 40 39 45 56 61 72 70 77 79 79 82 85 96 90 91 92 85 67 40 40 45 45 42 32 22 16 14 14 18 19 21 22 22 22 20 18 18
23 22 22 24 29 33 41 42 40 51 57 61 69 68 74 75 93 99 98 94 95 94 79 51 39 43 46 46 40 28 20 16 15 16 17 17 17 17 17 16 16 16 18
22 22 22 22 27 28 35 43 45 44 55 62 67 60 69 75 84 100 98 96 97 93 64 46 43 46 47 44 34 25 19 17 16 18 20 18 18 17 17 16 15 15 22

GFSSE_850_rhum_054.txt.gz
RH
86 69 95 88 82 79 78 81 82 86 89 81 82 85 85 82 79 78 76 74 74 70 68 68 69 79 81 74 75 50 59 44 33 26 22 25 24 23 26 26 32 40 52
61 67 87 89 84 84 82 72 80 78 79 79 74 77 77 76 75 69 63 63 64 61 45 48 56 74 89 77 68 63 45 32 25 27 36 40 33 27 24 28 32 33 38
62 62 73 89 88 84 75 70 72 69 66 65 70 70 67 66 58 50 30 32 44 96 60 39 43 88 94 71 74 80 45 28 35 44 39 35 41 31 24 24 33 37 38
54 57 64 75 60 54 45 55 58 56 55 75 83 77 55 58 53 28 17 16 20 75 85 34 79 90 77 74 74 79 36 32 50 57 57 47 51 52 27 24 31 33 44
55 51 63 72 61 55 43 48 49 46 44 62 78 59 54 54 24 18 18 19 28 88 86 55 89 82 79 75 77 77 28 63 73 76 68 71 68 63 67 46 48 50 55
62 53 61 75 69 43 38 38 42 32 31 36 47 46 54 28 20 18 18 20 31 70 80 88 87 85 81 78 71 32 42 72 86 87 93 81 76 71 68 77 68 83 81
57 59 65 74 59 36 29 21 20 16 16 20 25 56 45 24 23 20 20 19 22 60 72 82 83 79 77 42 25 31 53 87 84 87 90 87 83 82 88 86 84 86 85
52 58 66 66 54 34 28 22 16 15 18 18 20 30 26 35 33 25 24 23 20 29 54 48 36 30 26 34 44 50 76 87 90 89 87 91 85 84 75 76 81 86 77
64 56 61 59 56 42 36 31 21 16 18 19 20 25 32 43 44 35 28 29 31 30 30 31 35 39 46 52 56 60 73 90 87 88 86 85 86 88 81 72 74 74 76
77 76 78 74 56 50 42 40 31 20 20 23 27 37 48 60 66 55 34 33 35 37 38 40 44 49 53 59 65 80 90 89 85 84 85 84 86 85 70 59 70 83 93
85 84 81 82 72 51 49 49 44 33 25 28 32 48 69 73 82 74 50 35 37 38 43 47 52 55 60 64 71 84 78 79 82 83 82 82 79 70 59 55 59 53 50
80 82 78 76 70 58 52 52 51 46 34 29 36 53 63 69 74 80 64 38 42 45 51 54 58 68 72 72 75 77 73 72 72 74 75 66 62 60 52 47 47 51 50
73 79 78 76 68 59 58 54 57 53 48 36 33 42 54 59 72 75 67 49 46 52 59 59 64 72 76 83 78 75 72 63 64 64 62 60 55 41 68 46 46 46 46
69 70 73 74 73 74 68 63 60 60 57 53 37 38 47 55 64 66 66 51 51 57 68 74 80 82 77 75 76 78 74 65 59 52 43 33 32 39 44 35 39 36 32
61 63 66 72 74 73 76 71 68 77 79 71 59 39 45 53 59 68 72 58 59 65 76 77 82 85 84 79 73 63 52 39 31 27 24 21 21 25 27 31 30 25 24
66 64 63 68 71 76 76 78 76 76 75 80 70 55 41 52 65 69 72 65 74 74 82 85 88 88 82 77 64 51 36 30 24 19 18 18 20 23 26 25 24 24 25
53 67 66 68 70 73 75 80 78 81 85 82 83 71 68 63 65 72 58 68 75 75 81 88 90 88 82 73 54 35 31 25 20 16 16 18 21 23 24 23 23 20 18
35 39 60 62 68 69 75 74 70 79 83 82 86 89 77 76 72 76 68 75 80 83 86 88 84 83 80 66 36 34 29 23 18 16 16 18 20 23 22 21 18 16 14
33 33 36 62 62 66 69 74 66 68 79 79 87 88 84 86 86 76 76 83 85 84 85 79 77 75 71 39 36 35 30 23 18 14 14 16 19 20 19 18 17 15 13
32 32 32 34 56 61 65 67 71 66 75 79 86 89 84 86 88 82 85 88 87 85 84 76 76 75 47 37 38 36 30 24 18 17 18 18 18 21 20 20 18 16 17
27 30 29 30 31 53 62 68 69 69 73 78 75 84 88 85 85 84 89 90 90 87 77 76 76 77 35 39 40 38 31 24 22 20 23 21 24 25 23 20 19 19 19
27 27 26 27 27 29 51 57 64 62 69 61 62 76 87 84 80 74 82 91 92 87 80 80 79 75 35 39 41 37 31 30 28 24 25 24 24 27 26 22 22 22 21
29 29 28 26 26 26 31 50 59 65 64 66 64 68 74 83 79 73 79 83 88 85 80 81 82 72 36 40 43 39 30 26 24 22 20 21 28 33 29 24 24 24 20
23 25 28 27 30 28 31 43 50 57 58 59 60 60 70 72 79 67 75 86 90 86 85 88 84 58 40 42 43 42 35 29 18 16 20 23 27 28 24 23 21 19 18
23 23 23 23 24 28 32 37 51 54 56 52 54 59 62 71 74 65 64 81 87 93 90 90 84 62 44 43 45 42 34 29 22 17 16 18 20 21 20 18 18 17 16
23 24 24 23 23 23 24 33 33 46 53 54 54 54 61 64 70 66 65 79 96 95 91 89 82 56 45 45 45 40 32 25 20 17 18 18 18 17 18 17 17 16 17

GFSSE_850_rhum_057.txt.gz
RH
65 88 92 87 84 79 81 82 78 82 81 78 81 83 87 86 83 82 78 75 74 75 74 73 77 64 67 73 64 52 57 46 35 29 25 23 22 20 24 27 36 45 48
54 94 91 85 85 78 79 77 81 84 96 91 84 87 84 80 76 71 70 67 67 67 70 66 74 72 78 73 52 68 39 30 27 28 31 35 30 23 24 28 32 36 34
60 89 90 88 92 88 84 84 88 92 98 71 65 68 69 71 67 58 48 32 52 70 100 59 72 77 87 77 74 74 35 26 32 38 34 41 36 27 23 25 30 32 36
58 68 86 90 86 93 87 84 86 70 63 61 62 58 54 52 49 38 22 20 41 87 76 53 65 86 89 79 77 74 28 36 40 55 45 53 53 44 27 28 31 40 48
59 48 60 77 90 84 66 66 65 65 58 59 56 49 51 47 33 16 16 18 94 96 89 80 98 84 78 80 80 68 43 66 61 65 66 66 66 73 79 57 62 61 62
55 47 46 57 59 58 51 51 57 71 95 97 70 37 50 38 18 18 18 20 61 94 80 99 85 85 82 77 73 34 62 76 85 75 78 73 75 80 80 82 86 90 86
60 51 49 43 51 50 50 50 46 49 51 71 34 38 37 18 18 17 18 20 44 64 78 79 81 81 80 59 29 38 73 81 80 84 87 78 90 89 92 89 80 77 78
58 55 54 56 51 40 41 39 30 20 20 23 21 32 25 19 18 18 18 18 27 54 67 76 74 64 38 36 44 46 77 76 82 86 83 86 84 81 74 69 69 74 72
64 51 53 46 46 34 27 24 20 17 18 19 17 21 20 26 24 21 23 23 23 35 49 36 33 35 44 51 52 61 68 78 82 84 84 85 83 78 71 58 65 78 87
72 62 52 41 42 34 29 30 22 17 20 19 18 18 25 32 32 26 26 30 32 33 34 38 41 50 55 56 58 61 73 83 81 82 85 84 85 84 67 56 71 81 73
78 71 65 66 61 38 38 36 32 21 20 22 24 28 31 40 44 38 32 33 35 38 41 46 50 55 59 61 64 76 82 82 82 83 83 82 80 66 59 50 52 51 44
79 77 80 79 77 65 46 42 40 31 26 28 31 41 51 63 67 58 44 36 37 40 45 49 55 64 71 71 71 76 78 76 75 78 77 72 67 67 62 45 46 45 43
62 74 77 78 80 75 59 44 43 41 32 32 38 50 56 61 69 74 63 38 42 46 48 52 59 71 79 79 74 73 72 70 67 68 65 63 61 71 64 32 37 38 39
62 65 71 74 76 74 66 54 45 44 43 36 32 40 51 56 63 72 68 54 46 51 56 60 67 74 78 81 81 77 74 67 61 56 48 37 33 43 47 35 32 33 31
65 66 68 70 73 72 70 66 61 54 52 47 41 36 43 50 58 70 65 62 53 59 65 73 77 78 82 82 80 74 64 56 41 31 26 21 19 24 27 30 31 27 25
68 71 67 67 71 74 73 75 72 66 63 66 62 50 39 41 54 69 71 69 60 65 74 82 82 85 87 83 79 68 57 40 31 24 19 17 18 21 24 27 25 24 25
69 69 67 66 69 73 73 76 76 73 69 71 70 72 59 42 50 65 72 73 71 76 84 86 88 90 90 85 80 61 38 32 26 20 17 17 19 21 23 22 22 20 18
48 58 65 70 72 72 74 70 72 67 76 77 75 72 66 55 50 66 72 66 71 83 83 86 87 88 89 85 79 46 35 30 25 20 16 17 19 20 21 20 19 17 15
33 34 36 46 70 70 70 70 67 68 75 79 80 68 70 70 69 73 74 72 76 83 82 86 87 86 85 82 71 36 35 32 25 20 16 16 17 18 18 19 19 16 14
29 32 32 32 34 42 66 70 68 72 73 78 79 76 71 77 74 82 79 79 82 85 85 87 88 84 79 69 39 37 36 32 27 20 19 19 19 19 19 20 20 17 17
24 29 32 32 30 30 43 74 70 69 71 76 79 75 74 81 79 79 86 81 84 85 86 88 88 80 78 66 36 39 37 32 28 23 22 23 22 25 22 22 21 19 18
30 26 28 29 29 29 29 45 64 66 67 65 69 74 73 72 77 77 78 80 83 85 91 92 88 78 78 63 36 40 34 34 30 27 25 26 28 26 26 26 24 22 21
29 30 28 27 27 28 28 29 45 62 66 66 65 67 66 68 70 78 71 72 80 86 89 92 86 80 80 68 38 40 36 34 29 29 27 27 28 27 31 31 26 25 22
21 26 28 29 28 28 29 31 32 34 53 64 64 61 64 64 67 67 67 63 72 83 92 98 89 83 83 67 40 41 42 39 29 24 25 22 23 28 32 29 26 21 18
25 23 22 23 24 26 26 33 32 34 47 60 60 62 59 59 63 62 63 64 73 86 96 100 92 89 86 61 44 43 43 40 35 26 19 22 23 23 25 25 20 19 18
22 23 23 24 24 23 23 24 27 36 42 57 61 65 62 60 60 61 63 62 63 72 90 100 94 89 83 68 58 44 43 38 36 27 22 20 19 20 19 19 19 19 18

GFSSE_850_rhum_060.txt.gz
RH
54 79 92 84 84 75 76 76 77 78 78 79 86 87 86 87 86 83 83 82 78 76 74 79 68 57 66 71 50 43 52 47 39 34 31 27 22 20 23 28 36 40 34
34 79 93 83 81 77 77 78 80 84 95 83 84 84 86 88 87 85 79 76 76 74 74 72 79 74 75 43 64 46 34 29 31 31 34 33 27 21 23 25 29 29 30
41 72 84 87 80 76 78 78 83 86 96 99 78 80 84 81 75 74 63 48 54 61 84 75 85 72 71 73 71 62 28 34 39 36 38 36 26 21 22 26 29 33 37
45 72 81 81 82 82 86 87 87 98 99 98 77 71 71 70 60 48 31 26 48 88 77 63 74 93 83 78 79 66 28 38 44 42 46 47 42 39 35 38 46 49 50
50 51 74 83 87 92 92 90 90 97 100 99 92 68 54 46 42 17 14 20 96 80 40 53 91 95 80 81 80 60 34 46 53 54 57 60 62 88 61 72 78 71 74
57 56 77 87 81 92 90 88 97 98 98 96 93 59 45 34 14 14 15 28 98 83 83 98 99 85 84 79 75 39 50 66 69 70 69 78 89 94 94 86 89 90 93
58 58 69 81 83 79 90 73 91 95 97 97 82 45 36 19 16 15 16 20 64 76 99 97 86 86 83 77 35 34 68 77 76 80 77 92 95 94 87 79 72 74 75
58 60 66 81 64 58 60 78 90 70 69 86 42 34 31 17 17 16 16 19 39 66 77 84 82 83 77 31 35 58 82 84 86 84 78 82 85 80 74 65 67 70 68
71 61 62 56 43 46 37 42 41 27 31 32 23 30 29 21 19 19 18 18 28 44 57 61 57 40 33 46 50 61 80 83 84 83 82 83 84 77 69 64 78 91 77
74 69 59 56 44 31 25 27 23 19 20 21 19 28 24 27 24 22 24 24 26 33 35 31 34 43 50 52 55 67 73 80 80 81 84 83 84 73 63 64 63 69 55
73 66 62 55 40 32 23 24 24 20 19 21 20 20 26 33 32 26 28 32 35 35 36 39 46 53 57 59 62 69 76 80 80 82 83 82 77 66 68 50 49 45 40
69 66 61 54 58 54 33 29 28 25 20 22 22 26 30 40 49 42 32 35 38 41 43 49 57 60 62 64 65 74 80 79 77 77 75 70 67 82 60 40 41 41 36
70 71 67 71 76 74 62 43 33 32 24 23 26 32 40 56 69 69 55 38 40 42 48 53 59 66 71 70 74 75 74 73 69 66 62 60 60 77 41 32 28 30 31
57 64 70 73 77 78 75 66 47 41 34 28 29 38 47 54 64 73 68 42 44 47 52 60 68 78 78 78 80 78 76 73 64 58 50 38 37 58 38 29 22 23 24
60 61 65 69 70 71 69 73 62 52 45 40 34 36 42 49 57 62 71 58 49 50 55 63 71 78 80 79 79 77 73 61 50 35 29 23 22 26 28 24 23 23 21
61 62 62 66 71 69 68 73 68 64 59 52 48 43 38 42 49 58 69 65 63 55 62 71 80 82 85 86 82 77 68 57 39 31 23 19 18 20 23 24 22 21 21
68 66 64 66 69 70 70 66 67 70 72 67 61 58 55 44 42 51 67 70 70 63 67 77 83 86 89 89 86 80 64 43 33 26 21 18 18 19 22 22 21 19 16
55 71 70 73 72 72 70 68 69 67 69 76 71 76 77 74 59 47 62 75 80 78 78 84 88 90 90 90 87 82 62 36 31 26 20 18 19 19 21 22 20 17 15
29 38 56 68 69 71 75 74 71 70 69 72 74 75 81 78 72 50 57 72 80 74 82 85 87 90 90 88 86 82 49 35 32 26 21 19 20 21 20 19 18 17 15
25 26 33 35 36 38 53 71 71 69 71 72 67 72 72 78 79 70 61 72 76 68 80 87 88 90 88 86 82 77 38 36 34 28 22 20 19 20 20 19 18 18 16
29 25 26 30 33 33 35 44 58 66 67 67 65 68 65 76 76 75 73 76 76 72 75 85 88 91 89 85 80 60 36 37 35 30 25 23 23 22 24 22 21 20 18
29 29 29 26 29 32 32 31 32 36 58 59 63 63 64 69 68 65 70 75 76 77 78 87 87 88 89 82 78 57 36 36 37 34 29 26 26 26 28 26 25 23 20
25 26 29 31 29 30 31 30 31 36 47 66 63 63 64 64 68 65 65 65 64 78 77 82 90 92 91 83 80 53 38 39 36 35 32 30 28 29 28 28 29 26 22
24 21 22 29 31 30 30 31 31 30 32 35 41 50 59 60 60 63 66 63 61 74 80 82 90 94 97 87 83 69 41 38 33 34 35 31 29 28 28 31 32 27 23
26 25 23 23 27 28 27 28 29 33 38 42 40 53 57 59 60 60 60 61 61 68 79 87 88 96 98 92 89 84 46 41 41 36 27 30 27 26 27 30 29 26 21
25 25 26 25 24 24 24 26 26 26 31 37 40 48 60 57 60 63 63 62 62 62 66 73 82 100 97 95 92 77 49 51 41 37 32 30 25 25 24 23 22 21 21

GFSSE_850_rhum_063.txt.gz
RH
37 52 76 80 70 68 73 75 74 80 86 85 84 86 86 85 84 83 82 82 83 78 73 72 66 53 61 62 49 45 48 45 39 35 31 24 21 20 22 26 32 34 38
30 64 78 79 67 68 74 71 74 81 88 97 87 89 89 89 88 86 85 82 76 72 68 81 68 69 65 49 50 32 28 32 31 26 25 27 23 20 22 27 30 28 26
38 55 86 84 81 79 80 78 84 89 94 99 86 86 88 89 88 84 74 62 56 61 62 82 85 76 72 67 67 37 26 29 30 32 34 31 22 22 25 30 36 36 40
44 66 88 85 79 77 80 82 82 84 95 96 94 78 82 80 71 58 43 34 36 73 65 82 93 89 75 75 72 39 29 36 40 47 51 46 41 48 50 53 52 51 54
48 50 85 86 74 76 82 80 84 96 98 98 85 56 52 57 46 32 19 31 47 74 60 84 90 98 76 76 70 34 40 50 52 56 57 60 64 75 82 90 84 79 91
47 54 78 76 72 82 94 85 85 90 98 97 93 71 46 39 23 17 20 95 72 45 58 78 95 93 80 80 71 32 56 65 63 64 71 87 93 95 90 83 84 94 92
58 62 75 81 83 86 94 90 98 99 96 98 86 54 41 26 18 19 23 93 87 70 92 96 91 78 86 79 44 40 67 69 73 69 85 91 94 87 80 71 64 81 87
61 64 75 90 80 87 82 93 98 96 98 100 74 61 43 20 18 18 19 28 58 74 99 92 84 84 81 58 28 50 68 73 72 71 72 83 86 72 63 53 75 75 64
62 61 67 71 72 62 63 97 99 98 97 100 78 57 43 22 20 19 19 31 49 64 80 81 77 76 52 32 37 55 72 74 75 76 74 78 81 68 63 76 86 81 68
62 61 61 62 50 48 36 40 61 57 70 88 84 44 43 25 23 22 20 25 43 53 59 56 44 33 35 46 55 68 76 81 81 79 81 78 75 64 65 59 61 42 44
67 66 63 62 54 45 33 34 34 31 30 32 58 28 36 29 26 26 26 26 31 43 39 34 37 45 50 54 59 65 74 84 82 82 83 82 73 83 67 49 45 39 38
66 70 66 65 56 45 35 27 28 26 24 23 24 25 29 34 35 30 32 35 35 35 38 42 48 52 56 61 67 76 81 81 79 80 80 73 71 87 68 46 38 36 30
70 70 72 68 59 58 50 34 32 31 27 22 25 25 27 36 46 43 32 35 37 40 42 46 50 57 62 66 70 76 76 74 72 68 65 62 73 86 47 36 27 26 24
67 68 67 66 65 71 72 63 48 37 35 27 24 26 30 35 50 62 50 40 39 40 46 51 54 61 70 71 72 75 75 74 68 59 51 41 57 70 39 28 22 23 22
68 70 68 68 71 73 73 73 68 55 45 38 31 29 34 40 50 60 71 64 41 45 50 55 59 66 71 72 76 76 75 69 55 45 33 28 27 30 29 24 21 22 21
69 72 68 66 72 77 75 73 72 66 57 50 45 39 36 38 45 58 66 75 56 48 54 60 64 69 76 78 80 78 75 65 54 37 30 23 22 23 23 25 23 21 20
71 74 70 69 68 74 73 62 71 69 69 66 61 55 50 44 42 49 60 72 71 65 56 62 69 77 80 85 86 83 79 65 46 34 27 22 20 22 24 24 22 20 17
41 59 68 70 72 71 62 59 58 58 68 70 72 71 66 61 56 48 55 70 73 74 60 64 72 83 84 88 88 85 82 69 38 32 27 22 19 20 22 23 20 18 16
28 30 41 62 68 68 66 62 58 58 62 64 69 73 74 74 78 74 59 59 79 86 78 72 75 84 88 90 89 86 82 75 37 32 28 24 19 19 19 18 16 16 16
27 26 28 34 50 65 67 67 65 65 60 66 66 70 69 74 84 87 81 56 72 89 86 80 84 88 89 94 92 86 80 67 36 34 30 26 21 20 20 18 19 19 18
29 28 27 27 31 40 46 50 53 56 58 58 58 59 60 64 70 70 75 67 58 78 80 72 83 89 92 93 91 85 79 53 36 36 33 28 24 23 23 22 23 22 20
29 30 30 29 28 30 34 35 36 41 54 52 55 56 56 59 63 66 68 75 69 72 79 74 74 86 90 94 90 84 63 51 36 37 37 33 28 26 26 26 26 25 24
25 27 28 29 29 30 30 32 35 40 46 41 38 46 51 52 58 61 64 66 73 76 78 77 72 82 88 90 91 79 60 49 38 37 37 36 32 29 28 30 28 28 27
27 25 24 26 29 30 31 33 34 35 38 33 33 33 42 43 58 63 64 62 63 68 77 79 78 78 89 94 92 88 79 58 38 38 37 35 34 33 31 31 30 29 29
28 28 27 24 25 29 32 31 32 33 33 33 35 33 33 37 45 61 63 61 60 63 63 70 80 83 88 97 94 91 83 72 53 42 37 38 37 34 32 32 31 30 31
33 30 30 28 26 26 27 28 28 29 29 32 37 37 37 40 42 60 64 66 65 60 60 62 68 87 89 97 100 94 92 88 83 69 43 38 35 32 32 30 31 29 26

GFSSE_850_rhum_066.txt.gz
RH
42 44 59 72 74 76 78 81 78 89 88 86 86 84 86 87 87 83 82 82 82 77 65 68 61 50 50 52 47 45 44 44 42 36 30 22 19 19 24 31 52 75 85
47 54 57 75 70 73 75 78 75 82 91 89 91 86 90 89 88 86 85 84 80 73 68 67 63 66 50 49 34 28 28 38 34 27 26 24 18 20 25 25 27 28 46
77 82 70 70 59 64 74 69 72 80 87 97 99 91 91 90 90 86 81 71 64 64 71 86 87 67 68 61 52 22 25 28 30 30 29 61 21 23 28 33 31 33 32
89 92 84 70 57 83 75 78 86 88 91 97 98 95 90 87 84 72 59 42 35 56 74 91 91 73 67 72 59 24 31 34 36 44 85 81 76 53 54 50 50 55 58
93 95 98 79 76 82 81 81 86 86 93 98 99 93 70 73 64 50 35 28 48 62 59 92 94 88 73 73 57 34 44 44 46 76 92 95 88 83 90 86 82 92 92
91 95 82 80 71 78 82 85 85 90 98 98 92 57 38 51 45 18 20 54 58 52 76 93 96 93 78 76 58 41 52 54 66 91 100 90 97 94 90 76 89 92 91
91 96 86 83 72 84 94 85 88 95 97 92 87 60 35 27 17 18 36 82 61 78 81 93 96 86 76 78 39 53 61 60 92 96 100 96 96 88 73 67 63 74 75
96 99 97 82 78 87 93 88 97 98 98 97 93 70 34 19 18 20 51 98 85 90 84 95 92 74 80 70 29 60 66 69 91 94 100 100 80 69 59 59 64 66 64
91 98 100 90 87 92 97 91 98 99 92 98 94 73 44 22 20 19 22 49 80 97 99 94 86 81 77 33 38 64 70 73 95 94 93 98 78 73 81 82 78 61 59
67 95 100 100 95 94 83 80 97 98 97 98 97 90 52 26 23 21 22 42 64 85 90 87 77 68 35 42 44 63 69 76 95 97 95 96 75 79 79 70 57 41 38
74 96 96 96 94 93 93 94 94 93 77 98 99 86 61 38 25 24 25 34 45 62 70 65 41 32 42 48 54 61 68 94 94 94 93 78 68 84 70 51 38 34 35
74 76 98 97 95 93 90 90 94 94 83 85 73 61 87 76 67 53 27 29 38 48 45 34 36 46 53 63 56 62 90 90 92 91 88 69 72 74 58 37 31 29 27
72 67 66 77 97 95 92 84 90 92 90 90 93 92 92 81 43 33 35 35 35 36 41 42 45 54 72 84 67 85 83 87 84 77 70 62 72 66 56 31 24 23 24
64 61 66 65 66 91 87 59 66 65 68 83 91 90 88 81 78 80 69 64 51 46 82 84 93 88 60 64 77 79 77 77 74 64 61 51 59 58 51 29 24 22 21
84 66 69 67 63 82 94 79 76 58 45 46 47 56 55 75 87 94 94 70 59 77 82 86 86 75 78 73 73 76 75 73 68 56 54 33 39 42 37 25 21 21 20
77 74 64 68 74 73 96 93 82 73 64 51 48 41 32 59 74 93 96 91 76 48 70 85 87 72 72 72 73 77 77 73 62 52 56 50 28 34 34 27 26 23 20
92 88 66 66 70 74 79 82 79 75 72 65 57 53 44 41 52 73 93 95 84 68 57 69 82 70 71 76 78 81 80 75 65 51 35 82 34 26 25 24 23 21 20
56 82 94 76 69 71 73 76 76 75 71 68 67 66 62 55 50 47 59 90 94 94 76 67 64 65 77 78 83 85 84 79 70 45 33 29 34 42 22 23 22 20 17
38 33 42 64 61 63 67 74 70 69 67 68 69 68 69 71 67 62 62 65 77 96 94 73 69 68 78 84 87 87 85 81 78 48 33 30 26 24 27 20 21 18 17
28 30 30 37 35 41 59 68 70 68 59 66 62 64 71 72 78 74 76 77 73 92 90 86 73 68 74 87 92 90 87 82 77 55 34 32 29 24 22 21 20 19 18
25 26 28 27 26 48 55 51 68 64 49 47 56 66 65 62 61 72 78 82 82 75 82 86 80 75 79 89 96 94 88 83 76 55 35 34 32 28 24 23 22 21 22
30 29 27 27 26 28 67 34 47 59 60 51 55 54 57 52 55 58 64 68 74 73 83 79 85 82 84 91 94 79 69 72 77 64 38 35 35 32 29 26 25 25 26
25 28 29 29 29 29 30 68 70 56 52 44 45 45 52 56 58 57 60 62 64 70 68 59 72 82 81 83 95 82 74 68 58 61 51 37 36 35 32 29 28 30 31
25 26 26 27 28 30 31 52 84 64 52 36 38 40 42 40 49 58 56 64 65 63 66 64 67 76 86 77 92 92 85 62 51 49 45 39 37 36 35 32 32 33 35
31 29 28 27 27 28 29 32 64 87 81 51 47 41 39 36 34 48 55 62 66 67 66 64 65 78 82 87 79 88 91 88 79 62 52 48 43 38 37 36 36 36 37
36 33 31 29 28 27 27 30 36 75 85 92 86 73 41 38 36 40 46 54 62 66 64 66 68 78 78 94 86 90 94 90 87 83 71 54 46 41 40 40 39 41 39

GFSSE_850_rhum_069.txt.gz
RH
73 43 48 62 73 78 74 77 81 81 80 81 82 82 83 83 83 82 81 81 81 75 62 60 56 48 46 46 44 43 43 45 42 35 26 19 17 18 21 30 71 77 90
75 36 45 61 71 76 80 79 79 86 86 84 86 89 85 87 86 85 84 84 82 71 69 67 57 58 47 40 28 24 25 35 34 24 23 20 18 19 21 25 31 32 76
81 75 43 64 70 82 79 79 78 83 86 90 98 95 90 89 89 88 87 83 75 70 91 91 65 64 58 62 31 24 25 27 30 38 60 64 24 30 34 30 30 28 28
80 91 62 60 64 83 76 76 76 83 87 92 98 100 98 92 93 94 65 54 50 60 93 91 74 66 65 65 30 26 29 33 50 84 75 76 76 62 55 51 57 63 64
80 90 87 58 58 77 72 78 86 86 93 96 96 98 100 94 91 62 42 29 35 49 90 95 88 74 71 68 34 36 39 48 78 87 92 90 96 87 84 81 90 90 82
76 82 76 58 81 80 81 81 88 88 93 96 99 98 68 66 50 28 25 33 67 46 80 97 93 83 76 69 35 42 47 64 88 90 97 96 93 92 88 84 94 94 90
72 90 81 74 79 85 79 87 86 96 97 99 98 68 31 38 22 19 44 49 59 67 90 95 95 88 70 73 34 56 55 76 88 90 92 92 95 82 86 72 65 70 74
74 91 86 76 71 85 90 85 90 96 98 98 97 63 27 18 17 20 68 69 89 73 88 92 96 84 72 70 31 57 59 73 84 86 92 89 74 67 82 58 57 62 61
81 95 98 89 76 89 92 88 94 97 96 97 98 82 33 18 18 21 44 88 91 80 77 95 91 72 72 44 33 55 60 77 89 87 89 84 66 75 78 72 48 43 43
85 88 98 98 96 95 97 97 97 96 94 97 99 96 47 23 20 21 24 45 88 97 99 94 85 73 62 33 40 60 64 73 90 91 88 88 64 78 70 51 41 33 30
86 79 90 98 98 93 90 95 96 96 99 98 99 97 52 31 22 21 26 37 76 69 80 82 70 56 34 44 49 60 65 89 86 87 89 71 70 74 66 46 29 24 24
87 82 78 79 79 78 79 91 96 99 99 96 96 78 78 80 59 47 27 29 39 57 68 60 41 35 47 57 53 57 74 87 86 88 86 65 65 66 61 38 26 23 22
99 92 85 77 78 77 82 83 87 85 89 88 95 80 91 78 77 51 31 26 33 42 48 37 34 44 63 84 82 82 84 82 81 82 73 57 58 59 56 35 22 19 18
100 99 74 88 80 78 81 82 76 80 83 79 82 88 86 82 86 71 79 50 63 48 81 62 81 86 92 86 78 79 80 79 77 75 71 58 60 44 40 30 20 17 18
92 98 92 86 97 84 82 88 78 76 79 77 79 82 83 84 85 82 76 79 86 84 82 90 88 87 92 86 76 76 77 77 71 66 63 51 37 34 32 28 21 18 19
90 88 99 95 88 85 85 90 87 81 79 78 77 84 84 81 82 85 89 86 82 81 81 86 88 88 87 86 76 75 72 71 70 62 60 55 36 33 32 30 22 20 18
88 92 96 99 77 66 84 94 92 90 86 86 80 81 80 82 83 85 88 97 98 87 82 85 87 87 84 82 73 68 69 69 69 64 55 78 57 35 33 30 22 22 20
69 79 85 93 75 61 69 96 97 95 92 89 86 85 81 76 79 85 92 90 94 98 88 85 87 92 84 78 72 68 72 76 74 70 56 62 76 49 33 23 20 19 19
42 55 71 84 94 68 65 74 96 97 94 95 91 88 86 85 82 79 90 90 90 94 98 90 89 90 82 78 74 71 77 80 79 74 64 46 47 55 37 26 20 19 19
38 39 40 53 75 93 98 74 74 82 99 98 95 92 88 89 91 92 88 91 92 93 97 98 93 91 85 78 76 72 81 83 82 78 74 48 39 34 32 29 24 21 20
34 36 37 38 41 64 78 82 59 66 61 69 81 95 96 89 90 94 94 94 95 92 87 99 97 95 82 86 84 76 80 85 83 81 74 57 38 36 32 30 26 24 22
33 36 36 36 38 40 56 72 57 43 47 57 57 58 64 78 69 60 80 90 95 92 95 96 98 100 90 79 76 77 79 79 84 82 76 65 43 39 36 33 30 28 27
31 33 35 37 37 37 38 50 72 75 94 69 46 52 54 59 84 79 62 76 92 98 92 91 89 97 83 82 77 79 80 74 65 64 72 70 50 46 42 38 34 32 31
32 30 30 32 37 37 35 39 51 72 82 84 78 61 55 55 50 60 86 80 76 90 99 88 93 83 86 82 80 79 82 70 67 60 62 61 58 52 47 44 39 36 32
33 29 26 26 28 32 34 35 46 59 71 83 85 90 83 79 54 46 52 61 69 80 75 84 96 100 89 85 73 81 84 85 73 56 54 56 52 48 48 45 41 38 35
40 36 34 34 30 29 29 30 32 45 71 82 83 86 89 90 91 82 51 46 52 63 78 67 64 97 100 98 87 87 87 82 85 86 74 66 61 60 51 45 43 42 40

GFSSE_850_rhum_072.txt.gz
RH
74 43 45 55 60 67 68 73 78 78 80 80 82 81 82 82 87 82 83 80 78 57 63 67 52 49 45 41 39 39 40 40 37 28 19 17 17 22 30 51 56 89 90
62 39 46 57 71 68 70 74 79 80 81 81 86 86 83 85 85 85 83 77 72 56 68 56 57 48 45 34 23 22 24 32 26 30 24 18 19 21 25 38 32 68 78
60 38 41 55 73 72 73 74 80 84 84 84 89 92 88 89 88 87 84 80 64 82 88 65 58 53 54 37 20 21 24 35 59 68 56 44 38 35 34 36 35 32 33
70 47 43 57 73 77 78 78 80 85 89 94 95 98 99 90 90 92 60 44 47 86 93 79 67 65 57 34 22 25 31 56 81 80 82 86 81 63 58 74 81 79 80
89 53 50 57 84 75 78 78 79 87 94 96 98 97 99 93 75 58 35 26 35 65 94 90 78 74 64 38 29 32 47 78 91 90 88 90 91 83 85 90 91 86 90
87 94 58 55 74 80 74 81 86 90 96 96 100 97 77 70 59 26 20 32 35 64 93 94 84 75 70 44 37 42 64 89 91 83 85 92 92 91 85 90 87 83 78
82 91 64 52 72 77 76 83 86 89 94 98 94 39 33 43 21 21 49 55 73 66 97 97 95 86 69 51 43 49 67 88 85 80 81 86 87 78 78 68 59 51 60
80 88 67 69 86 81 80 86 88 97 97 98 90 33 22 18 18 45 64 73 75 92 93 94 96 89 70 51 42 51 72 85 88 86 81 85 69 85 72 57 54 54 57
85 85 75 74 84 87 85 90 88 95 97 97 89 56 26 19 19 28 56 83 76 78 88 91 93 79 67 37 39 53 66 84 86 88 86 85 64 81 75 55 42 35 34
84 83 79 79 76 95 95 94 93 95 98 98 95 81 37 19 18 21 24 56 75 75 78 81 84 69 59 30 38 52 59 85 82 84 91 84 62 79 58 48 33 25 22
83 85 97 97 85 94 95 97 98 99 97 98 98 87 41 21 19 19 22 31 71 61 50 71 70 58 36 36 40 52 64 87 88 86 86 84 56 60 57 39 24 19 18
83 81 82 95 90 86 93 88 86 95 97 96 99 80 45 37 28 22 20 25 30 35 47 56 50 34 33 43 46 50 76 85 87 85 85 74 52 48 48 35 20 17 17
80 83 81 84 81 83 81 85 80 64 83 85 83 71 56 81 65 43 32 23 26 29 41 41 35 32 46 58 68 55 81 86 85 83 74 60 49 45 41 33 21 17 17
75 80 76 75 77 77 79 83 83 90 89 87 92 80 62 80 73 52 31 26 26 28 32 34 32 38 52 86 81 78 79 83 81 78 72 62 44 41 37 31 21 15 15
82 75 78 77 77 77 78 78 78 81 82 81 81 86 85 86 73 58 48 51 41 41 48 53 58 77 79 78 77 78 79 79 75 72 66 56 44 34 33 27 22 15 14
83 82 68 78 78 82 80 83 78 76 76 78 78 80 85 83 75 68 78 71 68 79 71 85 77 89 88 84 80 75 76 72 69 67 62 51 46 37 30 26 23 17 15
81 87 85 75 76 74 81 85 88 84 80 78 76 76 75 78 73 75 84 88 77 75 78 81 85 86 88 84 86 76 70 66 68 69 63 56 45 42 32 28 24 19 16
75 75 85 75 71 65 76 89 88 92 89 84 80 76 73 67 65 70 75 88 89 74 82 80 82 87 87 83 81 75 68 66 68 69 68 58 49 42 37 32 26 20 19
60 77 81 81 76 65 67 78 95 96 94 92 87 84 79 71 67 66 66 75 84 92 83 82 83 83 88 83 80 72 70 66 72 75 72 64 51 39 36 37 30 21 20
38 42 62 83 85 82 74 70 89 97 97 96 84 88 87 83 80 77 74 70 80 88 88 89 83 86 88 82 78 73 73 69 74 78 76 73 62 46 37 36 34 29 22
28 34 40 41 58 82 86 85 78 72 82 88 91 87 88 88 84 82 79 80 76 82 80 86 89 94 90 89 85 79 72 70 76 80 80 77 72 61 43 36 35 32 27
30 32 34 37 38 39 63 80 79 69 60 58 69 78 82 88 79 77 77 77 84 88 91 82 92 96 98 92 88 86 76 70 74 79 81 81 77 69 49 41 36 34 32
31 32 34 34 35 38 38 50 61 69 66 56 39 41 61 82 73 72 67 70 69 85 95 95 74 83 94 100 93 82 77 76 70 69 73 81 78 72 63 47 42 38 36
31 30 31 34 35 35 37 38 41 54 64 52 44 49 46 43 47 68 68 73 77 80 93 75 90 70 85 99 100 91 80 76 73 68 66 64 70 69 65 56 48 46 46
36 32 29 30 34 37 38 40 40 42 56 81 82 84 81 62 53 56 60 74 88 91 96 100 100 100 78 81 98 96 86 84 77 67 63 62 63 63 61 60 55 51 49
48 41 38 38 31 28 29 34 38 40 40 52 72 84 83 77 88 88 90 91 78 98 100 98 100 100 98 85 95 100 99 90 87 80 67 64 60 61 60 60 60 57 53

GFSSE_850_rhum_075.txt.gz
RH
86 50 45 54 57 57 68 74 76 76 80 82 82 82 83 82 82 81 76 73 53 60 60 49 46 42 39 37 36 37 37 36 29 19 16 17 21 26 33 61 85 88 88
68 54 46 54 60 63 69 75 76 76 78 79 83 84 83 84 80 80 75 76 58 72 51 51 45 41 32 22 22 24 28 29 30 22 24 20 20 23 26 25 68 68 67
55 47 54 58 62 66 68 72 70 73 78 81 87 90 84 83 81 80 76 72 87 91 64 47 47 46 28 19 22 27 48 64 63 55 64 49 37 37 39 37 35 36 41
56 51 56 65 64 66 67 69 76 79 81 87 92 91 89 89 90 81 62 53 81 91 77 70 69 54 27 22 26 46 79 89 84 71 74 87 66 64 76 81 83 86 78
62 51 59 68 69 70 72 76 80 82 89 89 94 96 97 95 70 47 32 30 74 92 88 78 75 71 31 28 35 63 81 85 87 83 90 93 82 90 91 90 84 86 87
59 53 63 72 70 75 75 76 84 90 93 94 98 99 99 74 50 25 18 22 52 93 84 84 81 77 40 34 41 80 93 89 80 74 90 91 89 88 89 85 82 75 82
73 58 60 83 76 76 78 80 86 94 96 98 65 30 32 38 19 17 23 25 56 91 86 92 91 71 48 40 48 83 90 87 86 82 81 87 85 80 72 63 50 46 51
76 78 57 71 83 72 76 86 90 87 95 89 23 23 21 16 15 20 27 34 63 91 94 93 84 66 52 37 47 80 87 86 84 83 80 77 68 69 54 41 35 33 43
82 87 56 64 82 78 79 90 88 95 96 85 30 21 17 16 16 39 57 72 85 90 85 77 80 62 50 30 48 66 77 85 83 85 82 77 62 64 51 37 32 26 27
88 87 72 82 84 84 88 89 93 94 82 95 67 53 23 18 21 30 65 63 58 72 76 72 66 53 44 28 46 52 63 81 77 80 79 78 55 54 46 34 23 18 17
86 83 76 74 86 95 97 96 97 96 98 100 95 44 33 21 19 21 24 31 40 43 58 52 50 45 35 33 41 49 69 84 87 84 84 79 61 44 45 31 19 15 14
84 86 73 74 79 96 94 94 93 88 93 91 76 37 35 24 21 20 20 26 29 27 34 40 42 35 28 35 41 49 68 84 86 86 80 76 61 42 37 30 18 14 13
86 84 80 73 72 78 88 86 84 81 72 66 64 51 51 34 32 23 21 23 26 26 31 36 35 28 31 38 43 50 71 82 86 83 74 66 53 40 35 29 21 15 14
90 85 89 86 79 84 84 88 86 68 65 65 60 68 52 40 45 45 37 33 25 28 34 34 34 31 39 48 55 61 78 83 85 82 67 62 52 41 34 30 22 16 14
85 92 92 85 76 83 82 80 76 69 77 75 65 65 71 50 57 60 48 38 30 28 30 34 35 35 47 62 71 70 69 81 84 79 68 66 54 42 34 29 23 17 13
70 81 83 80 78 78 78 78 76 78 84 81 73 78 79 67 68 66 58 49 54 48 49 48 53 65 72 72 76 78 79 78 72 70 68 64 57 45 38 28 25 20 15
71 70 73 78 78 78 79 82 78 76 77 77 76 78 80 81 79 73 60 59 66 60 58 65 71 78 90 91 82 81 76 77 74 65 65 65 59 52 42 35 28 24 17
75 69 64 73 78 80 82 82 84 85 79 77 75 74 75 75 78 73 63 63 71 74 73 66 72 78 84 89 84 87 83 73 69 66 65 67 64 58 47 41 34 28 21
68 72 68 68 60 65 82 83 88 91 91 88 80 77 73 70 72 72 69 68 78 85 82 75 69 71 80 86 85 83 81 74 68 65 67 69 68 64 54 44 37 33 25
42 62 75 79 86 79 71 78 91 89 91 92 92 80 73 72 70 68 66 67 67 72 79 86 83 74 72 80 88 86 82 77 71 67 68 74 72 70 65 53 40 37 32
33 38 47 63 80 84 83 73 79 87 85 86 90 82 78 76 73 74 72 71 75 73 72 79 88 90 84 83 91 92 84 76 74 70 69 75 76 74 71 66 51 40 38
24 27 33 40 43 60 64 78 74 75 78 81 79 74 76 75 74 79 75 71 70 81 84 80 87 92 95 92 91 92 86 81 77 68 67 73 78 77 76 72 64 46 42
28 30 32 34 39 38 44 51 62 73 73 75 69 68 73 74 67 70 85 88 81 82 84 83 79 87 74 86 92 90 86 83 72 64 64 66 75 79 76 74 68 56 46
28 28 28 30 32 35 38 39 40 46 54 54 55 57 52 55 67 71 76 81 83 91 90 87 88 75 73 73 91 98 92 82 73 71 67 66 72 80 75 69 67 64 56
30 27 27 29 32 34 33 36 39 41 50 75 81 79 71 70 70 65 61 64 75 86 90 96 95 95 86 84 85 98 100 96 93 84 76 73 70 74 81 76 67 68 71
36 36 35 32 30 32 36 38 40 42 44 48 52 78 86 90 86 78 72 93 97 94 92 95 91 94 97 94 96 99 100 99 93 96 86 82 76 74 80 79 75 80 74

GFSSE_850_rhum_078.txt.gz
RH
75 45 53 67 60 61 67 70 75 79 81 80 76 77 77 75 75 71 66 52 59 42 46 44 42 40 39 40 41 41 37 31 19 16 18 19 26 36 70 86 88 83 81
61 44 48 61 56 66 69 73 75 76 76 75 78 78 77 78 77 75 73 61 74 47 47 43 39 31 24 24 25 29 30 24 20 22 23 20 23 24 29 62 61 54 37
57 46 49 55 56 70 72 72 72 76 77 79 81 82 81 79 78 74 73 88 76 54 44 48 36 21 19 21 31 42 47 43 46 46 41 38 37 39 38 38 48 49 47
60 47 49 56 60 71 79 70 68 73 82 86 84 82 79 76 79 71 61 88 88 74 72 68 43 20 21 31 52 68 64 56 63 78 76 64 71 82 82 85 88 84 77
60 49 52 61 65 69 70 70 76 78 83 81 85 75 82 75 52 35 37 78 92 87 79 73 62 23 24 35 62 75 73 71 80 86 88 82 99 95 93 82 83 85 89
58 49 66 66 67 66 73 78 81 84 89 85 88 92 75 57 32 19 20 65 90 91 82 80 66 29 30 48 71 79 76 73 72 88 91 90 99 90 80 75 70 69 79
65 52 82 72 72 75 74 78 84 92 90 77 56 44 19 18 15 15 18 43 92 89 83 82 70 37 39 54 71 72 80 84 84 83 88 86 86 78 68 54 40 42 49
56 57 82 79 80 79 75 84 88 92 88 47 25 23 15 13 15 16 18 38 81 86 86 72 57 46 38 46 63 72 77 75 72 78 69 74 65 57 40 34 29 27 35
58 59 85 85 80 81 80 86 86 86 67 40 29 25 16 14 17 16 16 34 71 77 79 59 61 47 29 41 56 63 64 71 69 77 70 65 51 42 37 29 22 18 21
78 58 64 91 84 78 86 91 90 85 68 36 21 22 19 18 18 21 24 41 64 72 73 62 55 44 28 36 46 57 57 62 70 70 64 57 49 40 39 26 17 14 13
92 86 59 62 82 84 87 90 93 94 78 41 31 23 19 22 26 26 31 57 75 74 74 59 53 44 31 32 42 46 54 59 60 70 75 66 58 40 37 27 17 14 13
88 89 77 83 84 86 96 95 96 94 80 52 40 27 23 19 22 28 25 40 60 58 64 58 56 47 31 33 41 46 56 66 71 75 75 71 62 44 35 28 21 15 13
82 83 81 82 87 92 97 92 86 68 59 53 49 44 30 25 19 20 22 23 31 29 37 52 56 44 30 37 42 49 64 74 73 71 75 70 64 50 37 30 24 17 14
81 84 84 78 76 86 82 82 77 76 76 65 52 50 54 42 35 29 25 25 25 26 30 38 42 41 32 41 45 49 65 78 78 78 79 68 62 52 40 31 27 21 15
84 83 85 86 82 78 82 83 81 75 62 57 62 61 68 48 40 48 50 44 34 27 27 32 36 34 33 50 59 57 65 79 78 81 80 72 63 58 46 37 30 23 16
89 84 81 84 88 88 84 82 79 78 66 73 70 63 64 63 56 51 56 49 38 39 34 35 36 40 39 48 56 62 62 69 74 78 80 73 66 62 52 43 34 27 21
83 90 88 82 85 84 86 82 81 80 68 71 72 68 65 66 62 58 60 56 50 51 54 54 52 58 66 71 72 76 76 73 71 73 74 72 68 65 58 51 41 33 28
69 83 92 91 83 78 79 82 82 82 75 77 76 74 72 72 72 66 67 63 58 60 64 65 65 65 66 74 79 82 84 80 76 73 72 69 67 68 64 59 48 42 34
56 66 76 86 87 81 79 81 82 83 84 80 79 77 72 69 68 65 62 60 61 63 70 74 78 75 71 75 80 86 85 84 84 78 70 63 63 68 69 66 58 49 43
50 68 75 73 74 83 86 84 83 84 86 88 89 88 80 75 71 66 64 63 64 63 66 76 83 86 82 77 83 88 89 86 85 82 74 66 63 66 72 71 67 59 47
38 46 59 69 75 76 77 81 88 85 88 90 87 80 80 82 78 73 72 72 72 69 67 71 80 90 88 88 84 86 88 90 88 85 79 70 67 66 71 74 72 70 61
28 33 40 51 66 69 77 74 78 80 82 89 84 81 78 76 74 82 77 75 77 76 76 78 83 85 86 94 95 90 91 90 85 78 78 75 70 70 69 74 74 73 71
28 30 32 37 42 43 54 70 68 75 82 84 87 83 81 73 72 73 73 69 75 85 87 84 85 87 88 85 94 96 91 89 78 70 66 70 74 73 70 72 75 73 72
28 27 27 30 35 38 39 40 47 58 59 54 65 70 72 71 72 73 74 76 81 88 93 90 95 96 98 98 95 97 98 93 86 80 74 72 72 72 76 78 78 79 77
29 29 30 30 31 32 34 36 38 40 45 47 54 58 66 71 69 67 75 79 82 85 84 90 97 94 96 96 93 87 92 99 95 92 89 88 88 82 78 83 88 91 90
31 30 28 26 25 26 31 34 37 40 41 46 50 50 49 51 64 84 83 77 72 62 85 88 99 97 89 92 99 99 95 97 92 96 89 94 95 91 89 85 83 90 96

GFSSE_850_rhum_081.txt.gz
RH
68 76 67 69 62 69 71 72 72 72 72 71 67 67 69 64 62 57 52 46 42 46 46 45 45 46 47 49 49 42 35 26 17 15 18 21 31 70 85 90 78 75 54
47 57 65 64 57 64 69 70 73 76 75 72 73 71 73 69 67 65 64 46 41 42 40 37 33 31 30 31 31 29 25 18 16 18 21 23 24 42 66 59 48 34 35
45 54 62 58 55 62 66 72 72 70 71 73 75 78 78 74 76 72 78 66 40 37 39 29 20 18 20 22 25 27 26 28 33 35 35 38 41 40 47 68 71 60 66
45 50 56 51 52 61 68 70 70 73 76 80 81 78 72 67 62 64 89 80 71 65 58 30 17 18 21 30 33 38 40 52 71 63 63 77 85 85 89 83 89 80 86
44 46 60 51 54 66 71 70 73 82 85 88 88 72 67 52 41 43 83 88 82 78 67 45 21 21 32 34 40 43 65 79 86 80 86 99 98 95 81 82 85 90 87
54 45 75 57 60 72 71 71 79 88 91 91 83 69 50 44 29 24 62 91 86 80 76 61 25 25 31 34 39 46 59 74 82 87 89 97 86 72 70 65 60 75 91
57 52 71 65 64 71 67 74 90 86 96 93 89 50 26 28 17 16 39 80 82 80 73 68 35 29 33 41 49 56 70 76 79 82 86 86 84 76 59 46 34 35 55
54 52 76 73 69 68 72 77 93 92 95 86 60 24 16 13 14 14 24 74 77 80 76 62 42 30 37 48 53 62 73 69 71 74 70 72 62 45 37 32 28 26 32
64 62 78 74 75 76 74 80 84 86 80 71 52 29 14 14 15 15 19 61 74 76 71 59 44 33 43 54 63 71 70 67 65 63 59 52 43 37 35 29 20 16 18
72 74 80 79 82 80 79 85 87 89 78 34 22 21 16 18 18 17 19 54 70 71 70 57 49 40 40 54 72 70 66 66 65 63 59 55 48 37 35 27 18 14 13
74 75 84 80 82 83 84 89 91 84 63 33 19 16 16 19 23 24 31 57 73 72 69 58 53 48 32 52 68 63 58 62 62 66 65 66 59 45 36 30 23 16 14
73 71 83 91 82 80 87 93 93 87 73 44 27 21 18 18 21 25 26 42 69 68 72 63 58 54 39 38 50 53 62 61 67 69 72 74 67 54 39 34 26 20 14
79 84 70 70 82 80 86 92 92 82 65 53 48 37 28 20 21 22 24 25 38 38 39 44 46 46 38 34 43 50 59 66 69 71 73 78 73 60 48 38 30 24 17
84 85 83 72 88 86 89 98 89 78 67 59 52 57 44 35 23 22 24 24 27 32 34 37 45 44 33 32 38 46 54 68 72 70 73 74 72 68 61 47 36 29 22
76 79 80 84 92 89 88 85 80 75 78 75 65 62 56 51 39 38 35 34 34 32 28 31 38 39 34 32 40 44 47 58 68 74 76 75 74 71 65 59 43 34 27
74 76 81 81 81 88 86 77 80 82 79 70 66 64 59 58 50 47 52 48 44 39 31 29 33 36 36 34 43 51 59 61 62 67 73 75 73 73 67 64 55 44 33
75 81 79 82 81 81 83 84 86 82 83 73 72 69 64 65 64 60 58 56 53 50 50 46 45 44 48 50 51 59 65 64 65 65 71 77 76 74 69 68 62 57 45
74 82 86 85 87 84 82 85 84 84 83 74 75 75 72 69 70 68 65 62 63 58 59 58 60 60 59 61 63 68 76 78 79 76 77 76 75 73 69 68 68 66 58
63 78 87 92 92 88 83 84 85 85 84 77 75 75 73 74 72 68 66 66 69 66 62 65 69 73 75 74 73 74 79 80 83 84 79 78 77 72 67 65 69 70 67
53 70 82 86 92 88 87 87 87 85 83 82 76 78 80 81 74 70 67 67 71 70 67 67 68 76 79 85 87 84 82 84 88 87 84 84 82 77 71 67 67 73 72
45 52 66 76 82 93 94 90 88 84 84 80 77 76 79 81 79 77 68 70 73 71 68 72 74 76 79 87 97 93 89 86 85 84 87 86 84 82 76 70 69 70 74
37 41 47 65 78 85 90 90 91 86 86 85 84 81 82 77 76 76 75 73 77 80 78 77 79 80 82 88 99 97 93 86 88 80 76 78 80 85 81 77 74 71 73
28 35 37 44 51 64 67 73 75 79 85 90 90 87 74 65 72 77 76 80 83 88 88 88 89 89 88 89 94 100 92 82 84 77 76 75 75 73 78 77 74 72 74
27 31 32 40 46 48 45 49 62 78 78 74 74 77 78 78 75 78 78 79 83 88 92 92 90 91 95 90 90 94 96 98 99 94 89 83 80 77 80 84 79 74 76
31 30 30 31 34 39 39 40 41 42 44 48 55 62 69 77 79 84 85 78 70 76 82 83 85 96 87 88 86 83 89 95 100 100 100 96 91 85 86 88 88 83 80
30 30 30 30 31 32 32 33 35 36 38 39 42 48 53 57 60 63 68 70 77 79 77 71 85 87 92 92 98 94 96 99 98 99 100 96 98 88 93 91 93 96 94

GFSSE_850_rhum_084.txt.gz
RH
65 66 71 70 69 67 67 70 71 71 70 69 65 63 62 54 48 47 34 30 34 35 41 48 54 54 52 51 46 38 31 21 16 18 22 34 71 84 83 77 63 35 31
48 63 67 67 63 68 67 71 72 73 73 69 67 66 60 58 54 58 36 33 36 37 35 34 33 34 34 34 33 27 20 16 17 20 23 24 45 54 44 39 41 50 48
47 62 68 70 61 67 70 70 74 78 74 70 70 68 64 70 63 68 57 31 31 30 26 24 22 23 24 25 23 21 23 29 30 33 36 40 49 70 85 81 74 77 73
48 66 70 72 59 65 68 71 74 71 72 73 72 77 67 71 71 80 75 63 50 42 21 15 15 17 20 23 27 35 50 59 55 61 74 82 94 98 82 84 93 90 89
47 70 79 63 63 67 70 70 69 71 74 80 76 64 56 56 54 84 81 76 75 56 31 17 17 19 26 34 38 55 72 81 72 94 99 98 99 95 82 78 84 87 82
50 67 83 66 75 70 69 67 71 81 86 82 76 54 38 33 36 64 86 83 78 70 42 22 21 24 32 42 48 70 76 81 83 88 98 92 76 68 60 53 54 80 85
55 87 87 84 86 74 71 67 82 87 92 85 80 53 34 32 23 34 86 84 80 73 55 32 28 32 41 48 54 65 68 72 80 84 87 86 79 54 35 33 29 32 68
48 84 89 85 86 78 70 70 89 90 98 98 96 34 26 22 18 19 70 75 74 72 59 39 30 36 44 50 57 64 64 67 69 68 65 67 54 41 34 28 21 19 25
63 67 93 85 81 74 70 78 86 88 86 84 71 49 26 18 15 16 53 72 70 69 55 42 34 36 43 51 60 64 64 65 71 65 61 56 46 38 38 27 18 14 14
68 71 86 85 81 75 83 82 89 84 76 67 47 31 26 20 18 18 34 64 70 69 57 54 47 33 43 51 56 63 62 65 66 64 64 63 59 48 36 31 23 16 13
75 71 87 78 81 80 82 84 86 84 83 64 25 22 15 19 18 17 32 77 74 70 64 60 53 43 37 46 54 57 60 64 65 68 71 69 67 58 42 34 28 21 15
85 87 86 76 77 82 82 86 91 86 77 53 27 18 18 20 23 23 25 51 69 65 60 53 51 44 33 34 49 56 56 60 66 70 72 71 69 63 56 44 35 28 20
84 84 86 81 78 81 82 87 89 86 73 55 42 35 21 21 23 28 30 33 47 56 55 55 50 48 43 31 34 43 51 55 60 64 70 75 75 68 63 58 46 35 27
73 71 77 84 81 81 80 85 91 83 66 58 54 50 36 28 22 25 29 28 33 40 38 39 46 48 43 32 34 39 47 55 59 63 66 73 78 77 70 67 60 46 35
78 82 79 80 86 85 80 85 80 75 69 62 66 61 58 50 45 26 25 26 26 30 32 32 39 45 45 36 34 40 46 51 56 64 67 69 74 76 74 71 67 60 50
73 77 82 83 74 88 88 88 78 72 72 80 74 67 63 58 61 44 45 47 47 40 39 33 32 36 39 37 33 43 53 59 61 63 65 68 69 73 74 73 70 67 62
62 66 71 74 86 93 91 89 82 81 84 85 74 72 70 66 65 55 53 56 58 50 49 46 42 43 41 46 44 44 52 61 65 66 68 69 72 74 74 74 73 70 68
62 67 76 79 76 80 84 88 84 87 87 86 77 79 74 68 68 69 65 60 67 64 58 58 58 57 58 59 60 63 64 65 66 72 73 75 76 79 78 75 70 68 70
63 62 69 83 81 82 79 83 85 88 88 86 79 78 80 77 74 72 70 68 71 71 67 65 66 68 71 74 78 79 75 73 72 76 77 79 80 81 82 81 75 69 68
63 68 71 69 79 76 85 88 88 89 90 87 83 77 77 77 77 75 70 70 72 74 75 74 72 73 73 78 83 84 84 84 82 80 80 82 83 87 88 87 82 75 69
53 51 67 84 85 86 82 87 87 85 80 83 81 80 76 75 78 82 74 72 73 73 72 79 81 79 77 80 87 81 85 91 92 85 84 82 82 85 89 89 86 78 72
43 48 62 79 87 90 91 89 84 78 82 83 84 85 79 75 71 73 71 72 75 80 80 81 83 83 84 84 90 93 95 81 78 79 78 78 76 75 76 76 81 81 77
32 38 48 64 80 85 90 90 91 91 89 88 89 87 73 64 67 71 75 77 81 86 86 87 89 91 92 92 93 98 100 85 82 78 74 74 76 80 79 76 75 78 78
26 29 35 43 62 76 78 83 81 79 74 73 75 75 81 84 78 79 83 87 89 88 82 81 87 92 96 93 88 83 87 92 100 97 93 90 92 91 92 90 88 90 86
26 27 31 35 42 52 61 71 74 66 67 74 80 76 71 70 76 77 77 77 76 75 76 73 78 90 94 100 100 95 86 94 100 100 100 90 92 96 91 87 87 86 88
32 35 35 35 36 41 49 54 46 42 42 45 48 50 54 60 62 71 74 70 74 74 71 70 80 81 81 90 90 87 100 100 98 100 99 91 99 90 86 85 86 95 98

GFSSE_850_rhum_087.txt.gz
RH
70 73 74 67 64 68 69 69 68 67 65 66 62 58 49 45 43 30 27 28 43 70 56 52 56 53 47 43 37 31 22 16 16 22 45 74 82 67 54 39 41 35 26
56 67 74 72 66 69 70 70 70 68 69 65 61 56 49 48 48 29 32 33 34 34 32 33 33 33 32 32 26 19 16 16 20 23 28 44 44 46 62 63 69 62 31
53 68 78 72 70 68 71 72 72 72 72 67 64 60 60 53 59 33 32 31 30 27 26 26 25 25 24 21 20 22 27 29 33 38 46 70 87 79 78 87 87 81 64
46 63 79 68 69 70 71 73 73 76 70 69 66 61 65 63 70 64 47 43 33 18 14 14 16 18 20 23 32 44 48 56 63 78 94 96 89 80 85 90 83 80 76
49 63 74 67 67 72 74 71 74 70 79 87 83 68 73 60 79 74 71 64 45 20 15 16 18 24 28 34 46 70 73 74 97 99 97 90 82 78 73 58 80 82 88
52 64 84 66 75 70 82 92 78 76 85 89 74 65 50 44 79 82 77 73 62 30 19 20 25 32 37 48 65 74 82 85 93 95 88 84 77 56 43 42 50 84 91
56 72 84 70 75 71 80 82 83 93 92 81 62 50 31 28 47 83 82 78 65 46 25 27 32 39 45 51 59 66 74 83 86 86 80 74 49 37 30 26 24 36 56
66 80 82 81 82 74 75 74 84 93 97 98 94 53 42 24 24 78 78 74 67 56 35 30 35 40 43 49 56 59 60 62 62 59 57 47 39 36 32 22 16 14 16
73 89 81 84 89 80 72 72 86 90 98 99 88 46 38 21 18 51 77 69 69 61 46 35 33 38 45 51 55 57 57 58 59 53 52 52 51 41 35 28 20 15 14
79 90 86 89 91 85 73 73 88 86 77 79 58 36 29 24 19 32 68 69 73 65 57 46 35 37 43 51 55 55 57 58 60 61 63 62 60 52 39 34 26 20 15
92 94 91 87 91 85 80 79 89 85 72 67 39 26 17 18 17 21 65 75 85 70 56 53 45 34 34 39 48 51 52 55 59 65 68 69 65 61 55 43 35 28 20
97 94 92 89 88 83 81 80 85 83 69 50 27 20 17 22 21 21 38 69 69 69 64 57 54 46 36 33 41 49 49 51 58 64 68 70 71 64 62 60 50 38 28
100 99 98 90 86 85 81 75 78 77 69 46 27 22 19 23 26 26 30 48 53 64 64 62 56 53 44 37 32 42 47 51 58 64 68 73 75 69 65 64 62 54 40
100 100 99 90 87 89 84 76 75 69 66 54 38 37 27 22 26 31 33 34 44 48 50 49 54 54 50 45 33 35 42 48 55 62 68 74 78 78 70 66 64 64 58
90 84 98 95 88 90 90 83 82 78 70 59 54 53 46 34 32 26 30 31 29 33 38 38 40 45 48 46 35 35 41 47 52 56 64 70 72 76 75 71 69 67 66
77 77 77 80 84 89 89 85 87 82 74 69 72 74 63 60 59 52 32 32 36 40 39 38 34 34 40 42 41 35 43 52 60 64 67 70 69 70 72 74 74 70 68
71 75 78 83 84 94 91 87 85 80 79 80 80 76 68 64 63 64 47 50 56 56 45 46 40 40 42 43 47 43 46 54 64 71 72 74 74 73 74 76 78 76 71
72 70 72 75 78 85 84 90 89 83 84 86 86 78 75 70 67 67 62 58 62 64 58 54 57 55 57 58 61 64 65 68 70 71 71 76 78 79 82 83 83 80 74
63 64 68 74 75 75 88 92 91 88 88 88 88 80 77 76 74 72 71 70 71 69 67 64 62 62 66 71 75 78 77 75 76 78 78 80 81 83 86 88 88 84 78
60 60 60 62 75 79 77 79 90 93 91 90 88 83 76 77 76 76 74 73 76 75 73 71 71 72 73 76 76 76 77 79 82 83 83 81 80 83 85 87 90 88 83
58 61 62 63 63 68 77 82 84 84 86 85 82 83 81 79 78 77 79 76 75 73 73 77 80 80 79 80 84 79 77 79 80 74 75 71 73 77 76 77 81 86 85
56 48 43 46 47 36 62 65 78 81 78 78 80 82 84 80 78 78 75 78 80 82 82 81 82 83 85 86 91 91 90 80 78 73 67 68 71 72 72 80 78 78 80
36 42 36 43 46 51 54 70 77 86 84 74 82 78 77 68 70 75 73 76 78 81 78 85 88 89 90 91 94 97 99 88 83 83 79 75 82 85 86 83 89 85 82
30 29 34 35 48 58 61 72 76 77 75 81 84 81 85 87 78 80 80 77 79 81 79 78 82 81 91 92 94 85 90 96 98 93 88 89 84 89 87 94 91 92 88
33 30 28 32 40 52 64 68 69 83 81 75 76 78 82 81 80 78 75 76 75 76 74 73 76 77 79 93 98 95 97 100 99 100 99 97 87 80 86 87 84 84 77
30 29 27 27 34 43 56 67 67 70 75 68 55 54 61 76 74 69 66 66 69 71 74 81 80 71 76 89 88 86 90 93 95 99 97 89 91 87 82 86 80 81 72

GFSSE_850_rhum_090.txt.gz
RH
95 82 61 58 64 72 75 73 68 66 63 63 58 52 45 42 36 34 54 94 93 91 81 70 62 49 39 34 28 19 15 18 31 57 79 68 48 45 56 63 67 45 48
93 84 65 60 64 69 71 70 69 67 67 61 54 48 44 36 30 30 30 34 42 42 36 36 34 32 30 22 16 15 18 21 24 36 46 59 75 74 84 81 65 40 32
90 96 70 64 66 70 71 71 70 70 69 62 56 53 50 42 30 31 31 30 29 29 28 28 27 25 19 18 22 25 29 33 42 62 93 100 85 89 86 76 76 67 76
92 98 93 68 67 70 72 73 74 74 71 66 57 60 58 62 35 34 30 22 16 16 17 19 20 19 22 30 36 44 52 63 81 91 98 100 98 86 64 75 76 85 88
94 100 97 76 67 71 72 75 77 78 73 71 65 72 63 72 64 62 48 28 15 14 15 18 22 25 28 44 64 66 77 84 94 86 97 98 96 60 53 75 82 91 86
91 98 90 86 74 76 77 78 78 80 87 85 76 71 55 84 76 72 58 36 17 16 19 24 29 34 48 65 72 75 79 85 97 99 98 88 54 30 30 32 64 88 88
88 96 84 85 78 79 88 89 81 82 93 91 78 58 48 86 87 74 64 46 24 22 24 30 37 43 50 58 64 74 80 79 98 95 93 87 38 31 22 18 21 44 57
97 100 84 78 79 80 86 82 81 92 97 98 93 43 34 55 91 80 70 58 39 25 29 35 43 47 53 59 57 60 57 54 87 87 77 48 36 33 26 20 15 13 15
100 100 95 79 84 84 83 75 81 90 96 94 95 47 42 30 75 88 80 71 55 38 30 37 44 48 52 55 54 54 54 52 84 80 91 89 45 36 33 27 22 17 14
96 100 100 99 90 87 84 73 82 83 96 88 74 58 36 29 43 95 94 86 67 54 42 33 35 41 46 51 52 51 54 56 87 82 93 61 55 51 43 36 31 24 18
98 100 100 100 98 98 99 83 87 84 72 73 61 35 23 20 21 72 98 99 88 65 57 48 40 33 41 46 50 48 52 77 88 86 94 64 60 59 57 53 44 33 25
100 100 100 100 100 98 100 91 97 88 75 57 31 25 23 22 23 48 67 76 91 68 58 55 53 48 37 48 45 50 74 61 66 72 94 67 67 66 64 62 59 50 38
97 98 95 90 99 99 93 97 100 100 96 70 33 21 18 23 22 21 47 82 81 70 67 66 58 62 52 45 35 53 52 55 75 68 70 66 70 70 68 66 64 63 58
96 95 92 87 96 99 98 98 100 99 96 74 38 29 19 23 26 38 65 83 88 76 82 83 94 78 56 51 42 37 38 45 52 57 79 66 70 75 71 68 67 65 65
99 97 97 93 91 97 97 99 100 99 85 83 56 42 33 24 27 43 77 83 89 88 90 73 55 68 63 58 46 33 34 41 47 55 68 64 66 69 74 72 72 70 67
99 98 98 98 99 91 96 98 100 100 96 76 66 58 55 45 39 33 39 42 43 34 43 49 53 40 43 47 47 37 34 44 54 60 68 73 70 69 72 77 81 78 72
86 89 98 94 99 90 96 98 99 99 98 86 76 78 72 61 59 61 50 36 42 50 54 45 45 37 37 38 43 47 44 52 59 66 70 74 76 75 77 78 81 84 83
91 80 79 88 85 92 95 97 98 97 90 88 87 86 72 67 64 65 64 49 57 60 61 52 54 53 53 55 58 62 62 65 68 72 72 74 76 81 81 82 84 86 87
67 71 76 80 76 80 90 92 92 96 96 95 91 90 78 77 70 68 70 69 66 64 67 65 60 61 64 66 69 73 74 76 77 79 81 82 80 79 82 85 87 89 88
61 66 71 78 73 81 82 89 90 91 93 97 95 92 80 78 78 75 74 75 75 73 71 70 71 70 70 70 72 72 74 74 77 78 79 72 69 72 77 79 83 84 87
65 58 64 67 81 82 80 83 86 86 86 89 89 87 86 79 80 80 78 78 75 74 73 75 78 78 76 76 81 80 80 76 77 79 74 72 69 67 68 73 78 81 84
63 60 60 62 68 70 71 70 75 77 75 77 84 83 87 85 83 79 79 79 81 80 79 80 79 81 80 82 88 97 93 82 87 83 74 71 75 74 77 80 81 82 82
62 66 58 51 49 47 51 52 60 66 66 71 72 71 72 69 72 77 80 81 82 83 82 83 86 85 89 88 91 97 96 87 82 83 81 84 78 85 86 81 88 86 87
36 34 50 48 49 48 48 51 56 59 54 54 64 76 79 80 80 81 80 82 81 82 81 81 83 82 90 88 88 90 96 95 91 94 89 86 79 84 89 81 89 88 85
38 41 35 32 47 48 44 43 56 54 53 58 60 65 75 74 80 74 74 76 79 81 79 81 79 81 80 84 89 91 93 88 92 99 98 87 84 86 89 86 90 85 82
39 38 39 36 30 40 45 42 51 50 58 51 50 62 70 63 68 79 80 75 69 70 69 70 76 80 84 86 84 94 97 99 91 90 95 96 95 85 83 79 84 86 88

GFSSE_850_rhum_093.txt.gz
RH
91 65 62 63 68 73 75 74 67 64 62 61 53 43 40 38 40 95 96 96 96 93 80 69 54 38 33 24 17 17 25 43 71 64 45 61 70 78 69 53 70 44 65
89 63 56 62 68 73 74 70 66 65 66 59 50 44 30 29 29 51 93 93 85 58 38 33 31 29 19 15 15 18 21 28 42 71 82 82 85 77 76 64 52 45 39
88 84 58 64 69 72 71 69 67 68 66 59 51 49 29 32 33 32 30 31 32 30 27 26 24 17 18 22 25 28 32 48 88 96 95 92 86 76 71 74 81 84 79
86 95 91 66 68 70 71 71 71 72 68 59 56 58 32 29 28 25 23 22 21 20 20 20 19 24 30 35 42 48 71 84 84 97 92 91 90 59 76 83 88 85 80
88 90 94 74 69 70 71 73 74 76 75 72 69 76 63 52 45 34 16 14 14 16 18 22 24 34 53 58 67 73 88 84 88 90 83 89 74 46 60 82 89 85 84
87 86 86 91 81 73 73 75 78 76 76 76 79 72 80 69 62 46 21 16 17 21 25 28 34 47 61 65 71 77 79 96 94 89 90 44 28 25 25 35 72 81 78
82 95 84 88 84 81 77 75 78 80 83 85 78 64 88 79 66 56 36 20 22 26 30 34 40 51 56 60 69 77 76 89 87 88 82 36 29 21 17 14 16 20 32
79 92 88 86 81 81 87 85 78 85 88 92 73 51 88 86 76 66 49 26 26 29 34 39 43 48 52 53 54 54 53 79 85 91 71 39 31 29 24 19 15 13 13
80 88 99 86 86 85 89 86 84 91 90 85 39 37 53 87 82 77 60 42 27 31 34 40 42 47 48 48 48 48 47 71 89 92 90 52 42 37 33 28 24 18 15
82 98 98 99 87 88 93 86 92 90 84 82 55 38 29 57 96 84 70 58 45 34 32 36 38 42 43 44 44 48 53 83 91 93 78 54 51 51 48 43 34 26 21
89 96 93 98 99 98 98 86 93 93 92 74 61 44 28 28 73 95 90 82 65 50 42 34 30 35 40 43 44 45 64 88 87 91 90 59 57 56 56 55 51 40 30
79 94 93 99 99 97 89 91 95 95 83 82 60 35 58 71 65 96 80 81 84 61 52 47 41 36 34 61 43 47 83 80 86 88 81 57 59 60 60 58 57 56 50
83 86 91 96 99 95 94 96 94 98 92 90 85 75 72 78 64 87 90 91 97 72 57 52 52 51 71 71 77 80 77 79 79 86 72 57 58 60 63 62 60 59 61
91 91 92 99 92 100 98 99 90 88 84 85 78 67 74 79 59 76 93 95 96 96 99 94 97 95 69 56 70 65 71 74 78 81 82 59 58 61 68 65 66 63 62
89 97 99 96 98 98 98 100 88 88 86 86 84 70 66 74 77 74 80 92 95 96 96 96 93 92 95 92 77 48 47 60 73 69 80 64 60 62 67 79 73 70 67
86 91 97 96 99 95 97 98 93 87 90 90 91 86 72 69 75 82 86 89 90 92 91 91 89 86 86 88 85 73 51 53 48 61 68 78 67 68 68 72 81 81 80
93 92 93 90 84 98 97 98 98 96 90 93 92 94 81 82 75 75 81 86 84 87 83 86 87 66 76 75 74 76 67 67 74 71 71 76 86 70 74 75 77 85 90
92 98 98 98 92 92 99 99 99 95 97 97 92 93 89 91 79 71 72 72 78 84 74 84 82 85 77 82 81 82 67 64 69 83 88 77 76 78 78 79 82 84 85
86 93 98 95 91 91 90 97 98 98 97 93 90 92 97 97 94 79 82 84 75 77 71 72 76 82 88 84 78 76 79 76 84 83 74 82 89 76 79 92 84 87 88
87 90 89 93 84 79 90 94 90 92 99 94 91 92 97 96 97 82 93 96 91 78 68 73 77 75 66 83 87 68 70 74 79 76 88 90 90 82 69 78 81 77 82
61 87 95 79 79 77 83 88 97 91 93 95 97 97 98 99 98 98 96 98 98 90 86 89 82 75 74 72 77 75 77 76 76 84 90 91 88 84 73 74 80 81 92
52 61 73 91 77 72 83 81 82 81 89 89 83 85 88 89 88 85 86 87 96 98 88 91 84 78 77 84 81 95 91 85 86 83 87 83 81 80 79 79 86 86 85
54 61 64 73 85 68 67 71 86 86 79 80 80 81 84 82 79 84 82 81 83 84 83 84 84 82 83 86 85 90 96 88 81 81 81 81 84 85 79 85 89 89 88
65 64 66 64 71 68 61 61 58 60 64 66 64 65 62 72 73 71 70 75 80 80 80 82 84 85 86 90 97 88 92 97 93 82 82 84 84 85 83 88 90 88 90
52 59 59 53 54 49 51 54 52 53 60 67 62 65 62 54 54 68 69 65 66 82 78 83 86 86 88 88 95 98 89 93 93 87 78 77 90 82 85 88 89 89 87
43 41 41 40 44 54 60 49 60 57 54 57 65 74 55 42 46 64 66 59 63 67 74 78 81 86 88 90 88 96 99 90 96 96 96 94 88 96 88 81 84 84 83

GFSSE_850_rhum_096.txt.gz
RH
82 62 65 63 65 70 73 73 65 62 61 50 42 38 33 67 96 95 94 95 93 85 67 46 31 28 18 15 21 49 75 59 69 75 82 76 79 61 47 38 39 48 52
78 61 63 63 68 71 73 67 65 65 57 47 42 28 31 47 97 96 97 94 80 50 33 28 25 14 14 16 21 33 47 76 87 87 90 75 72 69 73 80 74 43 48
67 61 60 64 69 72 70 68 68 67 58 47 44 28 29 30 52 85 80 56 32 27 26 21 14 17 22 26 28 52 93 94 94 90 87 58 77 71 82 85 84 77 46
60 56 59 65 70 72 70 70 70 66 56 49 47 26 29 31 30 30 29 27 24 21 18 17 22 28 35 42 67 85 84 87 89 85 88 56 67 84 91 87 84 83 71
74 58 60 66 71 70 71 71 73 68 55 52 60 40 36 34 22 16 15 15 16 16 20 27 40 47 57 64 85 78 83 88 88 70 63 30 32 40 69 86 81 87 87
89 82 62 70 72 71 73 74 75 71 66 57 70 65 62 47 25 15 15 15 18 22 26 44 50 56 62 69 74 70 77 84 89 54 28 22 18 16 20 30 47 63 67
89 88 77 80 80 78 76 77 76 74 70 72 86 78 68 58 36 17 16 20 26 30 33 44 49 52 59 63 66 70 89 88 75 37 29 26 23 19 16 14 13 14 18
84 90 88 85 82 79 78 80 80 82 84 74 68 90 74 63 49 24 20 23 28 32 34 40 42 44 48 50 52 56 75 79 74 66 39 31 29 28 25 21 17 14 13
78 83 85 85 85 84 85 84 81 88 94 89 54 84 84 66 60 42 25 26 29 32 36 40 41 40 40 42 45 48 68 66 85 77 50 44 42 40 36 31 25 21 17
84 79 83 84 85 89 87 85 86 95 93 82 44 55 88 79 76 58 46 33 30 32 34 37 39 39 39 42 45 48 71 87 92 80 59 51 48 48 47 45 39 30 25
87 83 80 88 82 87 86 86 93 92 80 64 57 44 42 81 84 74 71 57 40 32 29 32 36 38 40 41 40 47 67 86 86 84 70 55 53 50 49 49 50 47 39
84 90 85 91 85 89 90 84 91 92 83 69 57 41 36 36 71 77 57 55 50 46 39 36 33 31 37 43 46 52 72 81 78 74 65 53 54 53 50 51 51 54 54
81 91 83 90 92 96 86 85 88 91 78 81 58 54 73 70 60 99 68 62 49 41 45 46 45 45 45 66 62 62 78 82 81 81 67 60 53 52 53 54 55 55 56
77 79 83 92 87 92 80 87 87 90 89 91 83 67 76 74 69 77 74 58 49 53 52 50 78 74 58 48 53 56 64 75 68 78 72 68 57 56 55 59 60 62 59
76 78 79 94 92 91 89 86 83 84 86 85 78 66 65 73 52 69 82 78 68 76 72 74 93 93 72 70 61 47 46 51 65 64 59 64 64 63 62 60 66 72 73
82 82 82 86 93 83 98 91 84 81 83 87 84 63 66 72 76 75 81 88 90 94 94 95 86 73 80 76 78 74 52 44 49 56 62 66 68 68 68 69 70 76 80
80 82 83 89 93 96 86 92 88 87 84 85 88 73 59 68 76 79 84 88 86 87 80 75 82 76 61 70 66 68 74 60 66 63 66 69 69 68 71 75 78 80 85
79 84 88 81 89 93 91 91 95 90 86 88 91 87 71 72 64 62 72 81 70 79 67 69 61 53 51 59 62 67 70 62 61 67 81 79 75 72 75 77 79 84 84
81 82 88 87 82 84 91 95 93 98 91 92 94 93 91 86 84 73 68 72 69 71 64 63 61 61 68 69 71 69 70 67 67 71 76 80 81 84 77 72 75 83 83
87 82 83 88 93 88 89 93 96 92 94 89 90 85 90 89 84 85 88 87 84 75 65 60 64 66 64 71 70 69 64 65 68 68 74 85 92 90 79 72 74 80 80
83 90 80 80 82 95 97 91 89 90 91 93 90 88 84 85 97 88 81 94 99 89 78 75 75 72 66 68 72 69 69 71 72 76 77 84 88 89 87 78 80 85 87
75 75 75 68 81 77 74 72 87 88 91 87 91 90 87 86 92 97 88 93 100 98 94 89 92 79 75 74 74 81 85 77 80 83 86 91 90 89 85 83 81 86 86
82 85 77 70 74 69 70 79 78 87 92 94 90 81 83 88 86 81 82 80 84 94 92 84 86 84 78 82 83 86 92 88 85 84 89 88 82 82 87 87 86 90 90
79 74 71 81 81 70 72 80 73 75 79 82 89 93 89 86 85 82 81 79 78 81 78 80 81 77 78 78 94 89 95 94 92 90 87 85 81 84 88 93 91 89 87
71 71 59 68 84 82 75 71 76 74 72 72 74 70 75 73 67 62 68 68 63 58 60 67 78 83 76 89 94 92 93 98 100 100 99 96 91 89 95 92 93 92 86
55 71 64 61 67 71 64 63 63 64 65 73 71 67 63 66 72 68 64 70 69 58 57 59 62 74 72 83 93 99 98 96 90 99 98 96 100 99 93 96 96 91 83

GFSSE_850_rhum_099.txt.gz
RH
80 75 65 66 69 70 72 66 60 57 45 36 29 54 94 92 89 89 93 93 85 67 42 27 23 16 18 36 74 55 66 80 86 74 67 64 63 68 55 41 45 82 85
75 70 67 64 67 71 70 64 62 52 39 35 27 44 97 95 96 96 92 87 60 36 25 20 12 14 21 36 50 73 76 86 86 63 67 72 77 81 83 72 43 67 84
67 64 66 63 68 71 66 65 62 49 42 34 24 29 86 95 95 92 86 61 28 24 17 13 17 22 28 79 89 84 87 84 79 55 74 75 94 86 84 81 61 46 55
62 60 60 63 67 67 67 68 61 46 45 25 26 23 31 71 81 68 40 23 22 16 16 21 27 35 72 85 82 82 82 82 72 55 43 58 93 83 82 88 86 83 88
63 59 62 65 68 67 70 70 62 48 50 24 22 22 22 24 26 23 20 18 15 18 24 34 44 63 83 84 84 84 82 70 49 32 23 22 22 46 58 62 57 60 88
59 60 65 68 69 70 72 81 68 53 60 50 39 32 19 13 12 13 15 17 20 27 44 51 59 69 82 73 74 82 74 50 33 25 20 18 16 14 15 16 16 24 36
59 63 70 71 74 72 80 74 68 63 64 69 57 45 26 13 13 14 18 22 24 47 49 53 57 63 62 61 70 81 69 53 34 29 26 25 23 21 18 16 14 14 15
71 66 75 79 86 76 76 73 72 67 70 85 76 56 38 20 17 19 23 27 29 37 43 46 48 53 55 51 60 64 61 56 48 40 36 33 32 30 27 22 19 16 14
88 73 79 84 83 80 83 79 79 80 71 83 85 68 46 32 21 23 26 30 30 35 38 38 38 38 39 42 57 60 66 57 54 48 46 44 45 44 40 33 27 23 19
82 79 86 84 84 83 86 83 86 95 83 60 87 86 60 44 32 24 27 28 31 34 34 35 35 38 40 42 50 61 72 65 60 59 50 48 47 48 48 48 44 37 29
74 74 82 86 86 89 89 86 91 98 76 52 61 85 72 61 52 40 30 26 28 32 32 33 34 36 38 41 50 66 79 72 68 56 54 49 50 49 48 49 50 51 47
87 79 78 82 86 91 87 91 95 84 49 42 36 38 61 69 60 53 42 34 30 28 28 28 30 32 36 41 50 65 74 72 72 59 55 49 49 50 50 51 50 50 52
85 81 83 83 85 86 88 90 90 80 60 58 45 31 32 45 65 52 38 36 37 37 38 37 35 35 39 44 52 63 73 79 72 69 60 61 53 53 53 54 55 54 53
86 74 80 80 89 88 86 83 88 82 68 60 49 61 48 42 46 61 50 37 34 36 40 44 47 54 46 40 44 50 59 68 65 66 59 59 58 58 59 60 63 66 68
84 76 80 85 86 89 84 84 83 84 80 83 69 70 64 67 54 48 48 53 50 46 44 53 58 58 66 57 57 48 42 46 55 52 53 57 62 64 65 65 66 69 74
78 79 78 87 86 76 81 85 79 87 86 88 78 61 70 64 52 48 54 65 66 66 72 76 69 74 73 60 65 58 50 39 42 47 53 59 64 68 70 73 72 73 77
77 78 77 91 92 82 80 85 82 82 82 86 79 66 52 64 68 70 72 82 79 81 83 86 89 69 62 57 60 55 53 52 50 58 60 61 66 71 74 76 80 80 84
77 75 78 88 94 92 90 84 86 81 84 83 83 79 55 55 72 78 76 84 90 89 93 86 75 69 68 61 55 53 56 58 57 58 64 66 72 76 78 76 74 77 82
75 78 81 83 82 88 83 79 90 87 86 85 86 82 72 59 54 59 69 73 72 71 65 68 63 64 58 59 58 60 59 59 61 65 70 76 81 82 83 79 73 75 80
79 75 72 78 86 92 98 86 88 91 88 88 89 86 90 82 72 69 66 68 69 72 71 66 66 68 61 66 73 68 64 62 62 63 72 81 86 94 93 89 78 76 81
81 85 82 82 83 88 94 96 86 86 88 90 86 86 85 84 85 83 74 69 77 79 69 69 70 74 76 73 72 69 67 66 66 70 82 86 90 90 93 91 84 82 80
70 78 77 73 82 83 85 88 90 90 90 87 86 87 87 87 86 85 84 83 91 95 91 84 78 82 82 79 77 80 77 70 70 77 88 90 92 88 89 90 85 86 85
74 74 67 61 71 70 82 81 87 90 89 92 92 94 95 90 90 89 94 85 94 100 98 89 86 87 85 84 81 86 88 84 82 81 88 95 92 88 87 85 88 86 88
42 72 73 69 61 66 72 74 75 78 81 80 92 90 93 93 89 93 93 86 88 91 85 85 83 90 92 85 86 90 91 96 92 88 93 94 91 87 87 89 93 93 92
43 57 73 77 72 74 77 76 78 81 80 84 92 88 80 86 87 85 80 89 86 84 80 76 76 76 74 74 72 78 85 87 100 99 96 90 86 89 94 96 94 93 94
64 60 76 91 86 83 76 76 82 75 79 76 78 79 72 68 74 73 73 74 86 88 82 73 74 71 70 67 70 70 80 76 96 99 100 99 96 92 93 100 100 94 92

GFSSE_850_rhum_102.txt.gz
RH
81 67 68 71 70 68 65 55 49 40 31 44 87 82 64 65 66 86 92 86 75 52 29 25 25 43 74 73 49 74 76 65 63 63 72 81 74 44 47 81 83 83 82
76 67 68 70 70 69 63 56 46 37 31 59 92 91 89 88 93 92 88 71 46 24 19 12 18 41 56 64 79 84 81 60 62 69 83 89 84 69 48 54 72 82 82
71 71 71 70 70 66 61 56 41 35 29 49 95 94 94 97 90 88 77 52 23 17 12 15 27 49 69 69 77 80 76 54 56 69 87 89 87 85 72 59 52 52 62
68 85 75 71 71 64 60 53 40 36 24 29 88 95 95 90 86 81 51 22 16 13 19 24 53 78 81 78 81 69 48 40 37 44 58 76 72 77 81 77 82 85 89
71 93 92 74 70 64 63 51 41 31 25 24 32 85 88 87 79 36 20 15 15 22 29 42 74 80 80 77 72 54 38 29 23 21 20 21 26 39 38 33 43 77 95
76 81 90 72 68 67 67 49 45 29 23 24 24 26 30 28 20 16 14 17 24 35 42 62 76 81 82 64 57 50 36 27 23 21 19 18 17 16 15 14 16 23 31
67 85 88 72 69 70 71 51 49 46 38 32 23 14 14 12 12 13 18 28 41 46 49 60 70 64 62 56 49 40 35 32 28 28 28 26 25 22 20 17 16 15 14
64 80 76 82 80 78 71 64 58 63 56 45 30 13 12 12 15 18 21 32 41 44 45 51 56 53 54 55 41 45 57 47 42 40 38 37 36 32 28 24 21 18 16
62 74 77 88 90 78 71 68 64 79 80 61 44 20 16 18 21 24 27 31 34 36 37 43 46 44 42 50 51 47 55 56 49 47 45 43 44 44 42 38 32 27 23
68 76 86 89 89 82 78 76 68 80 91 85 56 31 20 21 24 27 30 32 33 33 33 36 38 37 40 45 57 59 58 57 56 52 48 47 46 45 45 47 48 44 37
73 84 88 85 85 87 84 84 83 78 79 89 73 47 27 22 24 28 30 31 33 34 33 34 36 37 40 46 58 69 62 56 55 52 47 47 47 47 46 47 47 49 51
82 86 86 85 86 89 90 91 87 69 60 75 71 61 45 31 26 25 28 29 31 31 33 34 35 36 36 43 57 66 62 58 58 60 53 50 49 49 50 50 51 52 52
92 90 88 87 90 88 86 90 80 50 44 42 52 62 54 47 38 29 26 26 27 27 26 28 29 33 37 39 47 57 59 57 54 54 53 54 53 55 55 56 59 62 64
88 82 88 88 90 90 84 87 80 49 53 42 35 34 48 51 46 41 37 32 31 31 33 34 36 40 42 46 41 49 50 52 50 48 50 55 57 59 61 62 64 67 73
90 81 84 86 85 85 85 88 84 63 61 42 38 38 36 35 41 40 49 45 42 40 41 44 51 61 58 49 48 47 49 47 48 46 48 55 61 64 66 68 69 72 75
85 79 82 80 84 86 85 82 82 69 72 67 54 49 52 50 48 41 40 48 49 53 53 64 70 67 67 65 71 61 54 46 41 45 51 58 64 68 71 72 71 74 79
80 77 77 79 80 85 82 78 81 72 70 75 76 59 47 48 47 38 45 56 66 69 73 71 69 70 72 70 54 54 59 58 50 54 59 64 69 74 76 77 76 83 84
78 79 76 76 80 82 78 79 80 81 75 71 78 71 51 46 50 52 58 60 76 72 75 77 77 72 70 66 58 57 54 58 59 56 58 65 72 80 83 81 75 75 74
77 78 82 81 84 87 81 80 75 78 81 81 81 78 75 54 51 55 62 70 79 80 83 82 83 74 68 65 58 58 59 62 64 66 66 70 76 83 87 89 84 75 75
81 78 76 80 82 87 84 84 78 76 82 86 83 86 78 73 58 59 68 77 81 86 84 77 67 68 67 65 70 65 64 62 63 64 68 78 85 89 92 95 92 85 79
77 78 79 82 79 79 75 88 90 84 89 90 86 88 85 81 82 78 70 67 71 71 72 69 71 71 70 70 75 74 67 65 66 68 77 80 92 94 90 92 90 90 84
75 76 79 79 80 79 72 78 84 89 88 86 86 88 86 86 84 84 84 81 74 77 80 84 80 73 73 80 85 83 82 70 66 72 80 89 93 93 89 89 86 91 88
64 74 82 77 81 79 75 78 80 89 89 87 83 84 86 89 90 87 95 94 90 79 64 70 73 73 80 83 88 95 91 87 83 81 77 91 95 89 94 94 85 88 82
45 53 65 68 70 80 84 80 74 72 79 80 84 88 89 90 91 96 96 90 87 92 76 77 79 74 80 79 93 97 96 93 96 91 90 82 97 96 96 93 91 92 92
42 43 52 67 65 68 76 78 75 77 77 78 86 89 89 97 100 99 95 96 100 96 96 97 89 85 84 80 79 87 86 88 83 90 97 91 94 94 89 81 89 88 94
44 47 52 57 68 76 74 76 78 78 79 80 76 82 94 94 92 88 89 81 77 95 98 90 88 87 86 82 80 77 84 88 73 75 86 91 97 95 90 82 89 99 99

GFSSE_850_rhum_105.txt.gz
RH
87 73 74 73 72 65 55 44 40 32 28 37 32 53 65 66 68 84 84 77 69 42 36 91 93 87 67 63 68 58 57 64 81 88 86 50 48 80 80 80 79 81 75
80 72 74 74 68 63 51 42 34 29 79 80 48 50 65 70 84 89 82 63 38 24 23 85 84 65 72 76 76 57 59 74 81 82 83 81 55 50 62 74 78 79 89
72 68 75 72 68 60 54 42 32 38 88 91 88 86 86 90 92 86 64 43 20 12 16 42 51 67 76 72 73 54 52 66 86 86 83 89 86 73 76 67 64 84 91
68 68 74 77 66 59 56 39 32 37 86 90 91 93 93 89 86 76 53 20 11 14 25 36 57 73 75 67 43 37 35 34 47 66 66 71 74 73 86 94 83 83 84
67 70 76 84 66 61 52 38 34 28 82 91 94 99 94 88 79 63 20 12 15 20 33 66 76 69 64 48 36 27 23 20 20 19 21 20 27 24 23 31 67 85 89
69 72 83 76 62 62 48 37 27 22 43 88 94 97 87 83 61 20 12 16 22 30 58 67 58 55 55 42 32 26 24 23 22 22 21 20 19 18 17 16 16 17 16
82 81 85 77 64 62 48 38 21 22 22 34 74 84 74 39 17 13 17 25 33 45 59 59 47 50 50 40 32 30 29 30 30 30 30 29 28 25 23 20 18 16 15
91 92 86 84 68 65 43 45 27 25 22 20 22 22 16 14 14 20 28 36 41 49 54 48 45 43 46 40 43 38 40 40 40 40 39 39 38 37 34 31 27 23 20
93 94 88 92 81 67 48 54 45 40 32 16 12 11 12 14 17 25 32 36 40 45 46 43 44 42 41 41 46 45 46 43 43 43 41 41 42 42 43 44 40 35 29
93 93 84 88 86 73 76 62 74 59 44 23 13 13 16 19 22 27 29 31 34 37 41 43 41 40 46 44 46 50 47 47 44 42 42 43 43 43 44 44 46 47 45
96 88 86 88 87 78 78 71 86 80 62 35 18 18 20 23 25 28 30 30 31 34 36 36 37 41 45 48 47 53 50 48 46 44 43 45 47 47 48 49 49 50 51
92 86 91 90 86 83 77 75 85 92 78 47 28 20 22 24 27 29 32 33 34 35 37 39 39 40 45 53 60 61 63 59 56 52 52 49 52 53 54 55 57 59 58
90 88 93 93 91 89 86 89 72 78 79 64 41 29 23 24 26 29 30 32 35 36 37 39 38 41 43 50 57 59 60 63 59 57 55 55 57 58 59 61 63 68 70
82 86 93 93 97 90 89 86 77 60 65 68 53 42 34 28 26 26 27 29 30 31 32 33 35 38 44 49 54 57 59 60 58 57 56 58 62 63 64 64 67 70 74
75 89 84 89 94 91 89 86 68 50 44 47 54 56 45 38 34 33 32 33 34 34 35 37 38 44 48 48 48 50 52 55 54 54 55 59 64 68 69 69 71 74 77
57 77 86 89 85 89 83 72 65 47 47 40 32 34 44 49 45 41 42 44 46 46 48 48 56 65 68 60 56 56 54 48 46 48 55 61 69 74 73 72 71 79 80
49 75 92 92 84 88 84 81 75 53 52 36 32 33 37 39 43 46 49 49 57 58 59 60 67 66 66 64 63 69 67 62 52 48 57 63 69 77 81 81 79 83 74
74 74 89 86 85 82 87 83 80 66 60 50 43 42 43 49 47 41 40 52 67 69 71 73 76 74 72 66 67 63 65 66 65 57 58 64 72 78 82 86 83 77 74
83 82 82 82 81 87 84 80 77 68 64 55 62 62 59 47 46 50 54 61 72 77 79 78 79 80 78 79 78 71 61 60 64 68 68 68 73 81 88 91 89 84 76
84 80 78 78 78 84 83 82 80 78 74 74 70 74 73 71 58 53 60 67 72 77 82 85 83 82 81 76 72 66 63 64 70 71 73 78 82 87 89 94 90 88 84
83 86 79 81 83 88 84 85 86 84 87 84 87 85 85 78 72 65 58 63 71 76 82 84 82 80 74 72 74 70 69 69 67 71 76 79 85 91 90 86 81 83 89
76 81 81 80 76 79 82 88 82 83 85 84 86 83 87 88 79 80 80 80 78 77 79 79 74 67 66 74 79 80 78 71 72 71 75 79 87 92 93 88 88 92 78
77 80 81 79 76 79 77 80 71 79 85 79 84 86 86 87 84 79 81 86 86 91 86 85 86 90 71 81 86 93 93 87 83 82 82 80 84 82 80 82 95 89 86
66 72 77 76 78 75 74 72 72 72 76 53 75 76 87 86 85 85 87 88 92 81 83 82 90 94 82 84 88 88 85 89 87 91 88 85 86 83 89 90 99 91 79
55 66 68 71 74 77 73 76 76 75 76 73 81 91 90 86 87 90 96 86 78 78 83 84 80 100 96 93 92 97 94 98 98 98 92 86 90 92 81 92 97 89 85
48 50 57 62 67 73 77 78 74 78 78 78 85 92 85 77 80 81 88 75 78 79 73 84 87 65 80 80 91 96 94 91 93 98 92 78 75 85 82 94 94 89 78

GFSSE_850_rhum_108.txt.gz
RH
84 75 80 72 68 64 58 49 47 38 32 33 43 72 79 74 72 88 76 74 63 49 100 97 86 84 66 55 55 65 82 86 86 48 50 76 79 83 80 80 85 85 86
79 74 80 76 68 62 50 40 34 25 27 36 66 77 75 69 85 85 76 56 38 78 98 99 88 72 69 55 56 80 83 81 82 78 65 52 53 60 69 73 84 91 88
77 77 83 78 67 54 43 38 29 70 60 64 70 72 71 84 94 82 60 34 22 68 95 89 72 72 70 52 46 62 83 83 75 75 91 82 82 74 82 87 87 88 86
76 76 90 74 62 49 43 31 64 86 86 79 77 77 81 92 86 66 43 18 12 30 47 78 73 62 55 37 34 33 44 49 60 49 50 63 68 77 85 83 70 63 51
72 76 88 71 59 49 40 29 70 88 90 90 88 90 88 85 77 59 19 10 13 26 54 78 70 48 35 28 25 21 20 20 20 21 20 20 19 19 26 33 23 19 15
71 82 85 69 58 49 37 30 60 89 92 94 94 99 84 81 68 21 11 13 22 46 78 60 46 34 32 26 24 24 24 24 24 25 25 24 22 21 19 18 17 16 16
72 84 83 70 58 50 35 32 38 86 94 96 100 87 76 73 26 12 14 20 36 52 47 42 37 34 31 29 28 29 31 32 34 34 35 34 32 30 27 25 23 21 19
75 89 90 71 58 49 32 24 23 62 95 98 95 77 74 30 13 14 21 30 45 45 36 36 36 37 36 36 37 36 39 40 39 39 40 40 41 41 40 36 33 29 25
82 88 90 84 63 48 35 21 22 23 47 70 73 56 24 13 15 22 30 37 41 37 34 36 39 41 44 47 46 44 42 43 43 42 42 42 42 43 44 44 44 41 37
90 88 89 94 71 50 43 27 24 20 20 20 20 14 12 16 25 32 36 38 41 40 40 40 41 44 44 46 49 50 49 45 43 44 45 46 46 46 47 48 48 49 48
92 90 88 87 83 59 54 54 41 29 14 12 12 12 15 20 26 30 34 37 42 46 46 45 45 49 48 49 52 52 50 50 49 50 49 51 51 51 52 54 54 55 54
96 92 86 86 85 78 67 80 62 44 20 14 14 17 19 25 29 30 33 36 38 41 42 42 42 45 50 54 55 55 56 55 55 56 54 54 56 57 58 60 63 64 63
99 83 87 86 88 84 76 88 90 67 35 18 18 21 23 25 29 30 32 35 37 39 38 39 42 43 47 51 53 55 58 57 56 56 56 58 59 61 63 65 67 69 70
85 85 90 85 88 82 75 88 90 85 52 29 21 23 24 25 28 30 32 34 36 37 38 40 42 43 46 50 53 55 55 57 56 55 55 57 61 64 65 67 70 72 73
41 60 92 88 86 82 79 79 84 89 70 45 31 24 25 26 29 31 33 34 35 34 33 34 36 42 50 56 57 55 54 52 52 54 56 58 62 66 68 71 73 73 75
45 44 81 84 81 83 84 88 82 72 80 74 52 40 35 28 27 28 29 30 32 35 38 41 42 50 58 57 55 55 57 54 52 51 55 59 65 69 72 75 79 79 74
49 41 73 86 80 79 85 90 80 64 65 69 65 58 44 42 40 38 38 39 45 46 48 51 57 65 70 67 64 65 67 68 68 54 54 63 72 78 82 84 83 80 82
50 50 43 82 80 80 79 85 75 51 48 44 43 40 45 48 45 45 48 51 59 58 61 60 66 71 73 71 68 66 61 63 65 66 60 63 69 78 85 89 90 82 77
49 72 75 61 79 77 85 78 80 59 63 48 41 37 41 43 46 45 40 44 60 69 72 74 78 77 77 74 70 71 69 64 63 63 69 72 70 75 84 91 93 88 79
87 78 53 69 76 88 89 88 87 83 69 57 53 53 52 51 50 51 53 58 64 69 73 73 75 80 78 72 71 69 64 63 63 68 72 74 78 81 86 89 84 83 79
84 80 72 69 74 88 88 94 93 84 80 80 80 80 78 73 65 58 56 58 64 63 66 75 83 79 77 79 78 70 62 71 67 63 66 72 77 82 88 88 85 82 82
82 95 96 96 85 89 85 87 84 82 82 91 86 86 85 82 78 75 74 69 68 72 76 81 85 84 85 84 89 88 74 77 74 72 72 73 75 80 87 87 83 81 89
79 84 88 97 91 83 80 82 82 79 80 90 84 83 78 76 87 80 86 84 84 86 86 88 87 87 87 88 94 99 89 88 86 78 74 77 77 75 77 78 81 80 96
68 78 72 77 98 91 86 86 80 85 79 77 71 71 67 64 77 83 87 91 88 83 88 98 98 95 81 79 96 91 93 94 98 92 86 86 85 85 89 77 86 96 94
74 76 80 82 99 99 94 86 61 66 78 82 78 71 69 70 76 86 97 100 100 90 86 90 86 80 87 85 78 69 87 95 100 100 100 91 88 89 84 83 89 96 96
73 67 64 82 79 91 90 93 94 83 80 89 77 73 74 65 80 85 82 83 75 75 93 92 90 87 91 89 93 96 98 94 88 94 97 97 85 83 89 83 78 90 100

GFSSE_850_rhum_111.txt.gz
RH
74 75 81 66 60 58 56 53 48 46 46 60 72 72 81 71 81 84 78 72 71 82 81 87 56 89 60 71 85 87 79 46 61 76 76 77 80 80 86 88 91 90 62
66 76 81 67 63 63 57 52 50 46 45 53 66 73 77 75 86 80 76 54 96 99 98 74 67 62 79 80 85 84 78 65 52 49 51 51 57 65 83 89 89 93 56
68 76 86 70 66 65 53 47 40 29 53 57 62 70 75 82 85 77 56 58 97 97 87 77 75 50 47 71 74 71 65 58 55 68 72 84 87 87 86 87 77 50 25
69 79 85 72 66 60 44 36 31 32 54 57 68 72 81 84 81 64 37 49 84 95 75 68 65 48 34 42 42 42 46 36 28 28 24 48 73 71 74 47 27 16 14
73 78 82 72 65 50 37 32 68 55 58 70 74 77 81 83 72 49 18 55 69 78 65 53 36 29 25 22 22 23 23 22 22 22 22 20 22 22 23 19 17 16 15
77 78 80 72 60 44 33 52 85 86 79 79 80 90 92 79 63 20 12 22 69 64 55 38 28 25 23 23 24 24 25 26 27 28 27 26 24 22 22 21 20 20 18
78 82 82 70 56 45 33 75 86 89 87 88 96 96 85 72 39 12 15 30 56 51 40 34 30 27 27 27 30 32 34 36 37 37 37 36 35 33 31 30 28 26 23
81 88 85 70 55 44 32 68 84 92 92 93 98 84 76 58 15 12 21 44 50 42 37 34 31 32 32 34 38 39 41 42 41 41 41 42 43 41 40 39 38 35 31
89 91 91 73 58 42 33 48 81 91 93 92 99 74 68 20 12 18 30 44 48 41 37 37 36 41 42 41 42 42 42 42 42 42 42 43 44 45 45 44 45 44 42
90 93 92 73 60 42 34 33 70 92 94 99 82 71 26 13 18 26 38 41 42 38 37 40 40 45 47 49 50 49 44 42 43 44 45 47 48 48 49 49 50 51 51
93 96 93 76 60 41 24 25 39 81 90 68 66 35 14 18 26 32 39 38 40 40 41 42 43 45 46 50 49 46 46 44 46 46 48 51 52 53 53 54 55 56 57
96 98 91 80 61 44 28 26 25 34 50 36 22 15 16 23 30 33 38 40 44 47 44 42 44 45 51 52 54 52 50 48 48 49 50 52 54 55 56 57 59 61 64
94 96 95 85 66 50 44 41 29 18 16 14 15 15 23 31 36 38 40 43 39 43 41 40 42 45 48 51 54 56 56 54 52 52 55 55 59 60 60 61 62 63 66
97 94 94 90 78 61 80 52 39 20 16 16 17 20 30 34 38 39 40 41 38 39 40 39 40 41 44 48 51 54 55 56 55 56 58 61 63 65 67 68 69 70 70
92 93 91 89 80 71 86 83 60 38 19 19 22 24 32 34 36 37 37 38 37 37 39 40 41 41 44 50 53 52 53 52 53 53 55 58 64 67 69 72 74 77 71
90 88 90 85 84 78 71 84 78 53 30 22 25 29 32 35 33 34 35 36 36 37 38 37 39 43 50 54 55 54 54 52 50 49 51 56 63 69 72 77 83 81 74
64 79 89 77 80 79 71 78 89 85 60 38 26 28 31 33 33 33 33 33 32 32 35 39 42 49 64 71 68 65 68 67 66 61 51 56 63 69 76 82 85 82 78
80 68 85 80 69 81 79 75 76 80 79 69 52 41 36 32 32 31 32 34 39 43 46 50 54 65 71 72 71 70 65 62 64 66 64 61 66 71 77 84 88 85 78
85 91 88 55 59 78 84 82 80 75 69 73 75 70 55 50 48 46 48 56 55 59 60 62 64 71 75 76 75 71 70 68 61 58 62 66 68 68 73 82 88 89 83
81 72 67 30 38 70 82 91 87 68 52 51 52 51 57 58 53 54 57 63 63 71 72 72 75 80 82 79 76 73 73 70 68 64 65 71 73 73 76 84 87 79 72
81 87 70 52 92 84 78 88 86 72 47 58 52 42 43 50 58 61 59 59 66 70 72 83 89 89 88 84 81 73 73 72 70 76 72 71 74 72 75 82 84 85 86
79 80 61 78 99 99 92 92 87 84 62 60 50 59 67 65 64 60 61 66 70 74 78 85 91 93 89 84 74 71 79 77 78 76 74 74 75 78 81 82 83 82 83
91 79 78 98 99 99 84 84 87 93 94 85 80 83 82 80 78 77 74 72 73 78 82 86 90 94 87 76 81 88 91 83 82 84 80 76 73 76 85 85 78 82 82
76 86 99 98 98 98 98 78 82 84 89 84 77 76 86 84 78 84 87 87 88 91 98 94 94 92 78 70 78 86 95 87 93 94 87 92 91 89 90 90 88 84 88
89 87 98 99 76 91 99 86 73 72 69 75 80 82 77 76 75 90 79 95 92 93 76 87 90 82 85 83 85 88 89 92 93 99 99 100 98 94 92 89 79 88 80
82 86 88 93 83 72 89 97 92 86 80 77 80 71 67 68 76 82 76 99 86 85 76 81 87 98 93 97 96 95 97 100 100 99 99 90 89 88 90 79 82 78 80

GFSSE_850_rhum_114.txt.gz
RH
86 99 61 52 55 64 75 73 73 74 75 72 69 84 83 84 87 85 83 64 76 83 68 80 65 66 84 88 56 49 72 77 77 77 78 77 80 82 86 90 96 56 34
86 95 74 59 56 58 64 64 64 64 69 73 67 83 80 81 86 83 73 80 76 82 56 75 59 86 86 86 65 47 48 54 52 53 55 60 79 83 87 87 54 24 18
89 98 79 63 55 55 56 52 48 46 49 68 62 75 74 83 97 89 69 88 81 73 59 81 80 83 78 71 62 56 57 62 67 83 98 96 90 86 71 40 19 15 14
90 100 97 65 58 56 53 49 47 44 45 57 61 70 81 91 94 68 75 68 85 80 76 48 43 63 63 59 51 42 38 44 46 74 84 83 91 32 25 17 16 16 16
94 99 96 69 65 63 51 44 36 31 45 54 64 74 84 96 76 47 68 80 77 70 70 47 32 35 34 28 29 31 28 26 25 57 75 88 80 20 19 20 20 18 18
99 99 94 70 68 62 45 32 30 54 65 66 76 79 87 88 58 31 82 83 78 60 48 31 27 24 23 24 24 25 26 27 36 58 66 38 34 25 25 25 24 22 21
100 99 98 74 69 56 39 39 50 67 70 78 77 85 81 70 38 30 85 78 64 51 34 27 25 24 26 28 30 32 35 36 49 54 80 59 36 35 35 34 31 29 26
100 100 97 78 67 47 36 74 78 72 75 79 85 97 81 61 17 18 78 66 55 38 32 29 28 28 31 34 37 38 39 38 45 46 48 42 41 41 41 40 39 37 34
99 99 98 81 60 43 64 84 88 84 85 89 97 91 75 40 14 24 72 61 46 35 34 32 33 36 38 38 39 39 39 38 42 47 74 47 43 44 45 46 46 45 43
96 100 95 100 62 51 79 90 93 92 94 95 99 84 66 17 17 52 68 56 44 37 37 39 40 43 43 42 41 39 39 41 49 57 69 46 47 49 50 51 51 51 51
99 96 97 100 94 90 75 89 96 97 98 98 99 74 32 17 32 71 88 54 46 42 42 43 45 45 46 45 43 42 42 63 75 83 62 50 52 54 56 56 57 58 58
100 100 100 99 95 89 94 90 100 100 100 100 91 68 54 71 90 98 87 67 51 48 45 43 43 46 53 54 50 48 74 72 77 79 52 51 54 57 59 60 61 62 63
98 98 100 100 98 90 89 98 100 100 100 98 98 82 83 88 94 96 99 95 56 54 51 51 50 52 55 74 59 84 83 82 80 69 54 53 56 58 61 63 63 64 63
99 97 98 99 100 87 88 85 95 99 99 96 94 90 87 95 95 97 98 98 66 84 54 45 56 49 51 57 70 73 81 83 83 75 55 56 59 62 64 66 66 65 62
63 99 97 94 96 90 89 85 87 90 93 90 88 88 76 64 94 95 93 94 92 66 46 43 47 48 54 59 55 59 56 66 58 61 88 58 61 64 68 70 71 68 63
62 99 92 86 96 98 94 86 81 85 87 91 89 91 58 83 92 92 86 79 61 46 45 46 48 46 46 65 62 52 51 50 51 52 64 64 61 66 72 76 82 79 74
84 97 89 82 82 96 84 89 85 59 69 81 74 91 93 94 73 47 44 45 44 42 42 42 42 54 78 66 80 62 63 65 58 56 49 65 65 67 72 78 86 81 71
84 70 88 88 83 97 57 76 50 31 28 47 61 69 68 56 44 41 41 40 41 41 37 38 44 65 90 80 85 76 70 62 65 66 64 57 61 69 71 80 83 84 77
59 66 80 86 94 96 66 73 82 70 45 32 43 42 38 41 42 41 42 40 37 39 46 53 58 79 79 81 79 72 69 69 68 63 60 64 65 65 68 77 85 87 85
72 78 98 72 90 96 79 72 83 95 90 69 44 34 33 36 36 38 40 43 50 62 64 66 70 80 87 85 79 71 68 62 56 56 57 61 68 72 73 76 88 84 83
90 98 100 90 88 97 86 78 82 79 81 95 96 85 57 51 51 57 65 74 77 76 78 84 88 88 86 79 74 82 64 64 69 73 75 75 77 73 73 82 92 88 86
97 95 82 99 92 95 86 74 79 87 84 67 67 64 63 66 70 68 70 72 72 76 84 85 88 87 86 71 76 87 86 90 75 71 70 80 90 80 74 79 84 89 93
93 94 93 92 100 98 91 72 86 91 81 61 59 54 53 49 56 66 71 74 72 78 81 81 85 89 82 74 78 88 92 84 92 82 80 78 77 82 79 88 88 85 83
95 100 99 99 99 99 99 79 74 79 79 50 56 50 52 62 67 70 72 77 77 80 84 84 84 81 74 72 86 81 84 94 98 91 91 85 85 95 92 96 91 92 89
94 92 100 96 97 99 81 95 81 95 80 71 67 61 73 80 82 80 81 79 81 84 87 80 71 60 70 82 84 86 89 88 89 95 98 100 94 82 88 88 88 79 78
93 74 90 100 99 98 100 96 94 96 87 77 76 76 82 80 75 84 94 92 94 96 93 86 79 77 75 87 86 92 92 90 86 91 99 95 88 81 83 82 77 77 80

GFSSE_850_rhum_117.txt.gz
RH
71 91 62 57 66 68 70 70 73 73 71 72 78 82 77 81 81 80 68 86 82 72 84 49 62 70 37 57 81 83 80 79 77 76 80 81 84 86 82 45 26 17 14
76 74 50 54 57 68 71 72 74 73 72 70 77 82 80 84 83 79 69 82 83 74 70 74 88 86 72 49 69 69 64 62 58 64 73 80 82 70 53 26 17 15 14
80 86 46 50 58 70 71 71 72 75 73 70 72 82 80 84 83 73 72 72 73 56 52 86 88 89 72 54 46 46 50 67 88 93 91 94 69 34 19 15 15 15 21
80 97 74 53 54 62 68 69 70 71 67 69 69 82 74 84 85 78 81 70 57 69 79 87 83 90 62 48 46 59 69 72 83 82 78 88 36 19 18 18 35 33 27
81 89 100 59 56 55 58 56 52 52 58 62 63 79 79 92 94 79 66 80 83 62 45 71 65 57 49 36 30 28 27 33 59 82 86 71 30 22 26 27 23 23 31
82 86 98 65 55 54 53 51 50 48 53 58 66 77 85 98 83 73 80 80 77 66 36 42 41 32 27 27 26 26 31 60 81 80 50 41 30 29 29 29 28 25 25
84 89 96 73 58 60 56 51 48 48 51 62 72 78 87 98 64 69 80 70 68 58 31 26 25 25 25 27 30 31 39 71 82 87 73 39 37 37 36 35 34 32 33
93 92 96 93 66 63 53 39 39 59 62 70 75 84 93 70 65 77 82 73 55 36 27 25 25 27 30 33 36 37 40 74 84 84 47 40 40 41 41 41 41 38 37
89 91 96 91 75 66 47 37 62 69 69 78 81 91 88 52 46 76 79 66 47 32 27 27 28 32 36 37 37 38 39 68 85 86 68 41 42 44 45 46 47 46 43
73 88 94 95 89 71 50 66 73 74 81 85 90 100 78 31 43 84 70 74 44 34 30 30 34 37 39 38 39 40 46 74 86 84 47 45 46 48 49 51 52 52 51
67 79 97 94 99 95 73 86 82 80 85 90 95 96 62 27 68 91 86 64 43 38 38 40 41 40 42 41 40 43 64 79 83 83 46 46 48 50 50 52 53 54 55
54 72 97 95 87 86 93 88 91 91 94 98 97 93 57 67 95 99 88 61 48 46 48 49 50 49 47 45 44 55 78 78 85 84 48 48 50 53 55 56 56 56 57
48 58 87 96 80 80 94 87 96 97 98 96 98 90 72 83 96 97 99 73 58 55 51 53 52 57 88 85 71 79 75 78 83 84 51 50 53 58 60 61 59 54 55
61 56 77 90 78 73 92 89 98 99 99 96 98 82 70 81 92 98 95 80 64 65 58 55 69 87 86 82 80 80 79 81 81 89 52 54 56 59 62 64 64 60 58
73 63 62 96 80 69 79 86 94 98 95 96 98 70 72 80 87 98 99 98 95 91 88 87 82 85 82 78 77 76 79 82 84 86 78 54 56 59 63 67 69 67 63
98 79 69 98 83 71 72 85 87 90 84 87 87 80 91 89 86 92 98 99 94 92 89 82 79 80 80 78 76 75 69 70 77 83 87 62 55 58 63 68 77 76 72
86 96 78 94 84 74 74 72 77 90 96 84 84 92 95 94 91 92 93 92 92 92 83 78 76 75 76 81 82 76 73 73 65 68 78 84 64 59 65 70 85 82 71
74 99 69 96 88 81 77 76 75 81 81 83 84 93 97 93 93 95 93 93 93 85 82 78 73 74 88 96 94 92 83 77 83 82 71 69 78 78 68 71 77 81 79
73 99 91 95 93 87 87 86 80 79 84 85 87 92 93 92 96 93 90 88 86 81 78 75 74 87 95 95 82 83 73 67 61 78 82 82 80 77 91 92 82 81 83
79 91 82 68 92 96 91 93 91 85 84 89 90 89 94 93 91 88 85 84 78 74 74 70 91 92 98 96 71 67 63 67 78 75 83 86 85 82 79 94 94 84 85
86 73 100 94 97 92 91 99 94 86 80 79 77 80 74 82 78 71 79 86 80 73 89 76 77 71 75 73 74 76 82 92 85 75 72 72 85 73 78 94 99 99 96
89 67 100 85 99 92 86 98 96 86 85 76 65 66 50 67 57 60 84 91 91 97 98 86 83 78 80 73 81 87 85 87 86 73 72 73 82 83 79 78 86 86 89
75 72 74 95 99 96 93 100 99 99 98 93 89 87 85 84 72 61 97 98 90 79 92 78 74 77 82 95 94 93 83 82 89 91 80 79 87 82 81 79 83 92 94
80 72 86 83 99 96 97 99 99 97 94 94 91 96 95 89 88 78 85 63 62 59 72 74 76 75 85 94 89 84 82 79 91 90 92 88 85 86 86 89 87 88 86
83 73 85 99 98 90 97 98 97 98 83 74 73 72 68 66 56 54 61 67 71 76 80 82 82 83 86 90 79 87 81 84 89 97 98 94 92 86 78 80 85 82 76
83 64 99 98 99 96 89 94 99 99 98 85 82 94 79 64 54 71 76 74 74 80 82 84 87 81 82 91 81 88 89 97 98 87 88 93 95 90 80 76 75 77 73

GFSSE_850_rhum_120.txt.gz
RH
71 60 55 62 60 61 64 69 73 70 68 69 72 72 72 73 74 62 82 69 72 68 43 43 35 58 86 89 85 81 76 76 79 78 81 85 68 46 25 18 16 16 17
66 61 50 66 62 55 65 69 74 71 68 73 73 71 74 76 71 72 84 70 84 44 78 91 76 45 77 81 80 74 65 57 66 73 75 67 47 26 17 16 17 27 36
74 70 54 65 63 57 66 70 73 73 69 69 78 74 78 78 74 74 78 80 75 62 87 90 91 46 61 67 58 55 72 79 80 76 43 30 18 17 17 17 22 28 38
76 72 60 66 64 58 66 69 72 74 70 69 77 76 80 80 74 75 72 75 60 80 87 85 80 55 43 45 52 74 80 87 88 87 53 24 22 23 31 40 61 41 42
70 77 56 66 65 67 69 71 73 75 73 68 74 79 75 81 74 72 66 57 56 77 82 78 78 38 35 50 60 64 79 81 84 75 40 27 28 33 29 26 30 32 42
73 79 53 64 69 72 70 72 71 71 67 66 74 81 74 85 79 66 69 64 61 70 73 51 36 31 29 28 27 35 56 68 56 44 34 32 33 33 32 31 32 33 39
79 80 76 57 65 69 66 62 57 52 56 62 70 77 84 94 70 59 82 79 53 39 50 34 28 27 27 27 32 54 77 84 74 45 37 37 37 36 36 37 37 37 34
74 77 78 73 62 64 61 55 51 48 52 59 67 80 87 93 62 81 84 73 54 32 28 26 25 26 29 32 39 55 78 82 60 41 38 36 38 39 40 40 40 40 38
71 72 75 77 69 62 61 58 53 53 53 56 76 84 90 88 63 79 76 60 45 27 25 24 27 31 35 38 40 51 75 80 62 40 38 38 40 42 44 45 45 45 43
62 77 74 79 78 74 68 56 49 67 69 63 82 90 93 75 74 81 78 52 34 27 25 28 32 36 37 39 42 52 68 73 71 50 42 43 45 48 49 50 50 51 50
78 76 75 72 82 79 67 48 56 73 73 80 88 98 92 58 82 87 75 52 34 29 28 33 37 38 39 40 46 67 79 85 72 44 43 46 49 51 52 51 51 53 56
90 76 78 70 75 76 78 60 69 75 77 89 97 99 85 46 88 86 80 60 38 34 35 39 42 44 42 42 54 72 76 81 74 50 46 47 49 52 54 52 49 49 56
84 72 87 77 79 88 87 80 79 82 88 94 91 100 51 54 90 86 87 86 43 44 44 48 49 54 54 53 74 77 78 77 69 50 47 48 50 53 57 58 53 49 54
100 91 70 84 82 98 83 92 92 93 92 93 90 95 52 80 86 86 85 56 46 49 52 51 58 78 87 84 83 75 78 80 82 61 50 50 51 54 58 61 60 56 54
82 97 91 68 76 96 82 80 100 95 96 86 92 70 72 83 85 86 82 61 56 54 54 56 68 85 83 79 76 78 81 80 84 68 69 53 53 56 60 64 67 66 59
66 89 99 87 85 66 97 76 99 99 98 94 92 72 73 88 81 93 88 69 66 81 67 74 84 76 80 78 74 73 61 82 77 81 71 66 54 57 61 65 73 76 69
68 68 94 100 86 60 93 70 99 98 87 94 87 72 71 88 78 96 89 72 82 90 88 80 77 77 71 78 78 74 66 66 64 63 73 73 74 65 63 68 75 82 75
75 64 81 81 96 69 100 80 87 96 93 88 82 72 76 86 85 93 95 86 90 92 86 76 73 70 77 69 82 84 82 79 78 81 78 75 76 75 75 75 75 78 81
64 58 63 85 90 71 98 84 82 87 91 82 86 74 82 88 92 80 87 92 94 85 81 70 61 59 78 79 83 86 78 74 73 81 85 83 82 79 78 88 90 82 82
58 52 54 77 100 85 88 79 80 94 89 87 84 80 69 88 91 94 93 92 87 75 67 57 50 66 77 78 73 70 73 81 85 81 78 83 82 82 77 78 80 80 78
48 45 50 79 100 90 82 77 75 77 83 84 82 91 84 93 92 93 89 79 73 57 49 44 50 63 79 88 83 78 84 82 75 76 76 80 85 86 78 83 87 77 83
46 44 54 74 100 91 92 79 75 77 84 86 85 93 96 94 91 78 78 75 62 54 48 53 60 65 75 81 80 92 86 90 90 85 78 74 76 83 84 86 90 90 88
43 39 59 78 99 100 90 81 75 79 84 88 94 86 94 90 75 80 77 61 56 57 54 61 74 77 80 97 97 85 82 85 94 90 87 82 81 84 83 81 83 86 86
47 48 72 88 89 99 89 86 78 78 85 82 83 82 85 83 80 80 71 67 49 64 66 74 83 86 89 99 99 88 80 77 76 95 93 85 83 79 81 76 80 91 93
67 77 73 82 95 99 86 90 95 93 85 73 73 78 77 86 78 70 74 54 53 69 73 80 75 73 84 91 93 82 81 82 80 97 95 92 80 90 87 76 73 81 87
77 81 82 73 65 82 100 85 82 91 90 86 87 85 90 85 88 88 77 64 72 72 71 70 72 78 81 79 87 83 81 92 92 95 91 94 97 88 82 82 77 74 76